[[{"header":{"parameterUnit":"m.s-1","parameterCategory":1,"la1":30.6,"la2":29.2853,"lo1":-89.7004,"lo2":-87.6739,"dy":0.0162,"dx":0.0183,"nx":112,"ny":82,"refTime":"2024-07-15T12:00:00:Z","depth":0,"parameterNumber":2,"parameterNumberName":"U-component_of_WINDS"},"data":[0.0,0.0,0.0,0.0,0.0,0.0,0.0,0.0,0.0,0.0,0.0,0.0,0.0,0.0,0.0,0.0,0.0,0.0,0.0,0.0,0.0,0.0,0.0,0.0,0.0,0.0,0.0,0.0,0.0,0.0,0.0,0.0,0.0,0.0,0.0,0.0,0.0,0.0,0.0,0.0,0.0,0.0,0.0,0.0,0.0,0.0,0.0,0.0,0.0,0.0,0.0,0.0,0.0,0.0,0.0,0.0,0.0,0.0,0.0,0.0,0.0,0.0,0.0,0.0,0.0,0.0,0.0,0.0,0.0,0.0,0.0,0.0,0.0,0.0,0.0,0.0,0.0,0.0,0.0,0.0,0.0,0.0,0.0,0.0,0.0,0.0,0.0,0.0,0.0,0.0,-1.2781,-1.2781,-1.2022,-1.1504,-1.1485,-1.1322,-1.1204,-1.119,0.0,0.0,0.0,0.0,0.0,0.0,0.0,0.0,0.0,0.0,0.0,0.0,0.0,0.0,0.0,0.0,0.0,0.0,0.0,0.0,0.0,0.0,0.0,0.0,0.0,0.0,0.0,0.0,0.0,0.0,0.0,0.0,0.0,0.0,0.0,0.0,0.0,0.0,0.0,0.0,0.0,0.0,0.0,0.0,0.0,0.0,0.0,0.0,0.0,0.0,0.0,0.0,0.0,0.0,0.0,0.0,0.0,0.0,0.0,0.0,0.0,0.0,0.0,0.0,0.0,0.0,0.0,0.0,0.0,0.0,0.0,0.0,0.0,0.0,0.0,0.0,0.0,0.0,0.0,0.0,0.0,0.0,0.0,0.0,0.0,0.0,0.0,0.0,0.0,0.0,0.0,0.0,0.0,0.0,0.0,0.0,0.0,0.0,0.0,0.0,0.0,0.0,0.0,0.0,-1.232,-1.232,-1.182,-1.1491,-1.1421,-1.1284,-1.1171,-1.1125,0.0,0.0,0.0,0.0,0.0,0.0,0.0,0.0,0.0,0.0,0.0,0.0,0.0,0.0,0.0,0.0,0.0,0.0,0.0,0.0,0.0,0.0,0.0,0.0,0.0,0.0,0.0,0.0,0.0,0.0,0.0,0.0,0.0,0.0,0.0,0.0,0.0,0.0,0.0,0.0,0.0,0.0,0.0,0.0,0.0,0.0,0.0,0.0,0.0,0.0,0.0,0.0,0.0,0.0,0.0,0.0,0.0,0.0,0.0,0.0,0.0,0.0,0.0,0.0,0.0,0.0,0.0,0.0,0.0,0.0,0.0,0.0,0.0,0.0,0.0,0.0,0.0,0.0,0.0,0.0,0.0,0.0,0.0,0.0,0.0,0.0,0.0,0.0,0.0,0.0,0.0,0.0,0.0,0.0,0.0,0.0,0.0,0.0,0.0,0.0,0.0,0.0,0.0,-1.2207,-1.1941,-1.1823,-1.1462,-1.1282,-1.1384,-1.1284,-1.1171,-1.1106,-1.0766,0.0,0.0,0.0,0.0,0.0,0.0,0.0,0.0,0.0,0.0,0.0,0.0,0.0,0.0,0.0,0.0,0.0,0.0,0.0,0.0,0.0,0.0,0.0,0.0,0.0,0.0,0.0,0.0,0.0,0.0,0.0,0.0,0.0,0.0,0.0,0.0,0.0,0.0,0.0,0.0,0.0,0.0,0.0,0.0,0.0,0.0,0.0,0.0,0.0,0.0,0.0,0.0,0.0,0.0,0.0,0.0,0.0,0.0,0.0,0.0,0.0,0.0,0.0,0.0,0.0,0.0,0.0,0.0,0.0,0.0,0.0,0.0,0.0,0.0,0.0,0.0,0.0,0.0,0.0,0.0,0.0,0.0,0.0,0.0,0.0,0.0,0.0,0.0,0.0,0.0,0.0,0.0,0.0,0.0,0.0,0.0,0.0,0.0,0.0,0.0,0.0,0.0,-1.205,-1.189,-1.1421,-1.111,-1.0973,-1.1085,-1.1042,-1.0947,-1.0761,-1.0356,0.0,0.0,0.0,0.0,0.0,0.0,0.0,0.0,0.0,0.0,0.0,0.0,0.0,0.0,0.0,0.0,0.0,0.0,0.0,0.0,0.0,0.0,0.0,0.0,0.0,0.0,0.0,0.0,0.0,0.0,0.0,0.0,0.0,0.0,0.0,0.0,0.0,0.0,0.0,0.0,0.0,0.0,0.0,0.0,0.0,0.0,0.0,0.0,0.0,0.0,0.0,0.0,0.0,0.0,0.0,0.0,0.0,0.0,0.0,0.0,0.0,0.0,0.0,0.0,0.0,0.0,0.0,0.0,0.0,0.0,0.0,0.0,0.0,0.0,0.0,0.0,0.0,0.0,0.0,0.0,0.0,0.0,0.0,0.0,0.0,0.0,0.0,0.0,0.0,0.0,0.0,0.0,0.0,0.0,0.0,0.0,0.0,0.0,0.0,0.0,0.0,0.0,-1.2282,-1.2359,-1.1151,-1.0854,-1.0586,-1.0215,-1.0346,-1.0239,-0.9737,-0.9663,0.0,0.0,0.0,0.0,0.0,0.0,0.0,0.0,0.0,0.0,0.0,0.0,0.0,0.0,0.0,0.0,0.0,0.0,0.0,0.0,0.0,0.0,0.0,0.0,0.0,0.0,0.0,0.0,0.0,0.0,0.0,0.0,0.0,0.0,0.0,0.0,0.0,0.0,0.0,0.0,0.0,0.0,0.0,0.0,0.0,0.0,0.0,0.0,0.0,0.0,0.0,0.0,0.0,0.0,0.0,0.0,0.0,0.0,0.0,0.0,0.0,0.0,0.0,0.0,0.0,0.0,0.0,0.0,0.0,0.0,0.0,0.0,0.0,0.0,0.0,0.0,0.0,0.0,0.0,0.0,0.0,0.0,0.0,0.0,0.0,0.0,0.0,0.0,0.0,0.0,0.0,0.0,0.0,0.0,0.0,0.0,0.0,0.0,0.0,0.0,0.0,0.0,-1.2111,-1.2026,-1.1546,-1.0865,-1.037,-1.0123,-1.0045,-0.9898,-0.9619,0.0,0.0,0.0,0.0,0.0,0.0,0.0,0.0,0.0,0.0,0.0,0.0,0.0,0.0,0.0,0.0,0.0,0.0,0.0,0.0,0.0,0.0,0.0,0.0,0.0,0.0,0.0,0.0,0.0,0.0,0.0,0.0,0.0,0.0,0.0,0.0,0.0,0.0,0.0,0.0,0.0,0.0,0.0,0.0,0.0,0.0,0.0,0.0,0.0,0.0,0.0,0.0,0.0,0.0,0.0,0.0,0.0,0.0,0.0,0.0,0.0,0.0,0.0,0.0,0.0,0.0,0.0,0.0,0.0,0.0,0.0,0.0,0.0,0.0,0.0,0.0,0.0,0.0,0.0,0.0,0.0,0.0,0.0,0.0,0.0,0.0,0.0,0.0,0.0,0.0,0.0,0.0,0.0,0.0,0.0,0.0,0.0,0.0,0.0,0.0,0.0,0.0,-1.2205,-1.2167,-1.2048,-1.1779,-1.0805,-1.0089,-0.9863,-0.9657,-0.9454,-0.9235,0.0,0.0,0.0,0.0,0.0,0.0,0.0,0.0,0.0,0.0,0.0,0.0,0.0,0.0,0.0,0.0,0.0,0.0,0.0,0.0,0.0,0.0,0.0,0.0,0.0,0.0,0.0,0.0,0.0,0.0,0.0,0.0,0.0,0.0,0.0,0.0,0.0,0.0,0.0,0.0,0.0,0.0,0.0,0.0,0.0,0.0,0.0,0.0,0.0,0.0,0.0,0.0,0.0,0.0,0.0,0.0,0.0,0.0,0.0,0.0,0.0,0.0,0.0,0.0,0.0,0.0,0.0,0.0,0.0,0.0,0.0,0.0,0.0,0.0,0.0,0.0,0.0,0.0,0.0,0.0,0.0,0.0,0.0,0.0,0.0,0.0,0.0,0.0,0.0,0.0,0.0,0.0,0.0,0.0,0.0,0.0,0.0,0.0,0.0,0.0,0.0,0.0,-1.2205,-1.2611,-1.2554,-1.1679,-1.0577,-0.9728,-0.9335,-0.9112,-0.8818,0.0,0.0,0.0,0.0,0.0,0.0,0.0,0.0,0.0,0.0,0.0,0.0,0.0,0.0,0.0,0.0,0.0,0.0,0.0,0.0,0.0,0.0,0.0,0.0,0.0,0.0,0.0,0.0,0.0,0.0,0.0,0.0,0.0,0.0,0.0,0.0,0.0,0.0,0.0,0.0,0.0,0.0,0.0,0.0,0.0,0.0,0.0,0.0,0.0,0.0,0.0,0.0,0.0,0.0,0.0,0.0,0.0,0.0,0.0,0.0,0.0,0.0,0.0,0.0,0.0,0.0,0.0,0.0,0.0,0.0,0.0,0.0,0.0,0.0,0.0,0.0,0.0,0.0,0.0,0.0,0.0,0.0,0.0,0.0,0.0,0.0,0.0,0.0,0.0,0.0,0.0,0.0,0.0,0.0,0.0,0.0,0.0,0.0,0.0,0.0,0.0,0.0,0.0,-1.2167,-1.2311,-1.2097,-1.1257,-1.0414,-0.9629,-0.8938,-0.8688,-0.8516,-0.8398,0.0,0.0,0.0,0.0,0.0,0.0,0.0,0.0,0.0,0.0,0.0,0.0,0.0,0.0,0.0,0.0,0.0,0.0,0.0,0.0,0.0,0.0,0.0,0.0,0.0,0.0,0.0,0.0,0.0,0.0,0.0,0.0,0.0,0.0,0.0,0.0,0.0,0.0,0.0,0.0,0.0,0.0,0.0,0.0,0.0,0.0,0.0,0.0,0.0,0.0,0.0,0.0,0.0,0.0,0.0,0.0,0.0,0.0,0.0,0.0,0.0,0.0,0.0,0.0,0.0,0.0,0.0,0.0,0.0,0.0,0.0,0.0,0.0,0.0,0.0,0.0,0.0,0.0,0.0,0.0,0.0,0.0,0.0,0.0,0.0,0.0,0.0,0.0,0.0,0.0,0.0,0.0,0.0,0.0,0.0,0.0,0.0,0.0,0.0,0.0,0.0,0.0,-1.2123,-1.2191,-1.1887,-1.119,-1.0364,-0.9579,-0.8882,-0.8553,-0.8398,-0.8398,0.0,0.0,0.0,0.0,0.0,0.0,0.0,0.0,0.0,0.0,0.0,0.0,0.0,0.0,0.0,0.0,0.0,0.0,0.0,0.0,0.0,0.0,0.0,0.0,0.0,0.0,0.0,0.0,0.0,0.0,0.0,0.0,0.0,0.0,0.0,0.0,0.0,0.0,0.0,0.0,0.0,0.0,0.0,0.0,0.0,0.0,0.0,0.0,0.0,0.0,0.0,0.0,0.0,0.0,0.0,0.0,0.0,0.0,0.0,0.0,0.0,0.0,0.0,0.0,0.0,0.0,0.0,0.0,0.0,0.0,0.0,0.0,0.0,0.0,0.0,0.0,0.0,0.0,0.0,0.0,0.0,0.0,0.0,0.0,0.0,0.0,0.0,0.0,0.0,0.0,0.0,0.0,0.0,0.0,0.0,0.0,0.0,0.0,0.0,0.0,0.0,0.0,-1.203,-1.2124,-1.1882,-1.1252,-1.0349,-0.9569,-0.8996,-0.8565,-0.8358,-0.8394,0.0,0.0,0.0,0.0,0.0,0.0,0.0,0.0,0.0,0.0,0.0,0.0,0.0,0.0,0.0,0.0,0.0,0.0,0.0,0.0,0.0,0.0,0.0,0.0,0.0,0.0,0.0,0.0,0.0,0.0,0.0,0.0,0.0,0.0,0.0,0.0,0.0,0.0,0.0,0.0,0.0,0.0,0.0,0.0,0.0,0.0,0.0,0.0,0.0,0.0,0.0,0.0,0.0,0.0,0.0,0.0,0.0,0.0,0.0,0.0,-1.1979,-1.209,0.0,0.0,0.0,0.0,0.0,0.0,0.0,0.0,0.0,0.0,0.0,0.0,0.0,0.0,0.0,0.0,0.0,0.0,0.0,0.0,0.0,0.0,0.0,0.0,0.0,0.0,0.0,0.0,0.0,0.0,0.0,0.0,0.0,0.0,0.0,0.0,0.0,0.0,0.0,0.0,-1.1618,-1.1967,-1.1674,-1.0331,-1.0015,-0.9515,-0.8614,-0.8151,-0.8071,-0.8378,-0.7769,0.0,0.0,0.0,0.0,0.0,0.0,0.0,0.0,0.0,0.0,0.0,0.0,0.0,0.0,0.0,0.0,0.0,0.0,0.0,0.0,0.0,0.0,0.0,0.0,0.0,0.0,0.0,0.0,0.0,0.0,0.0,0.0,0.0,0.0,0.0,0.0,0.0,0.0,0.0,0.0,0.0,0.0,0.0,0.0,0.0,0.0,0.0,0.0,0.0,0.0,0.0,0.0,0.0,0.0,0.0,0.0,0.0,0.0,0.0,-1.254,-1.2818,0.0,0.0,0.0,0.0,0.0,0.0,0.0,0.0,0.0,0.0,0.0,0.0,0.0,0.0,0.0,0.0,0.0,0.0,0.0,0.0,0.0,0.0,0.0,0.0,0.0,0.0,0.0,0.0,0.0,0.0,0.0,0.0,0.0,0.0,0.0,0.0,0.0,0.0,0.0,0.0,-1.1504,-1.1747,-1.1394,-1.004,-0.9732,-0.9286,-0.8475,-0.8039,-0.7893,-0.8103,-0.7602,0.0,0.0,0.0,0.0,0.0,0.0,0.0,0.0,0.0,0.0,0.0,0.0,0.0,0.0,0.0,0.0,0.0,0.0,0.0,0.0,0.0,0.0,0.0,0.0,0.0,0.0,0.0,0.0,0.0,0.0,0.0,0.0,0.0,0.0,0.0,0.0,0.0,0.0,0.0,0.0,0.0,0.0,0.0,0.0,0.0,0.0,0.0,0.0,0.0,0.0,0.0,0.0,0.0,-1.3952,-1.3431,-1.283,-1.2656,-1.2538,-1.2489,-1.2954,-1.3363,-1.3652,-1.3123,0.0,0.0,0.0,0.0,0.0,0.0,0.0,0.0,0.0,0.0,0.0,0.0,0.0,0.0,0.0,0.0,0.0,0.0,0.0,0.0,0.0,0.0,-1.2445,-1.2332,-1.2866,-1.329,-1.2973,0.0,0.0,0.0,0.0,0.0,0.0,0.0,0.0,0.0,0.0,0.0,-1.1635,-1.158,-1.114,-1.002,-0.9524,-0.9047,-0.8455,-0.7984,-0.7746,-0.7787,-0.7425,-0.7241,0.0,0.0,0.0,0.0,0.0,0.0,0.0,0.0,0.0,0.0,0.0,0.0,0.0,0.0,0.0,0.0,0.0,0.0,0.0,0.0,0.0,0.0,0.0,0.0,0.0,0.0,0.0,0.0,0.0,0.0,0.0,0.0,-1.2133,-1.2742,0.0,0.0,0.0,0.0,0.0,0.0,0.0,0.0,0.0,0.0,0.0,0.0,0.0,-1.5074,-1.5171,-1.6154,-1.6114,-1.5074,-1.5389,-1.4954,-1.3824,-1.4016,-1.3898,-1.3527,-1.4013,0.0,-1.3652,-1.3123,0.0,0.0,0.0,0.0,0.0,0.0,0.0,0.0,0.0,0.0,0.0,0.0,0.0,0.0,0.0,0.0,0.0,0.0,0.0,0.0,0.0,0.0,-1.3385,-1.2927,-1.2908,-1.2958,-1.291,-1.3166,-1.338,-1.327,-1.2632,-1.2191,0.0,0.0,0.0,0.0,0.0,0.0,-1.2153,-1.1705,-1.1035,-1.0005,-0.9494,-0.8996,-0.8439,-0.7757,-0.7485,-0.7775,-0.7211,-0.7097,-0.762,-0.7359,0.0,0.0,0.0,0.0,0.0,0.0,0.0,0.0,0.0,0.0,0.0,0.0,0.0,0.0,0.0,0.0,0.0,0.0,0.0,0.0,0.0,0.0,0.0,0.0,0.0,0.0,0.0,0.0,0.0,-1.2307,-1.3206,-1.3474,-1.4056,-1.4245,0.0,0.0,0.0,0.0,0.0,0.0,0.0,0.0,0.0,-1.6687,-1.6581,-1.6343,-1.5993,-1.6514,-1.637,-1.5541,-1.5905,-1.5504,-1.4449,-1.4524,-1.4177,-1.3489,-1.3543,-1.3614,-1.3696,-1.3734,-1.3876,-1.4052,0.0,0.0,0.0,0.0,-1.392,-1.4132,-1.4132,-1.4132,-1.4006,-1.3286,0.0,0.0,0.0,0.0,0.0,0.0,0.0,-1.3701,-1.374,-1.3718,-1.3565,-1.3036,-1.2895,-1.2819,-1.2561,-1.2849,-1.316,-1.316,-1.3096,-1.3003,-1.2875,-1.27,0.0,0.0,0.0,-1.2882,-1.1877,-1.1572,-1.0959,-0.9641,-0.9164,-0.8769,-0.8435,-0.7896,-0.7643,-0.7783,-0.7342,-0.7203,-0.7457,-0.7698,-0.7901,0.0,0.0,0.0,0.0,0.0,0.0,0.0,0.0,0.0,0.0,0.0,0.0,0.0,0.0,0.0,0.0,0.0,0.0,0.0,0.0,0.0,0.0,0.0,0.0,0.0,0.0,0.0,0.0,-1.3388,-1.4196,-1.4012,-1.5051,-1.5536,0.0,0.0,0.0,0.0,0.0,0.0,-1.6946,-1.6238,-1.6296,-1.7389,-1.7245,-1.6969,-1.6595,-1.6739,-1.6541,-1.6018,-1.6155,-1.5786,-1.4977,-1.4857,-1.4384,-1.366,-1.3453,-1.3565,-1.3909,-1.4134,-1.4298,-1.4369,-1.4024,-1.4101,-1.4402,-1.4402,-1.4608,-1.4919,-1.4919,-1.4919,-1.4804,-1.41,-1.3789,-1.3647,-1.3363,0.0,0.0,0.0,0.0,-1.3965,-1.4315,-1.4138,-1.3717,-1.3065,-1.3004,-1.2912,-1.2181,-1.2589,-1.3107,-1.3107,-1.3434,-1.3597,-1.3276,-1.3243,0.0,-1.3006,-1.3276,-1.2994,-1.1562,-1.1308,-1.071,-0.9347,-0.885,-0.8565,-0.8414,-0.8039,-0.779,-0.779,-0.7477,-0.734,-0.7413,-0.8017,-0.8375,-0.84,0.0,0.0,0.0,0.0,0.0,0.0,0.0,0.0,0.0,0.0,0.0,0.0,0.0,0.0,0.0,0.0,0.0,0.0,0.0,0.0,0.0,0.0,0.0,0.0,0.0,0.0,0.0,0.0,0.0,-1.4363,-1.529,0.0,0.0,0.0,0.0,-1.6297,-1.6678,-1.6913,-1.7,-1.6409,-1.6341,-1.6922,-1.6268,-1.6119,-1.6595,-1.7099,-1.7081,-1.6565,-1.6367,-1.5997,-1.5456,-1.521,-1.4926,-1.463,-1.463,-1.4532,-1.4331,-1.3898,-1.4013,-1.4402,-1.4374,-1.438,-1.4402,-1.4402,-1.4413,-1.444,-1.444,-1.444,-1.4429,-1.438,-1.4073,-1.3772,-1.4205,-1.4002,0.0,0.0,-1.4363,-1.4374,-1.439,-1.4389,-1.4113,-1.3119,-1.329,-1.3277,-1.1847,-1.2643,-1.3652,-1.3652,-1.3674,-1.3821,-1.4259,0.0,-1.4132,-1.3551,-1.3486,-1.2978,-1.1491,-1.0861,-1.0208,-0.9301,-0.8737,-0.8414,-0.8398,-0.8039,-0.779,-0.779,-0.7477,-0.7452,-0.777,-0.8225,-0.8807,-0.9515,-0.9558,0.0,0.0,0.0,0.0,0.0,0.0,0.0,0.0,0.0,0.0,0.0,0.0,0.0,0.0,0.0,0.0,0.0,0.0,0.0,0.0,0.0,0.0,0.0,0.0,0.0,0.0,0.0,0.0,-1.5443,-1.5881,0.0,-1.6007,-1.6215,-1.6537,-1.6955,-1.711,-1.7372,-1.7811,-1.7266,-1.7133,-1.758,-1.7353,-1.7008,-1.6601,-1.6793,-1.6619,-1.6074,-1.6023,-1.5876,-1.5681,-1.5468,-1.5311,-1.5198,-1.484,-1.4656,-1.4576,-1.4273,-1.444,-1.4815,-1.4527,-1.4593,-1.4848,-1.4848,-1.4848,-1.4848,-1.4848,-1.4848,-1.4793,-1.45,-1.4292,-1.4188,-1.4352,-1.4281,-1.4188,-1.4352,-1.4402,-1.4404,-1.4411,-1.4609,-1.4682,-1.4028,-1.4,-1.3921,-1.3083,-1.306,-1.3281,-1.363,-1.3931,-1.4182,-1.4247,-1.435,-1.4295,-1.4006,-1.388,-1.3238,-1.1575,-1.1039,-1.0264,-0.884,-0.8516,-0.8398,-0.8398,-0.8278,-0.8178,-0.8178,-0.7822,-0.7679,-0.7787,-0.8499,-0.9012,-0.9281,-1.0037,-1.0284,0.0,0.0,0.0,0.0,0.0,0.0,0.0,0.0,0.0,0.0,0.0,0.0,0.0,0.0,0.0,0.0,0.0,0.0,0.0,0.0,0.0,0.0,0.0,0.0,0.0,-1.5218,-1.5595,-1.5552,-1.6132,-1.6411,-1.6096,-1.6565,-1.7026,-1.7348,-1.7515,-1.7777,-1.8138,-1.7562,-1.7353,-1.7618,-1.739,-1.6964,-1.6337,-1.6337,-1.6163,-1.5792,-1.5792,-1.5792,-1.5792,-1.5653,-1.5558,-1.5485,-1.5131,-1.4857,-1.4685,-1.4569,-1.464,-1.4826,-1.4527,-1.4599,-1.4859,-1.4859,-1.4859,-1.4859,-1.4859,-1.4859,-1.4804,-1.4506,-1.4402,-1.4402,-1.4402,-1.4402,-1.4402,-1.4402,-1.4402,-1.4448,-1.461,-1.4989,-1.5172,-1.4546,-1.4644,-1.4617,-1.3648,-1.3422,-1.3456,-1.3658,-1.3942,-1.4198,-1.4247,-1.435,-1.4295,-1.3948,-1.3996,-1.3446,-1.1743,-1.1324,-1.0599,-0.9077,-0.8659,-0.8471,-0.8398,-0.8398,-0.8398,-0.8398,-0.8147,-0.7992,-0.7992,-0.8823,-0.9271,-0.9276,-1.0197,-1.0505,-1.02,0.0,0.0,0.0,0.0,0.0,0.0,0.0,0.0,0.0,0.0,0.0,0.0,0.0,0.0,0.0,0.0,0.0,0.0,0.0,0.0,0.0,0.0,0.0,-1.3624,-1.6178,-1.7185,-1.4653,-1.6031,-1.6924,-1.6293,-1.6654,-1.71,-1.7515,-1.7947,-1.8103,-1.7882,-1.7233,-1.6882,-1.6861,-1.6166,-1.5792,-1.5792,-1.5792,-1.5792,-1.5792,-1.5792,-1.5792,-1.5792,-1.5792,-1.5675,-1.5513,-1.5491,-1.5221,-1.4725,-1.4702,-1.4593,-1.4402,-1.4402,-1.4402,-1.4402,-1.4402,-1.4402,-1.4402,-1.4402,-1.4402,-1.4402,-1.4402,-1.4402,-1.4402,-1.4402,-1.4402,-1.4402,-1.4402,-1.4402,-1.4494,-1.4971,-1.5428,-1.5558,-1.4628,-1.5124,-1.5266,-1.3384,-1.3718,-1.427,-1.3805,-1.3718,-1.386,-1.4325,-1.4402,-1.4151,-1.3448,-1.3821,0.0,-1.2028,-1.1625,-1.1087,-1.0016,-0.918,-0.8602,-0.8414,-0.8398,-0.8398,-0.8398,-0.8398,-0.8398,-0.8414,-0.9175,-0.9619,-0.9638,-1.0017,-1.0211,-1.02,0.0,0.0,0.0,0.0,0.0,0.0,0.0,0.0,0.0,0.0,0.0,0.0,0.0,0.0,0.0,0.0,0.0,0.0,0.0,0.0,0.0,-1.5889,-1.6128,-1.6158,-1.6126,-1.5987,-1.5719,-1.6146,-1.6597,-1.6909,-1.7482,-1.8018,-1.8408,-1.8202,-1.7868,-1.7413,-1.6801,-1.6352,-1.6116,-1.5903,-1.5792,-1.5792,-1.5792,-1.5792,-1.5792,-1.5452,-1.5474,-1.5792,-1.5452,-1.5452,-1.5697,-1.5558,-1.5424,-1.5244,-1.4863,-1.4679,-1.461,-1.4471,-1.4402,-1.4402,-1.4402,-1.4402,-1.4402,-1.4402,-1.4402,-1.4402,-1.4402,-1.4402,-1.4402,-1.4402,-1.4402,-1.4402,-1.4402,-1.4402,-1.4425,-1.4564,-1.4943,-1.522,-1.4975,-1.5111,-1.5157,-1.4613,-1.4444,-1.4363,-1.4238,-1.4216,-1.4254,-1.438,-1.4326,-1.4185,-1.398,-1.3937,-1.3515,-1.2461,-1.1618,-1.077,-0.9851,-0.8994,-0.8451,-0.8398,-0.8398,-0.8398,-0.8398,-0.8398,-0.8537,-0.8818,-0.9335,-0.9903,-1.0535,-1.0644,-1.053,0.0,0.0,0.0,0.0,0.0,0.0,0.0,0.0,0.0,0.0,0.0,0.0,0.0,0.0,0.0,0.0,0.0,0.0,0.0,0.0,0.0,0.0,-1.6864,-1.716,-1.6908,-1.6418,-1.6023,-1.5834,-1.6284,-1.6654,-1.6772,-1.765,-1.8249,-1.837,-1.8359,-1.8121,-1.7632,-1.7012,-1.6546,-1.6269,-1.5969,-1.5792,-1.5792,-1.5792,-1.5792,-1.5792,-1.5519,-1.5541,-1.5792,-1.5519,-1.5541,-1.5792,-1.5675,-1.5586,-1.5468,-1.5147,-1.4909,-1.4679,0.0,0.0,0.0,0.0,-1.4402,-1.4402,-1.4402,-1.4402,-1.4402,-1.4402,-1.4402,-1.4402,-1.4402,-1.4402,-1.4402,-1.4402,-1.4402,-1.4402,-1.4402,-1.4743,-1.504,-1.4857,-1.4971,-1.504,-1.4857,-1.4581,-1.4402,-1.4402,-1.4402,0.0,-1.4402,-1.435,-1.4257,-1.414,-1.4022,-1.3729,-1.3122,-1.2126,-1.1173,-1.0401,-0.9391,-0.8671,-0.8414,-0.8398,0.0,0.0,0.0,-0.8651,-0.9224,-0.9465,0.0,0.0,0.0,0.0,0.0,0.0,0.0,0.0,-1.156,-1.1939,0.0,0.0,0.0,0.0,0.0,0.0,0.0,0.0,0.0,0.0,0.0,0.0,0.0,0.0,0.0,0.0,-1.7555,-1.7574,-1.659,-1.6766,-1.6568,-1.5436,-1.6414,-1.6975,-1.6372,-1.7526,-1.8198,-1.7955,-1.8451,-1.8579,-1.8235,-1.7523,0.0,0.0,0.0,-1.5792,-1.5792,-1.5792,-1.5792,-1.5792,-1.5748,-1.5748,-1.5792,-1.5748,-1.5748,-1.5792,-1.5792,-1.5703,-1.5536,-1.5513,-1.5176,-1.4679,-1.4471,-1.4402,-1.4402,-1.4402,-1.4402,-1.4402,-1.4402,0.0,0.0,-1.4402,-1.4402,-1.4402,-1.4402,-1.4402,-1.4402,-1.4402,-1.4402,-1.4402,-1.4402,-1.472,-1.4926,-1.4494,-1.472,-1.4903,-1.4494,-1.4402,-1.4402,-1.4402,-1.4402,-1.4402,-1.4402,-1.4378,-1.4309,-1.4062,-1.4122,-1.4087,-1.3844,-1.2843,-1.1954,-1.1357,0.0,0.0,-0.8614,-0.852,-0.8475,-0.848,-0.8516,-0.8883,-0.9648,-0.9725,-1.0132,-1.0958,-1.0978,-1.0978,-1.0978,-1.1081,-1.1556,-1.2348,-1.1887,-1.2157,0.0,0.0,0.0,0.0,0.0,0.0,0.0,0.0,0.0,0.0,0.0,0.0,0.0,0.0,0.0,-1.7572,-1.7482,-1.7286,-1.6864,-1.6187,-1.5643,-1.5342,-1.6414,-1.7156,-1.7026,-1.8172,-1.8901,-1.8857,-1.8579,-1.8371,-1.8273,-1.7338,-1.6786,-1.6744,-1.6132,-1.5792,-1.5792,-1.5792,-1.5792,-1.5792,-1.5424,0.0,-1.5792,-1.5407,-1.543,-1.5792,-1.5792,-1.5792,-1.5726,-1.5564,-1.5176,-1.4679,-1.4471,-1.4402,-1.4402,-1.4402,-1.4402,-1.4402,-1.4402,-1.4402,-1.4402,-1.4402,-1.4402,-1.4402,-1.4402,-1.4402,0.0,-1.4402,-1.4402,-1.4402,-1.4402,-1.4471,-1.4512,-1.4419,-1.4471,-1.4512,-1.4425,-1.4402,-1.4402,-1.4402,-1.4402,-1.4402,-1.4402,-1.4321,-1.4222,-1.4181,-1.4098,-1.4015,-1.3968,-1.3162,-1.2406,-1.1961,-1.1042,-1.0201,-0.9654,-0.9265,-0.9,-0.8895,-0.9179,-0.9609,-1.0141,-1.0479,-1.09,-1.1457,-1.1467,-1.1467,-1.1467,-1.2161,-1.2605,-1.2765,-1.2359,-1.2639,0.0,0.0,0.0,0.0,0.0,0.0,0.0,0.0,0.0,0.0,0.0,-1.5662,-1.6831,0.0,-1.8031,-1.7832,-1.7741,-1.7412,-1.6616,-1.6179,-1.5797,-1.5396,-1.6149,-1.6837,-1.7178,-1.8085,-1.8775,-1.9079,-1.8841,-1.8662,-1.8565,-1.7874,-1.7414,-1.7214,-1.6744,-1.6365,-1.6054,-1.6054,-1.5973,-1.5792,-1.5564,-1.5564,-1.5792,-1.5564,-1.5586,-1.5792,-1.5792,-1.5792,-1.5792,-1.558,-1.5334,-1.5085,-1.4829,-1.4605,-1.4402,-1.4402,-1.4402,-1.4402,-1.4402,-1.4402,-1.4402,-1.4402,-1.4402,-1.4402,-1.4402,-1.4402,-1.4402,-1.4402,-1.4402,-1.4402,-1.4402,-1.4402,-1.4402,-1.4402,-1.4402,-1.4402,-1.4402,-1.4402,-1.4402,-1.4402,-1.4402,-1.4402,-1.4402,-1.435,-1.4274,-1.4222,-1.414,-1.4075,-1.4015,-1.3406,-1.2749,-1.2114,-1.1422,-1.0693,-0.9971,-0.9567,-0.9208,-0.887,-0.9235,-0.96,-0.9937,-1.0596,-1.1155,-1.1586,-1.184,-1.196,-1.196,-1.2395,-1.2705,-1.2899,-1.2694,-1.2958,0.0,0.0,0.0,0.0,0.0,0.0,0.0,-1.5184,-1.5349,-1.5925,-1.6118,-1.656,-1.7766,-1.8161,-1.8194,-1.7864,-1.7853,-1.7511,-1.6433,-1.6361,-1.6203,-1.5602,-1.5991,-1.6504,-1.7008,-1.7744,-1.8404,-1.8891,-1.9036,-1.9019,-1.886,-1.8507,-1.8147,-1.7834,-1.742,-1.6934,-1.6383,-1.634,-1.6135,-1.5792,-1.5792,-1.5792,-1.5792,-1.5792,-1.5792,-1.5792,-1.5792,-1.5792,-1.5792,-1.5631,-1.5541,-1.5468,-1.5266,-1.4897,-1.4541,-1.4471,-1.4425,-1.4402,-1.4402,-1.4402,-1.4402,-1.4402,-1.4402,-1.4402,-1.4402,-1.4402,-1.4402,-1.4402,-1.4402,-1.4402,-1.4402,-1.4402,-1.4402,-1.4402,-1.4402,-1.4402,-1.4402,-1.4402,-1.4402,-1.4402,-1.4402,-1.4402,-1.4402,-1.4402,-1.435,-1.4251,-1.4246,-1.421,-1.4085,-1.3749,-1.3219,-1.2429,-1.1998,-1.1378,-1.0438,-0.9898,-0.9506,-0.925,-0.9515,-0.9841,-1.0146,-1.0898,-1.1469,-1.1856,-1.2219,-1.2411,-1.2411,-1.2504,-1.2732,-1.3034,-1.3034,-1.3235,-1.4756,-1.4446,-1.4197,-1.5245,-1.5211,-1.5083,0.0,-1.589,-1.5938,-1.6138,-1.6556,-1.7023,-1.7473,-1.7979,-1.8128,-1.7633,-1.7314,-1.7069,-1.6925,-1.6461,-1.6116,-1.6025,-1.6442,-1.6673,-1.6509,-1.7524,-1.823,-1.8303,-1.8804,-1.9082,-1.9064,-1.8584,-1.8285,-1.8226,-1.7557,-1.7018,-1.6652,-1.6426,-1.6135,-1.5792,-1.5792,-1.5792,-1.5792,-1.5792,-1.5792,-1.5792,-1.5792,-1.5792,-1.5792,-1.5776,-1.5653,-1.5491,-1.5463,-1.5289,-1.4994,-1.4748,-1.4541,-1.4402,-1.4402,-1.4402,-1.4402,-1.4402,-1.4402,-1.4402,-1.4402,-1.4402,-1.4402,-1.4402,-1.4402,-1.4402,-1.4402,-1.4402,-1.4402,-1.4402,-1.4402,-1.4402,-1.4402,-1.4402,-1.4402,-1.4402,-1.4402,-1.4402,-1.4402,-1.4402,-1.4396,-1.4373,-1.4373,-1.4378,-1.4355,-1.4306,-1.4089,-1.364,-1.3508,-1.3032,-1.2035,-1.0764,-1.0339,-1.1056,-1.1076,-1.1418,-1.2153,-1.2277,-1.2465,-1.2744,-1.2801,-1.2827,-1.2827,-1.3263,-1.3468,-1.3514,-1.3514,-1.354,-1.5458,-1.5506,-1.5409,-1.6123,-1.6366,-1.6492,-1.68,-1.6865,-1.6889,-1.6944,-1.7128,-1.733,-1.7462,-1.7674,-1.7757,-1.7532,-1.7374,-1.7216,-1.7039,-1.6946,-1.6787,-1.6423,-1.6677,-1.6737,-1.6425,-1.6996,-1.7613,-1.8168,-1.8441,-1.8731,-1.9079,-1.8886,-1.8707,-1.8584,-1.8285,-1.7868,-1.7297,-1.7166,-1.6767,-1.6092,-1.6092,-1.5994,-1.5792,-1.5792,-1.5792,-1.5792,-1.5792,-1.5792,-1.5792,-1.5792,-1.5742,-1.5669,-1.5669,-1.5536,-1.5283,-1.4863,-1.4662,-1.4564,-1.4448,-1.4402,-1.4402,-1.4402,-1.4402,-1.4402,-1.4402,-1.4402,-1.4402,-1.4402,-1.4402,-1.4402,-1.4402,-1.4402,-1.4402,-1.4402,-1.4402,-1.4402,-1.4402,-1.4402,-1.4402,-1.4402,-1.4402,-1.4402,-1.4402,-1.4402,-1.4402,-1.4402,-1.4402,-1.4402,-1.4402,-1.4402,-1.4228,-1.378,-1.3433,-1.2995,-1.2425,-1.183,-1.1513,-1.1567,-1.1777,-1.1987,-1.2208,-1.2694,-1.2973,-1.3017,-1.3283,-1.3377,-1.3302,-1.3499,-1.3592,-1.3621,-1.3923,-1.4069,-1.5814,-1.5929,-1.5979,-1.6548,-1.6876,-1.7115,-1.7337,-1.7451,-1.7495,-1.7495,-1.7495,-1.7495,-1.7495,-1.7495,-1.7495,-1.7495,-1.7495,-1.7427,-1.7171,-1.7269,-1.7199,-1.6758,-1.6845,-1.6881,-1.6743,-1.6773,-1.716,-1.7998,-1.8146,-1.8462,-1.9072,-1.9101,-1.9019,-1.8886,-1.8822,-1.8507,-1.7875,-1.7754,-1.7311,-1.6561,-1.6383,-1.6173,-1.5935,-1.583,-1.5792,-1.5792,-1.5792,-1.5792,-1.5792,-1.5792,-1.5792,-1.5792,-1.5792,-1.5697,-1.5536,-1.5085,-1.4857,-1.4771,-1.4564,-1.4489,-1.4471,-1.4425,-1.4402,-1.4402,-1.4402,-1.4402,-1.4402,-1.4402,-1.4402,-1.4402,-1.4402,-1.4402,-1.4402,-1.4402,-1.4402,-1.4402,-1.4402,-1.4402,-1.4402,-1.4402,-1.4402,-1.4402,-1.4402,-1.4402,-1.4402,-1.4402,-1.4402,-1.4402,-1.4402,-1.4292,-1.4134,-1.3931,-1.3227,-1.2861,-1.3021,-1.2695,-1.2476,-1.2442,-1.2606,-1.2655,-1.2601,-1.3213,-1.3499,-1.3357,-1.3671,-1.3821,-1.3716,-1.3663,-1.3668,-1.3668,-1.4022,-1.4326,-1.5526,-1.5138,-1.5174,-1.6166,-1.6178,-1.6152,-1.693,-1.7313,-1.7495,-1.7495,-1.7495,-1.7495,-1.7495,-1.7495,-1.7495,-1.7495,-1.7495,-1.7495,-1.7483,-1.7216,-1.7005,-1.6993,-1.6985,-1.7152,-1.7531,-1.7096,-1.7059,-1.7671,-1.8025,-1.8462,-1.9072,-1.9101,-1.9101,-1.9082,-1.8905,-1.8623,-1.8285,-1.7895,-1.7516,-1.7178,-1.6576,-1.629,-1.6275,-1.5957,-1.5792,-1.5792,-1.5792,-1.5792,-1.5792,-1.5792,-1.5792,-1.5792,-1.5792,-1.5792,-1.577,-1.5558,-1.5311,-1.504,-1.4771,-1.4685,-1.4656,-1.4471,-1.4402,-1.4402,-1.4402,-1.4402,-1.4402,-1.4402,-1.4402,-1.4402,-1.4402,-1.4402,-1.4402,-1.4402,-1.4402,-1.4402,-1.4402,-1.4402,-1.4402,-1.4402,-1.4402,-1.4402,-1.4402,-1.4402,-1.4402,-1.4402,-1.4402,-1.4402,-1.4402,-1.4013,-1.3881,-1.4331,-1.3269,-1.3005,-1.4235,-1.322,-1.3021,-1.4246,-1.3892,-1.3798,-1.4116,-1.4167,-1.4113,-1.3975,-1.3986,-1.3991,-1.3997,-1.3868,-1.3792,-1.3792,-1.3692,-1.4152,-1.5694,-1.5755,-1.5858,-1.6499,-1.6588,-1.6569,-1.6848,-1.6976,-1.7092,-1.7256,-1.7301,-1.7358,-1.7536,-1.7579,-1.7547,-1.7517,-1.7497,-1.7493,-1.7506,-1.7394,-1.733,-1.733,-1.772,-1.8047,-1.8181,-1.7833,-1.7912,-1.8696,-1.8662,-1.8822,-1.9347,-1.9206,-1.9101,-1.9101,-1.9019,-1.8886,-1.8623,-1.8507,-1.8187,-1.7734,-1.7291,-1.7098,-1.7098,-1.6837,-1.6601,-1.6402,-1.6479,-1.6386,-1.6151,-1.6414,-1.6528,-1.6528,-1.6528,-1.6371,-1.6129,-1.6064,-1.5834,-1.5474,-1.4909,-1.461,-1.4494,-1.4425,-1.4402,-1.4402,-1.4402,-1.4402,-1.4402,-1.4402,-1.4402,-1.4402,-1.4402,-1.4402,-1.4402,-1.4402,-1.4402,-1.4402,-1.4402,-1.4402,-1.4402,-1.4402,-1.4402,-1.4402,-1.4402,-1.4402,-1.4402,-1.4402,-1.4402,-1.4402,-1.4402,-1.4265,-1.4227,-1.4385,-1.4021,-1.3938,-1.4351,-1.4015,-1.3943,-1.438,-1.4254,-1.4215,-1.4339,-1.4321,-1.428,-1.414,-1.414,-1.4098,-1.3997,-1.3944,-1.3939,-1.3944,-1.4536,-1.4983,-1.5962,-1.6141,-1.615,-1.6644,-1.6776,-1.6776,-1.6712,-1.6751,-1.6853,-1.7018,-1.7122,-1.7252,-1.7428,-1.7542,-1.7597,-1.7531,-1.7547,-1.7524,-1.7493,-1.7502,-1.7589,-1.7822,-1.824,-1.8712,-1.9238,-1.9094,-1.9133,-1.9523,-1.9234,-1.9207,-1.9586,-1.9442,-1.9273,-1.9101,-1.9101,-1.9045,-1.8905,-1.8841,-1.8526,-1.7988,-1.7787,-1.7619,-1.749,-1.7373,-1.7158,-1.6886,-1.6968,-1.682,-1.6524,-1.6784,-1.6903,-1.6903,-1.6903,-1.6735,-1.6503,-1.6503,-1.6228,-1.5786,-1.5198,-1.4834,-1.4628,-1.4541,-1.4471,-1.4402,-1.4402,-1.4402,-1.4402,-1.4402,-1.4402,-1.4402,-1.4402,-1.4402,-1.4402,-1.4402,-1.4402,-1.4402,-1.4402,-1.4402,-1.4402,-1.4402,-1.4402,-1.4402,-1.4402,-1.4402,-1.4402,-1.4402,-1.4402,-1.4402,-1.4402,-1.4254,-1.4216,-1.438,-1.4254,-1.4221,-1.4391,-1.4402,-1.4402,-1.4402,-1.4402,-1.4402,-1.4402,-1.4402,-1.435,-1.4269,-1.4437,-1.4396,-1.415,-1.4432,-1.4478,-1.4332,-1.5057,-1.5494,-1.6216,-1.6138,-1.5987,-1.6494,-1.6709,-1.6708,-1.6512,-1.6628,-1.6802,-1.6815,-1.7018,-1.7203,-1.7228,-1.744,-1.762,-1.7662,-1.7626,-1.7586,-1.7574,-1.7529,-1.7754,-1.8435,-1.8538,-1.9122,-2.0561,-2.0727,-2.057,-2.0133,-1.9775,-1.9656,-1.9846,-1.9823,-1.9606,-1.9157,-1.9113,-1.9101,-1.9101,-1.8905,-1.8565,-1.8048,-1.8048,-1.7894,-1.7585,-1.7565,-1.7449,-1.7261,-1.7261,-1.7136,-1.6939,-1.696,-1.696,-1.6939,-1.6939,-1.6939,-1.6918,-1.6918,-1.6543,-1.5966,-1.5641,-1.535,-1.5062,-1.4789,-1.4587,-1.4448,-1.4448,-1.4425,-1.4425,-1.4425,-1.4402,-1.4402,-1.4402,-1.4402,-1.4402,-1.4402,-1.4402,-1.4402,-1.4402,-1.4402,-1.4402,-1.4402,-1.4402,-1.4402,-1.4402,-1.4402,-1.4402,-1.4402,-1.4402,-1.4402,-1.4402,-1.4019,-1.3915,-1.4352,-1.4013,-1.3931,-1.4363,-1.4402,-1.4402,-1.4402,-1.4402,-1.4402,-1.4402,-1.4402,-1.4402,-1.4448,-1.488,-1.488,-1.4466,-1.5248,-1.5371,-1.4949,-1.5305,-1.5682,-1.5179,-1.5262,-1.5492,-1.5619,-1.5974,-1.6205,-1.5969,-1.6325,-1.6786,-1.6981,-1.7035,-1.7171,-1.7569,-1.7701,-1.7912,-1.8412,-1.8034,-1.7846,-1.8328,-1.792,-1.7821,-1.8493,-1.9054,-1.9739,-2.0611,-2.1199,-2.147,-2.135,-2.0938,-2.0671,-2.0623,-2.0104,-1.976,-1.9634,-1.9273,-1.9101,-1.9101,-1.9045,-1.8943,-1.8822,-1.8822,-1.8777,-1.8693,-1.8539,-1.8298,-1.8035,-1.8122,-1.7915,-1.7523,-1.776,-1.7788,-1.7652,-1.7652,-1.7495,-1.7275,-1.7275,-1.6822,-1.621,-1.6123,-1.5651,-1.5085,-1.5017,-1.4971,-1.4926,-1.4926,-1.4789,-1.461,-1.461,-1.4518,-1.4402,-1.4402,-1.4402,-1.4402,-1.4402,-1.4402,-1.4402,-1.4402,-1.4402,-1.4402,-1.4402,-1.4402,-1.4402,-1.4402,-1.4402,-1.4402,-1.4402,-1.4402,-1.4402,-1.4402,-1.4298,-1.427,-1.4391,-1.4298,-1.427,-1.4391,-1.4402,-1.4402,-1.4402,-1.4402,-1.4402,-1.4402,-1.4402,-1.4558,-1.4897,-1.504,-1.521,-1.5433,-1.5656,-1.57,-1.5589,-1.602,-1.6287,-1.5248,-1.5258,-1.5345,-1.5345,-1.5806,-1.6202,-1.5946,-1.6418,-1.6964,-1.7113,-1.7175,-1.7316,-1.7615,-1.7746,-1.7924,-1.8303,-1.8008,-1.7979,-1.8652,-1.8185,-1.8109,-1.9023,-1.9601,-2.0154,-2.0725,-2.1423,-2.184,-2.184,-2.1576,-2.1283,-2.0999,-2.0608,-2.0254,-1.9982,-1.9724,-1.9559,-1.9497,-1.949,-1.9409,-1.928,-1.928,-1.9206,-1.9101,-1.8981,-1.8784,-1.8526,-1.8606,-1.8411,-1.8075,-1.8248,-1.8282,-1.8143,-1.8063,-1.7909,-1.7733,-1.7652,-1.7262,-1.6767,-1.6767,-1.6389,-1.5818,-1.5418,-1.5198,-1.5108,-1.5108,-1.4994,-1.4886,-1.4886,-1.4789,-1.4674,-1.4564,-1.461,-1.4674,-1.4564,-1.4628,-1.4674,-1.4564,-1.4541,-1.4518,-1.4425,-1.4402,-1.4402,-1.4402,-1.4402,-1.4402,-1.4402,-1.4402,-1.4402,-1.4402,-1.4402,-1.4402,-1.4402,-1.4402,-1.4402,-1.4402,-1.4402,-1.4402,-1.4402,-1.4402,-1.4402,-1.4402,-1.461,-1.4834,-1.5079,-1.5501,-1.574,-1.581,-1.621,-1.6303,-1.6129,-1.6595,-1.682,-1.556,-1.5379,-1.5163,-1.5163,-1.5721,-1.6243,-1.6088,-1.6614,-1.7184,-1.7319,-1.7462,-1.757,-1.7628,-1.7741,-1.7848,-1.7974,-1.7881,-1.8076,-1.89,-1.8535,-1.8637,-1.9909,-2.0275,-2.0607,-2.11,-2.165,-2.1928,-2.1821,-2.1728,-2.1531,-2.1212,-2.1134,-2.0782,-2.0129,-1.9976,-1.9905,-1.9871,-1.9861,-1.9758,-1.9566,-1.9566,-1.942,-1.915,-1.915,-1.9037,-1.8841,-1.8841,-1.8728,-1.853,-1.853,-1.851,-1.8478,-1.8321,-1.8222,-1.8183,-1.8003,-1.7706,-1.7399,-1.7399,-1.7178,-1.6769,-1.5957,-1.5485,-1.526,-1.526,-1.5215,-1.5153,-1.5153,-1.5131,-1.504,-1.4811,-1.4932,-1.504,-1.4817,-1.4932,-1.5045,-1.4789,-1.4748,-1.4697,-1.4541,-1.4489,-1.4489,-1.4489,-1.4489,-1.4489,-1.4489,-1.4489,-1.4489,-1.4448,-1.4425,-1.4402,-1.4402,-1.4402,-1.4402,-1.4402,-1.4402,-1.4402,-1.4402,-1.4471,-1.4489,-1.4489,-1.4943,-1.5215,-1.5283,-1.6082,-1.6337,-1.5986,-1.6801,-1.6983,-1.6601,-1.7004,-1.7199,-1.4167,-1.3961,-1.3912,-1.3912,-1.4512,-1.5224,-1.5743,-1.6385,-1.7113,-1.7949,-1.796,-1.7945,-1.8343,-1.8125,-1.8143,-1.8911,-1.8341,-1.8336,-1.9902,-1.9521,-1.9678,-2.1256,-2.1495,-2.1767,-2.241,-2.2385,-2.2048,-2.1378,-2.1111,-2.118,-2.165,-2.1306,-2.0623,-1.9566,-1.8846,-1.8718,-1.9253,-1.9142,-1.9369,-1.9902,-1.9902,-1.9744,-1.9439,-1.9439,-1.9291,-1.9045,-1.9045,-1.8924,-1.8753,-1.8753,-1.8651,-1.8498,-1.8459,-1.8361,-1.8202,-1.8163,-1.7821,-1.7399,-1.7399,-1.7178,-1.6876,-1.6705,-1.6402,-1.6095,-1.6095,-1.5778,-1.5418,-1.5418,-1.5266,-1.5085,-1.504,-1.5068,-1.5085,-1.504,-1.5068,-1.5085,-1.504,-1.504,-1.5017,-1.4994,-1.4971,-1.4971,-1.4971,-1.4971,-1.4971,-1.4971,-1.4971,-1.4909,-1.4679,-1.4494,-1.4402,-1.4402,-1.4402,-1.4402,-1.4402,-1.4402,-1.4402,-1.4402,-1.4766,-1.4971,-1.4971,-1.5423,-1.586,-1.6256,-1.6414,-1.6637,-1.6955,-1.713,-1.7157,-1.7067,-1.7157,-1.7199,-1.3878,-1.3653,-1.3653,-1.3653,-1.4282,-1.4992,-1.5306,-1.6307,-1.7299,-1.7778,-1.8176,-1.8487,-1.8708,-1.8599,-1.8603,-1.898,-1.8607,-1.8822,-2.0388,-2.0052,-2.0204,-2.1677,-2.198,-2.2133,-2.2305,-2.2444,-2.2153,-2.1323,-2.0978,-2.0761,-2.0663,-2.0381,-2.0138,-1.9982,-1.9397,-1.9437,-2.0128,-1.998,-2.0008,-2.021,-2.021,-2.0045,-1.9744,-1.9584,-1.9439,-1.9291,-1.915,-1.9045,-1.8962,-1.8962,-1.8893,-1.8812,-1.869,-1.8593,-1.8489,-1.8386,-1.8129,-1.7821,-1.7821,-1.7638,-1.7419,-1.7419,-1.6913,-1.629,-1.629,-1.6004,-1.5653,-1.5653,-1.5564,-1.543,-1.534,-1.5379,-1.543,-1.5334,-1.5311,-1.5311,-1.5311,-1.5198,-1.5108,-1.5108,-1.5108,-1.5108,-1.5108,-1.5108,-1.5108,-1.5108,-1.5108,-1.5057,-1.4926,-1.4811,-1.4674,-1.4425,-1.4402,-1.4402,-1.4402,-1.4402,-1.4494,-1.4743,-1.4971,-1.5238,-1.5552,-1.602,-1.6383,-1.6659,-1.6869,-1.7086,-1.7302,-1.7226,-1.7199,-1.7199,-1.7199,-1.7199,-1.3925,-1.3702,-1.3745,-1.3893,-1.4337,-1.4888,-1.5428,-1.65,-1.7479,-1.7852,-1.85,-1.9024,-1.9057,-1.9036,-1.9002,-1.8941,-1.8805,-1.9245,-2.0718,-2.0544,-2.0769,-2.214,-2.2493,-2.2544,-2.2335,-2.2604,-2.237,-2.1323,-2.0607,-2.0112,-1.9846,-1.9589,-1.9772,-2.0517,-2.0119,-2.0235,-2.0957,-2.0735,-2.0603,-2.0545,-2.052,-2.0357,-2.0078,-1.9818,-1.9624,-1.9486,-1.928,-1.915,-1.9101,-1.9101,-1.9101,-1.9082,-1.8924,-1.8841,-1.8791,-1.862,-1.8432,-1.8262,-1.8262,-1.8163,-1.8023,-1.7983,-1.7275,-1.6432,-1.6432,-1.612,-1.5792,-1.5792,-1.5792,-1.5764,-1.5608,-1.5675,-1.577,-1.5603,-1.5558,-1.5558,-1.5558,-1.5401,-1.5244,-1.5244,-1.5244,-1.5244,-1.5244,-1.5244,-1.5244,-1.5244,-1.5244,-1.5221,-1.5198,-1.5198,-1.5011,-1.461,-1.4558,-1.4558,-1.4558,-1.4628,-1.4806,-1.517,-1.5367,-1.5651,-1.6141,-1.6616,-1.6886,-1.6942,-1.7268,-1.7418,-1.7418,-1.7309,-1.7261,-1.7275,-1.7345,-1.7386,-1.3968,-1.37,-1.3859,-1.4526,-1.4303,-1.4522,-1.6836,-1.7155,-1.7396,-1.899,-1.9335,-1.9404,-1.959,-1.9327,-1.9146,-1.932,-1.9031,-1.939,-2.1096,-2.12,-2.1727,-2.3425,-2.3655,-2.3655,-2.3625,-2.35,-2.278,-2.1224,-1.9399,-1.9013,-2.0522,-1.9948,-1.9923,-2.0663,-1.9879,-1.9811,-2.0553,-2.0232,-2.0407,-2.103,-2.0844,-2.0613,-2.0359,-2.0325,-2.0023,-1.9504,-1.9468,-1.9336,-1.9101,-1.9101,-1.9101,-1.9101,-1.9082,-1.8962,-1.8803,-1.8791,-1.8651,-1.8478,-1.8478,-1.8459,-1.842,-1.8242,-1.7557,-1.6833,-1.6833,-1.6355,-1.5792,-1.5792,-1.5792,-1.5792,-1.5776,-1.5792,-1.5792,-1.5776,-1.577,-1.577,-1.577,-1.5742,-1.5748,-1.5748,-1.5748,-1.5748,-1.5748,-1.5748,-1.5748,-1.5748,-1.5748,-1.5675,-1.5491,-1.5468,-1.535,-1.5062,-1.5045,-1.5045,-1.5045,-1.53,-1.5501,-1.5546,-1.6173,-1.6603,-1.671,-1.7122,-1.7364,-1.7434,-1.7475,-1.7482,-1.7482,-1.7475,-1.7475,-1.7475,-1.7841,-1.8027,-1.4833,-1.5021,-1.5304,-1.5187,-1.4959,-1.5201,-1.6863,-1.7189,-1.7481,-1.8656,-1.9332,-1.9734,-1.9809,-1.9754,-1.9696,-1.9704,-1.9571,-1.985,-2.0944,-2.1363,-2.2008,-2.3235,-2.3728,-2.3979,-2.3977,-2.3762,-2.2818,-2.0883,-1.9102,-1.877,-2.0322,-1.9584,-1.9658,-2.0841,-2.0353,-2.0418,-2.1147,-2.0911,-2.0893,-2.1095,-2.1014,-2.086,-2.0645,-2.0478,-2.0266,-2.0032,-1.9861,-1.9636,-1.9347,-1.9347,-1.9243,-1.9101,-1.9101,-1.9045,-1.8981,-1.8981,-1.8848,-1.8683,-1.8683,-1.8593,-1.8432,-1.8082,-1.7598,-1.7117,-1.6954,-1.6377,-1.5792,-1.5792,-1.5792,-1.5792,-1.5792,-1.5792,-1.5792,-1.5792,-1.5792,-1.5792,-1.5792,-1.5792,-1.5792,-1.5792,-1.5792,-1.5792,-1.5792,-1.5792,-1.5792,-1.5792,-1.5792,-1.577,-1.5697,-1.5856,-1.5932,-1.5838,-1.539,-1.517,-1.539,-1.5524,-1.5806,-1.6296,-1.6603,-1.6934,-1.733,-1.7494,-1.7638,-1.7747,-1.7902,-1.7975,-1.7975,-1.8153,-1.8218,-1.8238,-1.8387,-1.8458,-1.6002,-1.6228,-1.6521,-1.6255,-1.606,-1.6254,-1.7467,-1.774,-1.7966,-1.878,-1.9486,-1.996,-1.996,-2.0055,-2.0098,0.0,-1.9965,-2.0259,-2.1208,-2.166,-2.2282,-2.333,-2.3851,-2.4116,-2.4105,-2.371,-2.272,-2.0929,-1.9714,-1.9466,-2.0417,-1.9973,-2.0225,-2.1417,-2.1133,-2.1224,-2.1744,-2.1503,-2.1333,-2.1246,-2.1191,-2.1055,-2.0876,-2.0687,-2.0529,-2.0393,-2.0202,-1.994,-1.9646,-1.9541,-1.9384,-1.9206,-1.9139,-1.9101,-1.9101,-1.9101,-1.9,-1.8886,-1.8886,-1.8721,-1.8445,-1.8049,-1.7598,-1.7153,-1.692,-1.6371,-1.5852,-1.5814,-1.5792,-1.5792,-1.5792,-1.5792,-1.5792,-1.5792,-1.5792,-1.5792,-1.5792,-1.5792,-1.5792,-1.5792,-1.5792,-1.5792,-1.5792,-1.5792,-1.5792,-1.5792,-1.5792,-1.5792,-1.5792,-1.6092,-1.629,-1.629,-1.5888,-1.573,-1.5966,-1.6092,-1.6361,-1.6942,-1.7033,-1.7275,-1.774,-1.7835,-1.7949,-1.8069,-1.8378,-1.8546,-1.8546,-1.8724,-1.8824,-1.8824,-1.8938,-1.9062,-1.7344,-1.7042,-1.7172,-1.7889,-1.7625,-1.758,-1.9123,-1.9114,-1.901,-1.9821,-2.0041,-2.0098,-2.0098,-2.0147,-2.0201,-2.0197,-2.0092,-2.0555,-2.2163,-2.2222,-2.2637,-2.4108,-2.4238,-2.4173,-2.4116,-2.3381,-2.2502,-2.1552,-2.1348,-2.122,-2.1108,-2.1526,-2.1992,-2.248,-2.2217,-2.2088,-2.2088,-2.1759,-2.1604,-2.1581,-2.1388,-2.1222,-2.1095,-2.1095,-2.0844,-2.041,-2.041,-2.0247,-1.9962,-1.9646,-1.9504,-1.9468,-1.9206,-1.9101,-1.9101,-1.9101,-1.9101,-1.9101,-1.9101,-1.8822,-1.8475,-1.8268,-1.7652,-1.6972,-1.6752,-1.6374,-1.5973,-1.583,-1.5792,-1.5792,-1.5792,-1.5792,-1.5792,-1.5792,-1.5792,-1.5792,-1.5792,-1.5792,-1.5792,-1.5792,-1.5792,-1.5792,-1.5792,-1.5792,-1.5792,-1.5792,-1.5792,-1.5792,-1.5792,-1.6092,-1.629,-1.629,-1.6644,-1.6876,-1.6882,-1.7199,-1.7372,-1.7399,-1.7584,-1.774,-1.7882,-1.8148,-1.8371,-1.8488,-1.8886,-1.9082,-1.9082,-1.9094,-1.9101,-1.9101,-1.9501,-1.9897,-1.8344,-1.8581,-1.8864,-1.8626,-1.8397,-1.8534,-1.9707,-1.9441,-1.9178,-2.0033,-2.0215,-2.0239,-2.0239,-2.0248,-2.0455,-2.106,-2.1118,0.0,-2.2456,-2.2983,-2.3439,-2.3907,-2.4261,-2.4451,-2.4373,-2.2986,-2.1917,-2.1525,-2.087,-2.0664,-2.1072,-2.1763,-2.2368,-2.2829,-2.2364,-2.211,-2.211,-2.1855,-2.1694,-2.1604,-2.1543,-2.1403,-2.1238,-2.1238,-2.1103,-2.0868,-2.0868,-2.0654,-2.0247,-1.9957,-1.9708,-1.9468,-1.9206,-1.9101,-1.9101,-1.9101,-1.9101,-1.9101,-1.9101,-1.9019,-1.8841,-1.8521,-1.8226,-1.7935,-1.7517,-1.6801,-1.6122,-1.6085,-1.6078,-1.6078,-1.6078,-1.6013,-1.5957,-1.6041,-1.5925,-1.5836,-1.5913,-1.5852,-1.5792,-1.5792,-1.5792,-1.5792,-1.5792,-1.5792,-1.5792,-1.5792,-1.5792,-1.5792,-1.5792,-1.6328,-1.6714,-1.6714,-1.7226,-1.7481,-1.7261,-1.7337,-1.7618,-1.8108,-1.822,-1.8385,-1.8702,-1.881,-1.886,-1.8905,-1.9317,-1.9501,-1.9501,-1.9797,-1.9922,-1.9922,-2.0045,-2.0175,-1.9266,-1.9728,-1.9928,-1.9511,-1.9389,-1.9544,-2.0138,-1.9628,-1.9291,-2.0157,-2.0057,-1.9905,-2.0236,-2.0321,-2.0521,-2.1056,-2.1156,-2.1518,-2.2593,-2.3107,-2.3585,-2.4107,-2.4469,-2.4639,-2.4552,-2.3211,-2.2171,-2.1765,-2.1352,-2.1168,-2.1281,-2.227,-2.2916,-2.3114,-2.2577,-2.2234,-2.211,-2.1905,-2.1753,-2.1679,-2.1679,-2.1588,-2.1419,-2.1419,-2.1341,-2.1175,-2.1111,-2.0852,0.0,-2.0123,-1.9805,-1.9468,-1.9206,-1.9101,-1.9101,-1.9101,-1.9101,-1.9101,-1.9101,-1.9,-1.8822,-1.8584,-1.839,-1.8147,-1.7652,-1.7117,-1.6695,-1.6695,-1.6558,-1.6436,-1.6436,-1.6241,-1.6094,-1.6172,-1.6063,-1.5969,-1.605,-1.6013,-1.5953,-1.5953,-1.5953,-1.5991,-1.6154,-1.605,-1.5991,-1.6148,-1.605,-1.6013,-1.6148,-1.668,-1.7123,-1.7296,-1.7801,-1.8029,-1.7835,-1.7821,-1.8008,-1.8468,-1.8642,-1.8841,-1.9082,-1.925,-1.9325,-1.9325,-1.9718,-1.993,-1.993,-2.0175,-2.0373,-2.0484,-2.0484,-2.0561,0.0,-2.0283,-2.0237,-2.031,-2.0366,-2.0414,-2.0407,-1.9778,0.0,-2.0244,-1.9712,-1.9346,-2.016,-2.0372,-2.0428,-2.048,-2.049,-2.103,-2.2593,-2.2802,-2.3306,-2.4665,-2.4771,-2.4681,-2.4554,-2.3735,-2.2909,-2.2135,-2.2488,-2.2429,-2.1717,-2.2988,-2.36,-2.3304,-2.2883,-2.2489,-2.2124,-2.1905,-2.1804,-2.1804,-2.1804,-2.1723,-2.1612,-2.1612,-2.1504,-2.1309,-2.1191,-2.095,-2.0614,-2.0202,-1.9841,-1.9522,-1.9225,-1.9101,-1.9101,-1.9101,-1.9101,-1.9101,-1.9101,-1.886,-1.8546,-1.8546,-1.8226,-1.7774,-1.742,-1.738,-1.747,-1.7449,-1.7111,-1.6774,-1.6774,-1.6494,-1.6216,-1.6216,-1.6216,-1.62,-1.6216,-1.6216,-1.6216,-1.6237,-1.6237,-1.6377,-1.6774,-1.6537,-1.6414,-1.6795,-1.6537,-1.6436,-1.6795,-1.7132,-1.7524,-1.7948,-1.83,-1.8517,-1.853,-1.8521,-1.8539,-1.8558,-1.8936,-1.9169,-1.9206,-1.9556,-1.9754,-1.9754,-2.0141,-2.0339,-2.0339,-2.0365,-2.0527,-2.0844,-2.0844,-2.1007,-1.8294,0.0,-1.8717,-1.9387,-1.9572,-1.9737,0.0,-2.0319,-2.0229,-2.0427,-2.0295,-2.0208,-2.0422,-2.0471,-2.0679,-2.1291,-2.139,-2.174,-2.2739,-2.3394,-2.4101,-2.5004,-2.452,-2.4064,-2.3916,-2.2445,-2.1617,-2.1917,-2.2056,-2.2208,-2.2432,-2.3436,-2.3792,-2.3306,-2.3186,-2.2853,-2.2265,-2.1951,-2.1804,-2.1804,-2.1804,-2.1774,-2.1753,-2.1753,-2.1671,-2.152,-2.1504,-2.1348,-2.1095,-2.0536,-2.0197,-1.9982,-1.9464,-1.9183,-1.9101,-1.9101,-1.9101,-1.9101,-1.9101,-1.9045,-1.8962,-1.8962,-1.8688,-1.8331,-1.8226,-1.7767,-1.7206,-1.6844,-1.6652,-1.658,-1.658,-1.6457,-1.6377,-1.6414,-1.6318,-1.6237,-1.634,-1.6281,-1.6297,-1.6595,-1.6652,-1.6795,-1.725,-1.725,-1.7229,-1.7333,-1.725,-1.7229,-1.7333,-1.7632,-1.7881,-1.7995,-1.83,-1.8574,-1.8781,-1.8812,-1.8945,-1.924,-1.9547,-1.9851,-2.017,-2.021,-2.0243,-2.0243,-2.0535,-2.0678,-2.0678,-2.095,-2.1103,-2.1182,-2.1182,-2.1221,-1.6617,-1.7637,-1.8669,-1.9166,-1.9598,-2.0,-2.0409,-2.0212,-2.0055,-2.0419,-2.0184,-2.0032,-2.0426,-2.0498,-2.0643,-2.108,-2.1151,-2.156,-2.273,-2.3591,-2.4253,-2.4654,-2.3899,-2.3315,-2.3208,-2.1914,-2.1208,-2.1508,-2.1416,-2.1463,-2.1716,-2.2482,-2.2725,-2.2302,-2.226,-2.2344,-2.2537,-2.2195,-2.2033,-2.2033,-2.1876,-2.1804,-2.1804,-2.1804,-2.1753,-2.1694,-2.1635,-2.1449,-2.1182,-2.0795,-2.0505,-2.0294,-1.977,-1.9526,-1.9446,-1.9262,-1.9183,-1.9183,-1.912,-1.8981,-1.8822,-1.8822,-1.8526,-1.8127,-1.7955,-1.7578,-1.7199,-1.7123,-1.6949,-1.6814,-1.6814,-1.6622,-1.6457,-1.65,-1.6414,-1.6355,-1.6436,-1.6549,-1.6714,-1.6934,-1.7131,-1.7414,-1.7888,-1.7787,-1.7707,-1.7928,-1.7787,-1.776,-1.8106,-1.829,-1.8537,-1.8876,-1.9075,-1.925,-1.9387,-1.9518,-1.9612,-1.9673,-1.9992,-2.0345,-2.0713,-2.0544,-2.0501,-2.0636,-2.0893,-2.1031,-2.1031,-2.1206,-2.1385,-2.1532,-2.1532,-2.1608,-1.5448,-1.7198,-1.8996,-1.9059,-1.9726,-2.0394,-2.0469,0.0,0.0,0.0,0.0,-1.9631,-2.0352,-2.0489,-2.0502,-2.0497,-2.0505,-2.1068,-2.2685,-2.3399,-2.379,-2.3896,-2.3104,-2.2508,-2.2441,-2.1634,-2.1089,-2.1067,-2.0749,-2.0556,-2.0548,-2.0942,-2.1049,-2.0798,-2.0853,-2.1372,-2.2401,-2.2276,-2.2192,-2.2182,-2.1968,-2.1869,-2.184,-2.1811,-2.1804,-2.1789,-2.1679,0.0,-2.1189,-2.1031,-2.0828,-2.0557,-2.0091,-1.9917,-1.9846,-1.9464,-1.9321,-1.9302,-1.9165,-1.8886,-1.8584,-1.8526,-1.8187,-1.7713,-1.7317,-1.7157,-1.7171,-1.7509,-1.7352,-1.7088,-1.7088,-1.6793,-1.6494,-1.6494,-1.6494,-1.6515,-1.658,-1.692,-1.724,-1.7379,-1.7673,-1.8048,-1.8507,-1.8305,-1.82,-1.8597,-1.8364,-1.8369,-1.8994,-1.9069,-1.9306,-1.9927,-2.0005,-2.0023,-2.0068,-2.0315,-2.037,-2.0126,-2.0421,-2.0771,-2.1079,-2.0828,-2.0771,-2.0991,-2.1253,-2.1393,-2.1408,-2.1447,-2.1608,-2.1915,-2.1886,-2.2034,-1.6118,-1.7145,-1.802,-1.8028,-1.8685,-1.9525,-2.0251,-2.0361,0.0,0.0,0.0,-2.0387,-2.041,-2.0462,-2.0497,-2.0504,-2.0496,-2.108,-2.2753,-2.2501,-2.2375,-2.301,-2.2307,-2.1739,-2.1682,-2.0781,-2.0401,-2.0885,-2.0263,-2.0001,-2.0331,-1.9899,-1.9575,-1.9406,-2.0056,-2.0498,-2.0676,-2.1365,-2.1677,-2.1623,-2.2027,-2.2164,-2.2053,-2.1876,-2.1804,-2.1804,0.0,-2.1744,-2.1676,-2.1355,-2.115,-2.0943,-2.0311,-2.0,-1.9864,-1.9512,-1.9376,-1.9376,-1.9302,-1.9139,-1.8943,-1.8604,-1.8187,-1.7713,-1.7317,-1.692,-1.6622,-1.668,-1.6665,-1.6607,-1.6607,-1.6558,-1.6494,-1.6494,-1.6494,-1.6607,-1.701,-1.7157,-1.742,-1.8167,-1.8351,-1.8526,-1.8943,-1.9143,-1.9251,-1.9339,-1.9537,-1.9708,-1.9823,-1.9823,-1.9866,-1.998,-2.0005,-2.0096,-2.0315,-2.0638,-2.0901,-2.1071,-2.1143,-2.1277,-2.1499,-2.1453,-2.1423,-2.1408,-2.1667,-2.1838,-2.1888,-2.2061,-2.2229,-2.2388,-2.2279,-2.2288,-1.5613,-1.6666,-1.7652,-1.7677,-1.8777,-1.9943,-2.0269,-2.0449,-2.0542,0.0,-2.0529,-2.0568,-2.0469,-2.0478,-2.05,-2.0497,-2.0861,-2.143,-2.2237,-2.2001,-2.1867,-2.2211,-2.1481,-2.093,-2.0855,-2.0403,-2.0184,-2.0401,-1.9571,-1.91,-1.9204,-1.8375,-1.7874,-1.7808,-1.8579,-1.9005,-1.9005,-2.0553,-2.1435,-2.1673,-2.2128,-2.2248,-2.2047,-2.1911,-2.1855,-2.1855,0.0,-2.1804,-2.1789,-2.1624,-2.1532,-2.1415,-2.0746,-2.0436,-2.0311,-1.9733,-1.9457,-1.9402,-1.9358,-1.9165,-1.8905,-1.8642,-1.8298,-1.7928,-1.7707,-1.7489,-1.7311,-1.7311,-1.6928,-1.6494,-1.6494,-1.6494,-1.6494,-1.6494,-1.6686,-1.6947,-1.7157,-1.7578,-1.8008,-1.8429,-1.8789,-1.9098,-1.9284,-1.9574,-1.9762,-1.9762,-1.9902,-2.0043,-2.0202,-2.0359,-2.0536,-2.0695,-2.0853,-2.1023,-2.115,-2.1292,-2.1485,-2.1715,-2.1905,-2.2031,-2.2074,-2.2362,-2.2433,-2.226,-2.2477,-2.2617,-2.2656,-2.2742,-2.2824,-2.2875,-2.2811,-2.2798,-1.5239,-1.6383,-1.7529,-1.7746,-1.9121,-2.0378,-2.0297,-2.0405,-2.0495,-2.0438,-2.0515,-2.0561,-2.0494,-2.0488,-2.0571,-2.0774,-2.1153,-2.1497,-2.1741,-2.1571,-2.1417,-2.1425,-2.0823,-2.0385,-2.0327,-2.0254,-2.0136,-2.0007,-1.9097,-1.8392,-1.804,-1.705,-1.639,-1.6165,-1.6927,-1.7427,-1.7627,-1.9586,-2.0827,-2.1339,-2.2095,-2.2232,-2.1841,-2.1894,-2.1926,-2.192,-2.1869,-2.184,-2.1825,-2.1825,-2.1811,-2.1744,-2.1143,-2.0803,-2.0604,-2.0063,-1.9694,-1.9476,-1.9617,-1.9354,-1.8917,-1.88,-1.8537,-1.8231,-1.8074,-1.8008,-1.7988,-1.7988,-1.7421,-1.6801,-1.6801,-1.6801,-1.6801,-1.6801,-1.7081,-1.7379,-1.7475,-1.8088,-1.8616,-1.8712,-1.9203,-1.9621,-1.9621,-1.9887,-2.0096,-2.0096,-2.0148,-2.0296,-2.0571,-2.0836,-2.1103,-2.1387,-2.1698,-2.1932,-2.2068,-2.2082,-2.2203,-2.2487,-2.2682,-2.2758,-2.2711,-2.3112,-2.3233,-2.3021,-2.3153,-2.3233,-2.3245,-2.3221,-2.3221,-2.3245,-2.3212,-2.3209,-1.5805,-1.6701,-1.7568,-1.8261,-1.9286,-2.0143,-2.0204,-2.0221,-2.0235,-2.0217,-2.0367,-2.0494,-2.0415,-2.0458,-2.0756,-2.1568,-2.108,-2.0853,-2.16,-2.1056,-2.0589,-2.0592,-2.0484,-2.0397,-2.0394,-2.0276,-2.0145,-2.0007,-1.9176,-1.8254,-1.7244,-1.6355,-1.5472,-1.4586,-1.5285,-1.6032,-1.6775,-1.8242,-1.9293,-1.9964,-2.1737,-2.2145,-2.1355,-2.1796,-2.199,-2.199,-2.199,-2.1955,-2.189,-2.189,-2.1855,-2.1759,-2.1402,-2.0853,-2.0285,-2.0604,-2.0237,-1.9676,-2.03,-2.0005,-1.9343,-1.9277,-1.9024,-1.8674,-1.8231,-1.8047,-1.7988,-1.7988,-1.7855,-1.7713,-1.7713,-1.7713,-1.7713,-1.7713,-1.7727,-1.7875,-1.8312,-1.866,-1.8975,-1.935,-1.9726,-1.9962,-1.9962,-2.0185,-2.0376,-2.0376,-2.0587,-2.086,-2.1183,-2.1254,-2.1402,-2.173,-2.1948,-2.2303,-2.2864,-2.2914,-2.3129,-2.3651,-2.3468,-2.3346,-2.3346,-2.3371,-2.338,-2.336,-2.3323,-2.3326,-2.338,-2.3256,-2.3259,-2.338,-2.3256,-2.3224,-1.517,-1.587,-1.6668,-1.7541,-1.8064,-1.8643,-1.9762,-2.0081,-2.0152,-2.0189,-2.0326,-2.0431,-2.0404,-2.0452,-2.0612,-2.0937,-2.0718,-2.0609,-2.0908,-2.0688,-2.0505,-2.0505,-2.0475,-2.0448,-2.04,-2.0347,-2.0266,-2.0131,-1.9286,-1.8564,-1.8121,-1.7227,-1.6278,-1.5303,-1.6026,-1.6282,-1.596,-1.7813,-1.8626,-1.8457,-2.0332,-2.0972,-2.0505,-2.0632,-2.0948,-2.1376,-2.1334,-2.1566,-2.1955,-2.192,-2.1899,-2.1825,-2.1449,-2.0998,-2.0588,-2.0737,-2.0611,-2.0384,-2.0637,-2.0529,-2.0248,-2.0141,-2.0079,-2.0,-1.9725,-1.9628,-1.9618,-1.9618,-1.9546,-1.9229,-1.8087,-1.7794,-1.7794,-1.7794,-1.8008,-1.8324,-1.8672,-1.9013,-1.9387,-1.9744,-2.0045,-2.0254,-2.0254,-2.0469,-2.072,-2.0934,-2.1055,-2.1222,-2.1572,-2.1901,-2.2161,-2.2281,-2.2665,-2.3007,-2.3233,-2.3403,-2.3642,-2.397,-2.3768,-2.3714,-2.3896,-2.3896,-2.3896,-2.3896,-2.3867,-2.3867,-2.3896,-2.3846,-2.3846,-2.3896,-2.3846,-2.3836,-1.5049,-1.5815,-1.6746,-1.7392,0.0,-1.825,-1.9493,-1.9681,-1.9698,-2.0063,-2.0262,-2.037,-2.0402,-2.0441,-2.0483,-2.0496,-2.0498,-2.0503,-2.0498,-2.0503,-2.0505,-2.0505,-2.0498,-2.0473,-2.0413,-2.0397,-2.0341,-2.0209,-1.937,-1.8824,-1.871,-1.7584,-1.6616,-1.5891,-1.6108,-1.6021,-1.557,-1.7173,-1.7852,-1.762,-1.9011,-1.9696,-1.9749,-1.9879,-2.0203,-2.0696,-2.0899,-2.1259,-2.17,-2.1917,-2.1966,-2.1876,-2.157,-2.1269,-2.0998,-2.1087,-2.0855,-2.0519,-2.0703,-2.0488,-2.0115,-2.0123,-2.0115,-2.0099,-2.0003,-1.9938,-1.9906,-1.9906,-1.9857,-1.9567,-1.8567,-1.8475,-1.8655,-1.8655,-1.8897,-1.9185,-1.9361,-1.9637,-1.9955,-2.0309,-2.0563,-2.0763,-2.087,-2.1063,-2.1284,-2.1567,-2.162,-2.1767,-2.2166,-2.2534,-2.2834,-2.3012,-2.3369,-2.3619,-2.3685,-2.385,-2.403,-2.4211,-2.4098,-2.4098,-2.4257,-2.4266,-2.4238,-2.4199,-2.4199,-2.4199,-2.4199,-2.4199,-2.4199,-2.4199,-2.4199,-2.4219,-1.5689,-1.6858,-1.8087,-1.8087,-1.8675,-1.9315,-1.9448,-1.8977,-1.8796,-1.9791,-2.0165,-2.0318,-2.0392,-2.0397,-2.0416,-2.0486,-2.0496,-2.05,-2.0504,-2.05,-2.0495,-2.0495,-2.0498,-2.0473,-2.0413,-2.0387,-2.0331,-2.02,-1.9439,-1.8903,-1.8707,-1.7126,-1.6148,-1.6005,-1.5101,-1.4962,-1.5677,-1.6175,-1.6814,-1.7599,-1.7941,-1.8495,-1.9209,-1.9741,-1.9976,-2.0048,-2.0835,-2.1103,-2.1048,-2.1846,-2.2055,-2.1882,-2.1809,-2.1615,-2.1424,-2.1675,-2.0944,-1.9882,-2.0469,-1.9774,-1.8655,-1.8999,-1.8875,-1.8618,-1.8618,-1.8528,-1.8414,-1.8414,-1.8353,-1.8478,-1.9209,-1.9942,-2.0499,-2.0497,-2.0497,-2.0497,-2.0514,-2.0556,-2.073,-2.1133,-2.1314,-2.1532,-2.1932,-2.2004,-2.2071,-2.2272,-2.2305,-2.25,-2.3038,-2.3109,-2.3341,-2.3937,-2.4006,-2.4085,-2.4294,-2.4294,-2.4365,-2.4497,-2.4496,-2.4472,-2.4416,-2.4398,-2.4338,-2.4208,-2.4199,-2.4199,-2.4199,-2.4199,-2.4199,-2.4199,-2.4199,-2.4284,-1.4894,-1.5549,-1.6408,-1.6408,-1.7023,-1.7773,-1.8374,-1.8873,-1.9348,-1.9889,-2.0045,-2.0116,-2.0243,-2.0305,-2.0353,-2.0416,-2.0432,-2.0454,-2.0488,-2.0504,-2.0502,-2.0503,-2.05,-2.0466,-2.0416,-1.9854,-1.9451,-1.9364,-1.8568,-1.8035,-1.7928,-1.7452,-1.6857,-1.6158,-1.5866,-1.5512,-1.507,-1.6226,-1.6943,-1.719,-1.8039,-1.8534,-1.8697,-1.8523,-1.8803,-1.9438,-1.9542,-1.9854,-2.0301,-2.0506,-2.082,-2.1145,-2.0602,-2.0636,-2.0918,-2.0481,-2.0039,-1.9677,-1.9866,-1.9649,-1.9317,-1.9422,-1.9386,-1.9303,-1.9303,-1.9281,-1.9245,-1.9245,-1.9231,-1.9252,-1.9477,-2.0092,-2.0622,-2.0522,-2.0497,-2.0582,-2.0919,-2.1007,-2.1173,-2.1672,-2.1784,-2.1859,-2.1976,-2.2119,-2.2312,-2.2604,-2.2774,-2.3071,-2.3665,-2.3827,-2.3966,-2.4191,-2.4425,-2.4532,-2.4449,-2.4574,-2.4706,-2.4839,-2.4846,-2.4776,-2.462,-2.4612,-2.459,-2.4555,-2.4555,-2.4555,-2.4555,-2.4555,-2.4555,-2.4555,-2.4555,-2.4571,-1.5879,-1.6458,-1.7048,-1.6729,-1.7016,-1.7502,-1.7988,-1.8832,-1.9563,-1.9759,-1.9839,-1.9925,-2.0097,-2.0148,-2.0215,-2.0338,-2.0359,-2.0383,-2.0453,-2.0463,-2.0469,-2.0501,-2.0504,-2.0467,-2.0412,-1.9922,-1.9448,-1.9034,-1.8186,-1.7674,-1.7598,-1.6973,-1.651,-1.6291,-1.5889,-1.5581,-1.5362,-1.6129,-1.6867,-1.752,-1.7927,-1.8349,-1.8761,-1.8123,-1.8177,-1.8764,-1.8855,-1.9313,-1.9993,-1.9934,-2.0142,-2.0455,-1.998,-2.0062,-2.0388,-1.991,-1.9555,-1.9263,-1.9211,-1.9003,-1.8771,-1.8775,-1.8775,-1.8775,-1.8775,-1.8775,-1.8775,-1.8775,-1.8796,-1.891,-1.9209,-1.9666,-2.0167,-2.0595,-2.0917,-2.1235,-2.1625,-2.1647,-2.1742,-2.2217,-2.2339,-2.2417,-2.2573,-2.2767,-2.302,-2.335,-2.3645,-2.3951,-2.431,-2.443,-2.4487,-2.4525,-2.4714,-2.4795,-2.4672,-2.4771,-2.4902,-2.5028,-2.5034,-2.5009,-2.4939,-2.4855,-2.4787,-2.4742,-2.4742,-2.4742,-2.4742,-2.4742,-2.4742,-2.4742,-2.4742,-2.4772,-1.7666,-1.8489,-1.8953,-1.8075,-1.7895,-1.7963,-1.8027,-1.8773,-1.9467,-1.9485,-1.9596,-1.9743,-1.994,-1.9983,-2.0045,-2.0241,-2.0278,-2.0323,-2.0387,-2.0397,-2.0419,-2.0488,-2.0501,-2.0466,-2.0412,-2.0329,-1.9932,-1.9066,-1.8204,-1.765,-1.7508,-1.6049,-1.5583,-1.6369,-1.55,-1.5426,-1.6307,-1.6121,-1.679,-1.829,-1.7796,-1.8152,-1.92,-1.8312,-1.7964,-1.8102,-1.8591,-1.9177,-1.979,-1.9723,-1.9753,-1.9824,-1.9684,-1.9705,-1.9811,-1.9655,-1.9215,-1.8677,-1.8584,-1.8101,-1.7547,-1.7549,-1.7549,-1.7557,-1.7554,-1.7554,-1.7554,-1.7554,-1.7629,-1.7881,-1.8549,-1.8907,-1.9418,-2.066,-2.1506,-2.211,-2.2386,-2.2363,-2.2399,-2.2807,-2.2941,-2.3102,-2.3479,-2.3712,-2.3964,-2.4297,-2.4667,-2.4902,-2.4902,-2.4906,-2.4906,-2.4892,-2.4919,-2.4926,-2.4912,-2.4926,-2.499,-2.5111,-2.5117,-2.5169,-2.5292,-2.5122,-2.4968,-2.4847,-2.484,-2.484,-2.484,-2.484,-2.484,-2.484,-2.484,-2.4899,-1.6052,-1.6992,-1.7795,-1.6398,-1.6377,-1.6847,-1.7483,-1.8353,-1.912,-1.9427,-1.952,-1.9586,-1.9737,-1.9852,-1.9949,-2.0053,-2.0146,-2.0263,-2.0378,-2.0402,-2.0415,-2.0486,-2.0496,-2.0472,-2.0406,-1.983,-1.9355,-1.9102,-1.8269,-1.7474,-1.6775,-1.6336,-1.621,-1.6388,-1.6091,-1.6313,-1.7132,-1.7545,-1.7938,-1.8306,-1.8654,-1.9023,-1.9398,-1.8367,-1.7892,-1.7869,-1.7983,-1.8129,-1.8273,-1.8258,-1.8684,-1.9275,-1.8528,-1.8687,-1.9249,-1.8453,-1.8027,-1.7881,-1.8068,-1.8022,-1.7909,-1.7945,-1.7969,-1.7956,-1.7909,-1.7884,-1.7884,-1.7884,-1.7917,-1.7965,-1.8135,-1.8626,-1.9352,-2.0374,-2.1049,-2.1593,-2.2019,-2.2529,-2.3033,-2.3506,-2.3595,-2.3665,-2.3868,-2.4063,-2.4324,-2.4713,-2.4842,-2.4902,-2.4902,-2.499,-2.5022,-2.4906,-2.5091,-2.5165,-2.5064,-2.5149,-2.5228,-2.5263,-2.5253,-2.5273,-2.5298,-2.5262,-2.5204,-2.5121,-2.5105,-2.5105,-2.5105,-2.5105,-2.5105,-2.5105,-2.5105,-2.5132,-1.6326,-1.704,-1.7411,-1.6191,-1.6094,-1.6416,-1.6833,-1.7603,-1.8303,-1.8575,-1.8739,-1.8992,-1.9511,-1.9348,-1.9305,-1.9857,-2.0012,-2.0108,-2.0283,-2.0329,-2.0379,-2.0438,-2.0482,-2.0498,-2.0503,-2.0086,-1.9635,-1.9179,-1.8702,-1.8044,-1.7171,-1.6689,-1.6621,-1.7009,-1.655,-1.6883,-1.8112,-1.7925,-1.8211,-1.8973,-1.8671,-1.8768,-1.9199,-1.8699,-1.8399,-1.8268,-1.8074,-1.7992,-1.7982,-1.7847,-1.8099,-1.8489,-1.8096,-1.8239,-1.8635,-1.8229,-1.8059,-1.8057,-1.8148,-1.8189,-1.8191,-1.8189,-1.8201,-1.8189,-1.8152,-1.81,-1.807,-1.8161,-1.824,-1.8299,-1.8364,-1.8733,-1.9216,-1.9665,-2.0729,-2.1826,-2.2566,-2.3108,-2.3511,-2.3755,-2.3933,-2.4053,-2.4128,-2.4446,-2.4747,-2.4959,-2.5046,-2.5091,-2.5091,-2.5149,-2.5175,-2.5097,-2.5222,-2.5279,-2.525,-2.5312,-2.5357,-2.5393,-2.5406,-2.5406,-2.5406,-2.5394,-2.5353,-2.5248,-2.5248,-2.5248,-2.5248,-2.5248,-2.5248,-2.5248,-2.5248,-2.5248,-1.6833,-1.7254,-1.7158,-1.64,-1.6201,-1.6158,-1.6018,-1.6729,-1.7409,-1.7405,-1.7642,-1.809,-1.889,-1.8516,-1.8379,-1.9266,-1.9459,-1.9539,-1.9707,-1.9801,-1.988,-1.9963,-2.002,-2.0144,-2.0351,-2.0326,-1.9991,-1.9267,-1.9285,-1.8896,-1.7872,-1.7248,-1.7237,-1.7902,-1.7194,-1.7541,-1.9069,-1.8193,-1.8405,-1.9698,-1.866,-1.8477,-1.9081,-1.9191,-1.9087,-1.8823,-1.8476,-1.8337,-1.8317,-1.8088,-1.8003,-1.8048,-1.8166,-1.8239,-1.8298,-1.848,-1.8555,-1.8555,-1.8527,-1.8517,-1.8517,-1.8481,-1.8471,-1.8471,-1.8452,-1.8357,-1.8311,-1.847,-1.8599,-1.8708,-1.8815,-1.8978,-1.9124,-1.9218,-2.0658,-2.2236,-2.3022,-2.3565,-2.3902,-2.395,-2.4219,-2.4439,-2.4439,-2.4826,-2.5139,-2.5146,-2.5239,-2.5308,-2.5326,-2.5322,-2.5322,-2.5326,-2.5331,-2.5362,-2.5406,-2.5424,-2.5439,-2.5498,-2.5501,-2.5501,-2.5501,-2.5501,-2.5446,-2.534,-2.5331,-2.5331,-2.5331,-2.5331,-2.5331,-2.5331,-2.5331,-2.5331,-1.5384,-1.5858,-1.623,-1.5944,-1.5815,-1.5605,-1.4893,-1.5948,-1.6903,-1.6342,-1.6535,-1.6867,-1.7119,-1.7226,-1.7303,-1.7457,-1.7669,-1.7828,-1.7861,-1.7973,-1.809,-1.8216,-1.824,-1.8571,-1.9392,-1.9473,-1.9411,-1.9305,-1.9925,-1.9601,-1.7965,-1.8382,-1.8724,-1.8821,-1.8544,-1.8859,-1.984,-1.9602,-1.9569,-1.9788,-1.9667,-1.9669,-1.9773,-1.9794,-1.9485,-1.8969,-1.892,-1.8895,-1.8896,-1.8795,-1.8855,-1.899,-1.8797,-1.8814,-1.8951,-1.8806,-1.8762,-1.878,-1.8952,-1.9011,-1.9027,-1.9129,-1.9171,-1.9137,-1.9027,-1.8976,-1.8967,-1.9,-1.9017,-1.9034,-1.9059,-1.9075,-1.9296,-2.0041,-2.1167,-2.2065,-2.196,-2.3151,-2.4298,-2.4525,-2.4795,-2.4984,-2.4984,-2.515,-2.5289,-2.5346,-2.5326,-2.534,-2.546,-2.5418,-2.5412,-2.547,-2.5467,-2.548,-2.5489,-2.5489,-2.5492,-2.5501,-2.5501,-2.5501,-2.5501,-2.5501,-2.5495,-2.5467,-2.5467,-2.5467,-2.5467,-2.5467,-2.5467,-2.5467,-2.5467,-2.5467,-1.5322,-1.574,-1.6014,-1.6338,-1.5968,-1.546,-1.518,-1.5274,-1.5392,-1.5287,-1.514,-1.5374,-1.6474,-1.6383,-1.6342,-1.6944,-1.7136,-1.7266,-1.742,-1.7534,-1.7643,-1.7766,-1.7849,-1.8063,-1.8479,-1.8554,-1.8574,-1.8574,-1.8899,-1.8748,-1.7943,-1.7775,-1.7902,-1.8316,-1.7798,-1.7924,-1.8762,-1.8624,-1.8487,-1.8345,-1.8365,-1.8429,-1.8524,-1.8998,-1.9324,-1.9492,-1.9313,-1.9215,-1.9217,-1.9026,-1.901,-1.9084,-1.904,-1.9073,-1.9153,-1.914,-1.9142,-1.9149,-1.9245,-1.9268,-1.9285,-1.9333,-1.9357,-1.9356,-1.9377,-1.9326,-1.9305,-1.9501,-1.9521,-1.9505,-1.9573,-1.9598,-1.9701,-2.0076,-2.0901,-2.1696,-2.207,-2.3497,-2.4738,-2.4897,-2.5018,-2.5142,-2.5245,-2.5316,-2.5382,-2.5446,-2.5429,-2.5432,-2.5495,-2.5467,-2.547,-2.5498,-2.5501,-2.5515,-2.5547,-2.5559,-2.5573,-2.5607,-2.5609,-2.5609,-2.5609,-2.5609,-2.5609,-2.5609,-2.5537,-2.5501,-2.5501,-2.5501,-2.5501,-2.5501,-2.5501,-2.5501,-1.5504,-1.5797,-1.5865,-1.6682,-1.6262,-1.5604,-1.552,-1.501,-1.455,-1.455,-1.4245,-1.4356,-1.5615,-1.5456,-1.5413,-1.6214,-1.6374,-1.6466,-1.6675,-1.6795,-1.6893,-1.7019,-1.7137,-1.7295,-1.7524,-1.7623,-1.7666,-1.7665,-1.7871,-1.7878,-1.7614,-1.7217,-1.7257,-1.7812,-1.7225,-1.7195,-1.7787,-1.7702,-1.753,-1.7305,-1.73,-1.7344,-1.7416,-1.8108,-1.8749,-1.9328,-1.9504,-1.9578,-1.9556,-1.9342,-1.925,-1.9266,-1.9358,-1.9397,-1.942,-1.9535,-1.958,-1.958,-1.9576,-1.9585,-1.9585,-1.9585,-1.9585,-1.9605,-1.9698,-1.9654,-1.9629,-1.9877,-1.9913,-1.9902,-1.9998,-2.0036,-2.0026,-2.0073,-2.0694,-2.1589,-2.2651,-2.4042,-2.51,-2.5192,-2.5202,-2.5253,-2.5402,-2.5432,-2.5453,-2.5521,-2.5515,-2.5513,-2.5552,-2.5544,-2.5532,-2.5549,-2.5547,-2.5573,-2.5616,-2.5632,-2.5646,-2.5702,-2.5696,-2.5697,-2.5697,-2.5697,-2.5696,-2.5702,-2.5605,-2.5547,-2.5547,-2.5547,-2.5547,-2.5547,-2.5547,-2.5547,-1.5504,-1.5617,-1.5588,-1.664,-1.657,-1.6075,-1.5383,-1.5384,-1.5255,-1.4319,-1.4314,-1.4322,-1.3838,-1.4141,-1.4471,-1.4526,-1.4637,-1.4753,-1.4828,-1.4945,-1.5081,-1.5218,-1.5295,-1.5673,-1.6488,-1.6693,-1.6773,-1.6771,-1.7533,-1.7636,-1.6806,-1.7453,-1.7856,-1.7894,-1.7791,-1.7757,-1.7803,-1.779,-1.7722,-1.7579,-1.7577,-1.7519,-1.7406,-1.7577,-1.7681,-1.7815,-1.9378,-2.0055,-2.0065,-1.9982,-1.9952,-1.9947,-1.9959,-1.9959,-1.9964,-2.0041,-2.0055,-2.006,-2.0065,-2.0065,-2.0065,-2.0065,-2.0065,-2.0055,-2.0069,-2.0069,-2.0069,-2.0084,-2.0093,-2.0093,-2.0088,-2.0089,-2.0137,-2.0247,-2.0954,-2.2012,-2.358,-2.4643,-2.5324,-2.5446,-2.5479,-2.5479,-2.5493,-2.549,-2.5517,-2.5584,-2.5535,-2.5552,-2.5668,-2.5631,-2.5616,-2.5679,-2.5686,-2.5686,-2.5692,-2.5689,-2.5702,-2.5702,-2.5703,-2.5701,-2.5701,-2.5701,-2.5703,-2.5702,-2.5691,-2.5687,-2.5694,-2.5694,-2.5694,-2.5694,-2.5694,-2.5694,-1.4925,-1.4961,-1.5033,-1.6317,-1.5945,-1.5343,-1.5591,-1.5389,-1.4909,-1.4072,-1.4287,-1.4375,-1.3556,-1.3666,-1.3959,-1.4175,-1.4251,-1.4347,-1.4541,-1.4652,-1.4757,-1.4887,-1.504,-1.5264,-1.557,-1.5716,-1.5804,-1.5797,-1.6088,-1.6147,-1.5883,-1.6142,-1.6299,-1.6298,-1.6274,-1.6261,-1.6265,-1.6223,-1.6169,-1.6118,-1.6116,-1.6075,-1.601,-1.6625,-1.6894,-1.6961,-1.8069,-1.854,-1.8484,-1.8471,-1.8813,-1.9349,-1.9312,-1.9645,-2.0135,-2.0113,-2.0099,-2.0095,-2.0097,-2.0097,-2.0097,-2.0098,-2.0103,-2.0116,-2.0202,-2.023,-2.0255,-2.0331,-2.0363,-2.0363,-2.0363,-2.0357,-2.0366,-2.0415,-2.1092,-2.1891,-2.2462,-2.3239,-2.3842,-2.3893,-2.4345,-2.4726,-2.4728,-2.5188,-2.5589,-2.5647,-2.5642,-2.5646,-2.5693,-2.5682,-2.5664,-2.564,-2.5639,-2.5639,-2.5638,-2.5635,-2.5643,-2.5643,-2.5639,-2.5639,-2.5644,-2.5639,-2.5641,-2.564,-2.564,-2.5664,-2.5697,-2.5697,-2.5697,-2.5697,-2.5697,-2.5697,-1.4605,-1.4588,-1.4715,-1.6143,-1.5813,-1.534,-1.61,-1.5796,-1.5231,-1.4734,-1.4823,-1.4742,-1.3853,-1.3812,-1.3924,-1.3987,-1.4061,-1.417,-1.4365,-1.4506,-1.4618,-1.478,-1.4942,-1.5056,-1.5099,-1.52,-1.5267,-1.5273,-1.5272,-1.5292,-1.533,-1.5345,-1.5378,-1.5397,-1.5397,-1.54,-1.5396,-1.5365,-1.5325,-1.5331,-1.5308,-1.5276,-1.5251,-1.5811,-1.6055,-1.6084,-1.6632,-1.7151,-1.7629,-1.7629,-1.7997,-1.8587,-1.8856,-1.9316,-1.9865,-2.0109,-2.0206,-2.0227,-2.0212,-2.0223,-2.023,-2.0226,-2.0229,-2.0249,-2.034,-2.0373,-2.0388,-2.0467,-2.0498,-2.0498,-2.0498,-2.0497,-2.0507,-2.0534,-2.0959,-2.1356,-2.1356,-2.2244,-2.3123,-2.3411,-2.3701,-2.4082,-2.467,-2.4986,-2.5282,-2.5624,-2.5673,-2.5672,-2.5666,-2.565,-2.562,-2.5567,-2.5567,-2.5567,-2.5566,-2.5587,-2.5598,-2.5598,-2.5599,-2.5599,-2.56,-2.5599,-2.5603,-2.5602,-2.5604,-2.5622,-2.5673,-2.5691,-2.5699,-2.5699,-2.5699,-2.5698,0.0,0.0,0.0,-1.6074,-1.6184,-1.611,-1.6803,-1.6594,-1.626,-1.6284,-1.5911,-1.5366,-1.4655,-1.4528,-1.4383,-1.3931,-1.3984,-1.4105,-1.4189,-1.4371,-1.4569,-1.4771,-1.4847,-1.4955,-1.5079,-1.5162,-1.5199,-1.5199,-1.5202,-1.5204,-1.5195,-1.5258,-1.5327,-1.5386,-1.5396,-1.5397,-1.5397,-1.54,-1.5398,-1.5398,-1.5332,-1.53,-1.5299,-1.5245,-1.5214,-1.5214,-1.5214,-1.6133,-1.7626,-1.7629,-1.7639,-1.7761,-1.8699,-1.9076,-1.9208,-2.008,-2.044,-2.0493,-2.0434,-2.0455,-2.0498,-2.0498,-2.0503,-2.0496,-2.0497,-2.0504,-2.0501,-2.0501,-2.0503,-2.0503,-2.0501,-2.0501,-2.052,-2.0576,-2.0553,-2.0496,-2.0495,-2.1833,-2.3271,-2.4121,-2.3619,-2.361,-2.5317,-2.4893,-2.4596,-2.5466,-2.5603,-2.56,-2.5588,-2.5545,-2.55,-2.5489,-2.5498,-2.55,-2.5498,-2.5556,-2.5602,-2.5602,-2.5604,-2.5598,-2.5598,-2.5598,-2.5599,-2.5602,-2.5602,-2.56,-2.56,-2.5663,-2.57,-2.57,-2.57,-2.5702,-1.3992,0.0,0.0,0.0,0.0,0.0,-1.5715,-1.5511,-1.5209,-1.5691,-1.5572,-1.5323,-1.5113,-1.5195,-1.5243,-1.5117,-1.4338,-1.3834,-1.4091,-1.4216,-1.4356,-1.456,-1.4733,-1.4839,-1.4884,-1.5028,-1.5129,-1.5129,-1.5133,-1.5151,-1.52,-1.5219,-1.5245,-1.5248,-1.5297,-1.5335,-1.5332,-1.5328,-1.5347,-1.54,-1.538,-1.5367,-1.5367,-1.5347,-1.534,-1.534,-1.5344,-1.5612,-1.6031,-1.5932,-1.6291,-1.6989,-1.7834,-1.8574,-1.9282,-2.0148,-2.0477,-2.0497,-2.0481,-2.048,-2.0505,-2.0499,-2.0497,-2.0498,-2.0503,-2.0497,-2.0508,-2.0564,-2.0575,-2.0574,-2.0573,-2.0574,-2.0556,-2.0533,-2.0509,-2.0503,-2.0496,-2.0879,-2.1294,-2.1529,-2.1885,-2.2504,-2.3563,-2.4047,-2.458,-2.5406,-2.553,-2.549,-2.5401,-2.5412,-2.5415,-2.5362,-2.5444,-2.5498,-2.5501,-2.5514,-2.5527,-2.5527,-2.5533,-2.5527,-2.5528,-2.553,-2.5527,-2.5531,-2.5531,-2.5527,-2.5532,-2.5587,-2.5632,-2.5632,-2.5632,-2.5626,-1.3839,-1.3589,-1.3667,-1.4537,0.0,0.0,-1.6033,-1.5844,-1.5548,-1.6391,-1.6442,-1.6252,-1.5934,-1.5974,-1.596,-1.5646,-1.4944,-1.4555,-1.4885,-1.4827,-1.4809,-1.4983,-1.481,-1.4688,-1.4709,-1.4817,-1.4893,-1.4893,-1.4889,-1.4922,-1.4991,-1.5024,-1.506,-1.5112,-1.5147,-1.5205,-1.5259,-1.5256,-1.5282,-1.5315,-1.5339,-1.5365,-1.5355,-1.5326,-1.532,-1.532,-1.5352,-1.5361,-1.5349,-1.5296,-1.561,-1.6175,-1.7016,-1.7902,-1.8796,-1.9649,-2.0189,-2.0503,-2.05,-2.0523,-2.0536,-2.0544,-2.0543,-2.0543,-2.0537,-2.0537,-2.0547,-2.0585,-2.0584,-2.0562,-2.0559,-2.0558,-2.0546,-2.0507,-2.0476,-2.045,-2.0424,-2.0419,-2.0541,-2.0961,-2.1145,-2.1691,-2.3196,-2.3577,-2.406,-2.5201,-2.5374,-2.5356,-2.5269,-2.5287,-2.5306,-2.5264,-2.5354,-2.5422,-2.5422,-2.5466,-2.5497,-2.5497,-2.5497,-2.5503,-2.5497,-2.5503,-2.5503,-2.55,-2.55,-2.55,-2.55,-2.5566,-2.5605,-2.5605,-2.5605,-2.5601,-1.4227,-1.3981,-1.4207,-1.5225,-1.4901,0.0,-1.6887,-1.6661,-1.6326,-1.7397,-1.7509,-1.7265,-1.679,-1.6686,-1.6446,-1.5814,-1.5781,-1.5903,-1.6072,-1.5793,-1.5621,-1.5787,-1.5191,-1.4748,-1.4705,-1.4722,-1.4705,-1.4612,-1.4603,-1.4632,-1.47,-1.4765,-1.484,-1.4964,-1.497,-1.5043,-1.5149,-1.5161,-1.5173,-1.5171,-1.5238,-1.5284,-1.5276,-1.5219,-1.5196,-1.5198,-1.5267,-1.5297,-1.53,-1.5361,-1.5388,-1.549,-1.6364,-1.7175,-1.7968,-1.8884,-1.9703,-2.0381,-2.0478,-2.0553,-2.0603,-2.0603,-2.0596,-2.0598,-2.0587,-2.0588,-2.059,-2.0581,-2.0528,-2.0487,-2.0493,-2.0487,-2.0495,-2.0479,-2.0431,-2.0369,-2.0304,-2.0291,-2.055,-2.1449,-2.1016,-2.1245,-2.3552,-2.338,-2.3443,-2.4957,-2.5186,-2.5195,-2.5185,-2.518,-2.5186,-2.5186,-2.5245,-2.5283,-2.5283,-2.54,-2.5468,-2.5468,-2.5466,-2.548,-2.548,-2.5488,-2.5497,-2.5497,-2.5497,-2.5497,-2.5497,-2.556,-2.5589,-2.5589,-2.5589,-2.5593,-1.5854,-1.5712,-1.5688,-1.5913,-1.5526,0.0,-1.572,-1.4994,-1.451,-1.5589,-1.5316,-1.5267,-1.6481,-1.6523,-1.6375,-1.6406,-1.6899,-1.701,-1.6203,-1.6034,-1.6094,-1.639,-1.6436,-1.6159,-1.5465,-1.5503,-1.5299,-1.465,-1.4603,-1.4629,-1.4704,-1.4709,-1.4733,-1.4761,-1.4808,-1.485,-1.4884,-1.4927,-1.4964,-1.4961,-1.508,-1.5137,-1.514,-1.518,-1.5204,-1.5204,-1.5272,-1.5301,-1.5295,-1.5307,-1.5346,-1.549,-1.6364,-1.6802,-1.7137,-1.8709,-1.9394,-1.9629,-2.0337,-2.0586,-2.0603,-2.0603,-2.0604,-2.0592,-2.0537,-2.0521,-2.0507,-2.0448,-2.0435,-2.0415,-2.0418,-2.0416,-2.0412,-2.0348,-2.0332,-2.0299,-2.0233,-2.0222,-2.0274,-2.0469,-2.0891,-2.1578,-2.2775,-2.3372,-2.4008,-2.4967,-2.5118,-2.5097,-2.5047,-2.5088,-2.5118,-2.5118,-2.5185,-2.5219,-2.5219,-2.5244,-2.5259,-2.5259,-2.5312,-2.5339,-2.5339,-2.5444,-2.5497,-2.5497,-2.5497,-2.5497,-2.5497,-2.5507,-2.5524,-2.5524,-2.5524,-2.5518,-1.6426,-1.6244,-1.6273,-1.657,-1.614,0.0,0.0,-1.6019,-1.5558,-1.6501,-1.606,-1.5747,-1.6591,-1.6309,-1.6101,-1.6574,-1.6955,-1.7048,-1.6615,-1.6721,-1.6954,-1.7222,-1.6982,-1.6632,-1.6185,-1.6211,-1.6035,-1.5541,-1.506,-1.4814,-1.4849,-1.4467,-1.4277,-1.4351,-1.4378,-1.4484,-1.4644,-1.4677,-1.4747,-1.4856,-1.4922,-1.4949,-1.4952,-1.4986,-1.4994,-1.5011,-1.511,-1.5152,-1.5163,-1.5265,-1.5316,-1.5389,-1.5831,-1.6272,-1.6759,-1.763,-1.8232,-1.8719,-1.9563,-1.985,-1.9918,-2.0363,-2.05,-2.0487,-2.0459,-2.0455,-2.0439,-2.0405,-2.0353,-2.0288,-2.0259,-2.0234,-2.0196,-2.02,-2.0198,-2.0192,-2.0158,-2.0154,-2.014,-2.0108,-2.0756,-2.1596,-2.2491,-2.2984,-2.3658,-2.487,-2.5047,-2.4876,-2.4413,-2.4794,-2.4935,-2.4497,-2.4898,-2.5202,-2.5202,-2.5202,-2.5202,-2.5202,-2.5234,-2.525,-2.525,-2.5313,-2.5369,-2.5404,-2.5476,-2.5497,-2.5497,-2.5497,-2.5497,-2.5497,-2.5497,-2.5497,-1.6974,-1.6665,-1.6685,-1.7307,-1.682,-1.6483,0.0,0.0,0.0,-1.7312,-1.685,-1.6372,-1.6353,-1.5783,-1.5522,-1.6152,-1.6342,-1.6497,-1.6738,-1.7184,-1.755,-1.7737,-1.7328,-1.6977,-1.6791,-1.6662,-1.6527,-1.6343,-1.5638,-1.5144,-1.5012,-1.4387,-1.4012,-1.3955,-1.3969,-1.4103,-1.4379,-1.4239,-1.4333,-1.4641,-1.455,-1.4593,-1.4714,-1.4776,-1.4799,-1.4813,-1.4906,-1.4958,-1.497,-1.5138,-1.5207,-1.5226,-1.5284,-1.573,-1.6369,-1.6543,-1.7151,-1.802,-1.8825,-1.9212,-1.9472,-2.0167,-2.0376,-2.0359,-2.0359,-2.0329,-2.0296,-2.0302,-2.0234,-2.0132,-2.0081,-2.0022,-1.9996,-2.0031,-2.0041,-2.0045,-2.0039,-2.0044,-2.006,-2.0142,-2.0682,-2.1376,-2.2188,-2.2471,-2.3019,-2.4318,-2.452,-2.4264,-2.3556,-2.4129,-2.4387,-2.3844,-2.4457,-2.4981,-2.5153,-2.5162,-2.5162,-2.5162,-2.5169,-2.5175,-2.5175,-2.5191,-2.5224,-2.5284,-2.5387,-2.545,-2.5462,-2.5462,-2.547,-2.5497,-2.5497,-2.5497,-1.8547,-1.795,-1.7542,-1.8257,-1.7604,-1.6835,-1.701,0.0,-1.6362,-1.5079,0.0,-1.4826,-1.4773,0.0,0.0,-1.4614,-1.5058,-1.5499,-1.5875,-1.6584,-1.7103,-1.718,-1.7835,-1.7969,-1.7138,-1.6519,-1.6159,-1.6133,-1.6037,-1.5687,-1.503,-1.4907,-1.4536,-1.3842,-1.3886,-1.3931,-1.3966,-1.332,-1.3359,-1.4092,-1.3669,-1.3811,-1.4451,-1.469,-1.4799,-1.4799,-1.4817,-1.4821,-1.4821,-1.4847,-1.4887,-1.4971,-1.5207,-1.5359,-1.5541,-1.632,-1.7154,-1.8018,-1.8821,-1.9608,-2.0274,-2.0371,-2.032,-2.0219,-2.0219,-2.0104,-1.9957,-1.9957,-1.9946,-1.9926,-1.9925,-1.9919,-1.9903,-1.9849,-1.9834,-1.9836,-1.9828,-1.9835,-2.0014,-2.06,-2.0777,-2.0947,-2.1297,-2.1995,-2.2573,-2.2766,-2.2779,-2.2751,-2.2646,-2.2725,-2.3025,-2.3651,-2.3816,-2.4183,-2.4961,-2.5018,-2.5018,-2.5018,-2.5082,-2.5115,-2.5115,-2.5168,-2.5198,-2.5208,-2.5223,-2.5259,-2.5321,-2.5321,-2.5376,-2.5497,-2.5497,-2.5497,-1.8806,-1.8538,-1.8314,-1.8533,-1.8242,-1.7888,-1.7839,-1.7392,-1.6812,-1.6166,0.0,0.0,0.0,0.0,0.0,0.0,-1.4697,-1.4899,-1.5037,-1.5741,-1.6588,-1.7508,-1.814,-1.8325,-1.7899,-1.7354,-1.7034,-1.7034,-1.652,-1.6005,-1.5551,-1.4901,-1.4355,-1.3989,-1.3616,-1.3526,-1.372,-1.2996,-1.2853,-1.3305,-1.2744,-1.2888,-1.3654,-1.3841,-1.4176,-1.4635,-1.4706,-1.4746,-1.4741,-1.478,-1.4822,-1.4852,-1.4971,-1.5031,-1.5111,-1.5482,-1.617,-1.7027,-1.7829,-1.868,-1.9488,-1.9964,-2.0072,-2.0026,-2.0026,-1.9976,-1.9897,-1.9897,-1.9838,-1.978,-1.978,-1.9754,-1.9732,-1.9742,-1.9685,-1.964,-1.9684,-1.9987,-2.0344,-2.0635,-2.1059,-2.1419,-2.153,-2.2301,-2.3099,-2.3698,-2.3347,-2.2894,-2.2555,-2.2912,-2.3149,-2.3016,-2.3875,-2.4605,-2.4965,-2.5003,-2.5003,-2.5003,-2.5034,-2.5034,-2.5034,-2.5109,-2.5138,-2.5138,-2.5185,-2.5208,-2.524,-2.524,-2.5274,-2.5332,-2.5455,-2.5497,-1.8806,-1.8636,-1.8503,-1.8616,-1.8481,-1.8275,-1.817,-1.7849,-1.7416,-1.6942,-1.6087,0.0,0.0,0.0,-1.4049,-1.4564,0.0,-1.4357,-1.4516,-1.5035,-1.5874,-1.7137,-1.7809,-1.8168,-1.8134,-1.7818,-1.7594,-1.7508,-1.6955,-1.6423,-1.6031,-1.5237,-1.4576,-1.4146,-1.3709,-1.3479,-1.3461,-1.2572,-1.23,-1.2649,-1.1866,-1.1898,-1.2668,-1.3068,-1.3558,-1.4144,-1.4489,-1.4649,-1.4645,-1.4702,-1.4719,-1.4719,-1.4719,-1.4757,-1.4853,-1.5132,-1.5778,-1.6653,-1.7473,-1.8316,-1.913,-1.9708,-1.9875,-1.9847,-1.9847,-1.9824,-1.982,-1.982,-1.9748,-1.9672,-1.9672,-1.9608,-1.9555,-1.9608,-1.952,-1.9429,-1.948,-2.0051,-2.059,-2.076,-2.1281,-2.1748,-2.1961,-2.2281,-2.2768,-2.3489,-2.2886,-2.2164,-2.173,-2.2384,-2.2745,-2.2396,-2.3676,-2.4667,-2.4903,-2.4973,-2.5003,-2.5003,-2.5003,-2.5003,-2.5003,-2.505,-2.507,-2.507,-2.5124,-2.5151,-2.5174,-2.5174,-2.5175,-2.5202,-2.5351,-2.5415,-1.8806,-1.8226,-1.7825,-1.8601,-1.8154,-1.7479,-1.7289,-1.7867,-1.7981,-1.6287,-1.6622,-1.6984,-1.6194,-1.54,-1.4837,0.0,-1.4092,0.0,0.0,-1.4614,-1.4848,-1.5414,-1.6583,-1.7368,-1.7432,-1.742,-1.7301,-1.7035,-1.7248,-1.7049,-1.6337,-1.6254,-1.5613,-1.424,-1.436,-1.4016,-1.3119,-1.1815,-1.1539,-1.2299,-1.1052,-1.0843,-1.159,-1.2629,-1.3118,-1.3202,-1.4111,-1.4508,-1.4508,-1.4514,-1.4507,-1.4506,-1.4506,-1.4549,-1.4726,-1.5701,-1.6607,-1.7487,-1.8359,-1.9187,-1.9869,-1.9888,-1.9809,-1.9707,-1.9707,-1.9665,-1.9613,-1.9613,-1.9606,-1.9606,-1.9606,-1.9512,-1.9414,-1.9414,-1.9314,-1.9209,-1.9209,-1.9839,-2.058,-2.1167,-2.1358,-2.1638,-2.235,-2.1532,-2.0791,-2.0817,-2.0143,-1.9618,-1.9606,-2.0301,-2.1109,-2.1931,-2.2883,-2.3789,-2.4642,-2.4892,-2.5003,-2.5003,-2.5003,-2.5003,-2.5003,-2.5,-2.5,-2.5,-2.501,-2.5044,-2.5103,-2.5103,-2.5141,-2.5202,-2.5207,-2.5207,0.0,0.0,-1.7003,-1.7798,-1.738,-1.6892,-1.7356,-1.6869,-1.6288,-1.6193,-1.5965,-1.586,-1.6115,-1.594,-1.5573,0.0,-1.4653,-1.4138,0.0,-1.3102,-1.3244,-1.3872,-1.5537,-1.6648,-1.6668,-1.6953,-1.7105,-1.7005,-1.7085,-1.7036,-1.6779,-1.6342,-1.5659,-1.4694,-1.4131,-1.3544,-1.2912,-1.1523,-1.102,-1.1353,-1.0077,-0.9933,-1.0801,-1.1752,-1.2457,-1.3025,-1.3956,-1.4368,-1.4374,-1.4458,-1.4493,-1.4505,-1.4505,-1.4513,-1.4576,-1.497,-1.6002,-1.7401,-1.8809,-1.9469,-1.9703,-1.9703,-1.967,-1.9631,-1.9631,-1.9615,-1.9578,-1.9488,-1.9475,-1.9444,-1.936,-1.9297,-1.9274,-1.9274,-1.9169,-1.9069,-1.9069,-2.0011,-2.0916,-2.1126,-2.208,-2.2765,-2.2475,-2.2124,-2.1954,-2.2122,-2.1475,-2.1203,-2.1858,-2.2191,-2.2469,-2.2756,-2.3557,-2.4176,-2.4483,-2.4559,-2.4657,-2.4793,-2.48,-2.4861,-2.4987,-2.5003,-2.5003,-2.5003,-2.5003,-2.5014,-2.5031,-2.5031,-2.505,-2.507,-2.507,-2.5118,-1.6326,-1.621,0.0,-1.6977,-1.6772,-1.654,-1.7057,-1.6587,-1.611,-1.6299,-1.6338,-1.6331,-1.6277,-1.649,-1.6306,0.0,0.0,-1.437,0.0,-1.2357,-1.2392,-1.2799,-1.4339,-1.5493,-1.5811,-1.624,-1.6593,-1.6837,-1.6853,-1.6853,-1.6853,-1.6453,-1.5787,-1.4813,-1.4282,-1.3583,-1.2695,-1.1334,-1.0714,-1.0813,-0.9513,-0.9219,-0.9869,-1.1048,-1.1884,-1.2436,-1.3695,-1.4232,-1.4245,-1.4319,-1.4356,-1.4356,-1.4356,-1.4359,-1.4408,-1.486,-1.6093,-1.7729,-1.9119,-1.9599,-1.9592,-1.9541,-1.9526,-1.9519,-1.9466,-1.9459,-1.9437,-1.9352,-1.9329,-1.9314,-1.9217,-1.9152,-1.9128,-1.9128,-1.9027,-1.8932,-1.8932,-1.9863,-2.0787,-2.1054,-2.1968,-2.2634,-2.2443,-2.2204,-2.21,-2.2299,-2.189,-2.179,-2.2437,-2.2794,-2.2978,-2.2951,-2.3759,-2.4319,-2.4389,-2.4398,-2.4468,-2.4594,-2.4593,-2.465,-2.4783,-2.4783,-2.4822,-2.4892,-2.4892,-2.4929,-2.5003,-2.5003,-2.5003,-2.5003,-2.5003,-2.5047]},{"header":{"parameterUnit":"m.s-1","parameterCategory":1,"la1":30.6,"la2":29.2853,"lo1":-89.7004,"lo2":-87.6739,"dy":0.0162,"dx":0.0183,"nx":112,"ny":82,"refTime":"2024-07-15T12:00:00:Z","depth":0,"parameterNumber":3,"parameterNumberName":"V-component_of_WINDS"},"data":[0.0,0.0,0.0,0.0,0.0,0.0,0.0,0.0,0.0,0.0,0.0,0.0,0.0,0.0,0.0,0.0,0.0,0.0,0.0,0.0,0.0,0.0,0.0,0.0,0.0,0.0,0.0,0.0,0.0,0.0,0.0,0.0,0.0,0.0,0.0,0.0,0.0,0.0,0.0,0.0,0.0,0.0,0.0,0.0,0.0,0.0,0.0,0.0,0.0,0.0,0.0,0.0,0.0,0.0,0.0,0.0,0.0,0.0,0.0,0.0,0.0,0.0,0.0,0.0,0.0,0.0,0.0,0.0,0.0,0.0,0.0,0.0,0.0,0.0,0.0,0.0,0.0,0.0,0.0,0.0,0.0,0.0,0.0,0.0,0.0,0.0,0.0,0.0,0.0,0.0,-1.9037,-1.9037,-1.7865,-1.7095,-1.7108,-1.7228,-1.7293,-1.7314,0.0,0.0,0.0,0.0,0.0,0.0,0.0,0.0,0.0,0.0,0.0,0.0,0.0,0.0,0.0,0.0,0.0,0.0,0.0,0.0,0.0,0.0,0.0,0.0,0.0,0.0,0.0,0.0,0.0,0.0,0.0,0.0,0.0,0.0,0.0,0.0,0.0,0.0,0.0,0.0,0.0,0.0,0.0,0.0,0.0,0.0,0.0,0.0,0.0,0.0,0.0,0.0,0.0,0.0,0.0,0.0,0.0,0.0,0.0,0.0,0.0,0.0,0.0,0.0,0.0,0.0,0.0,0.0,0.0,0.0,0.0,0.0,0.0,0.0,0.0,0.0,0.0,0.0,0.0,0.0,0.0,0.0,0.0,0.0,0.0,0.0,0.0,0.0,0.0,0.0,0.0,0.0,0.0,0.0,0.0,0.0,0.0,0.0,0.0,0.0,0.0,0.0,0.0,0.0,-1.8265,-1.8265,-1.7565,-1.7116,-1.7174,-1.7253,-1.7326,-1.7379,0.0,0.0,0.0,0.0,0.0,0.0,0.0,0.0,0.0,0.0,0.0,0.0,0.0,0.0,0.0,0.0,0.0,0.0,0.0,0.0,0.0,0.0,0.0,0.0,0.0,0.0,0.0,0.0,0.0,0.0,0.0,0.0,0.0,0.0,0.0,0.0,0.0,0.0,0.0,0.0,0.0,0.0,0.0,0.0,0.0,0.0,0.0,0.0,0.0,0.0,0.0,0.0,0.0,0.0,0.0,0.0,0.0,0.0,0.0,0.0,0.0,0.0,0.0,0.0,0.0,0.0,0.0,0.0,0.0,0.0,0.0,0.0,0.0,0.0,0.0,0.0,0.0,0.0,0.0,0.0,0.0,0.0,0.0,0.0,0.0,0.0,0.0,0.0,0.0,0.0,0.0,0.0,0.0,0.0,0.0,0.0,0.0,0.0,0.0,0.0,0.0,0.0,0.0,-1.8399,-1.8083,-1.761,-1.7358,-1.7208,-1.7199,-1.7253,-1.7326,-1.7391,-1.7569,0.0,0.0,0.0,0.0,0.0,0.0,0.0,0.0,0.0,0.0,0.0,0.0,0.0,0.0,0.0,0.0,0.0,0.0,0.0,0.0,0.0,0.0,0.0,0.0,0.0,0.0,0.0,0.0,0.0,0.0,0.0,0.0,0.0,0.0,0.0,0.0,0.0,0.0,0.0,0.0,0.0,0.0,0.0,0.0,0.0,0.0,0.0,0.0,0.0,0.0,0.0,0.0,0.0,0.0,0.0,0.0,0.0,0.0,0.0,0.0,0.0,0.0,0.0,0.0,0.0,0.0,0.0,0.0,0.0,0.0,0.0,0.0,0.0,0.0,0.0,0.0,0.0,0.0,0.0,0.0,0.0,0.0,0.0,0.0,0.0,0.0,0.0,0.0,0.0,0.0,0.0,0.0,0.0,0.0,0.0,0.0,0.0,0.0,0.0,0.0,0.0,0.0,-1.8292,-1.8222,-1.7256,-1.7272,-1.7349,-1.7358,-1.7374,-1.7434,-1.7561,-1.7758,0.0,0.0,0.0,0.0,0.0,0.0,0.0,0.0,0.0,0.0,0.0,0.0,0.0,0.0,0.0,0.0,0.0,0.0,0.0,0.0,0.0,0.0,0.0,0.0,0.0,0.0,0.0,0.0,0.0,0.0,0.0,0.0,0.0,0.0,0.0,0.0,0.0,0.0,0.0,0.0,0.0,0.0,0.0,0.0,0.0,0.0,0.0,0.0,0.0,0.0,0.0,0.0,0.0,0.0,0.0,0.0,0.0,0.0,0.0,0.0,0.0,0.0,0.0,0.0,0.0,0.0,0.0,0.0,0.0,0.0,0.0,0.0,0.0,0.0,0.0,0.0,0.0,0.0,0.0,0.0,0.0,0.0,0.0,0.0,0.0,0.0,0.0,0.0,0.0,0.0,0.0,0.0,0.0,0.0,0.0,0.0,0.0,0.0,0.0,0.0,0.0,0.0,-1.8337,-1.8673,-1.742,-1.7412,-1.7575,-1.7828,-1.7741,-1.778,-1.8027,-1.8078,0.0,0.0,0.0,0.0,0.0,0.0,0.0,0.0,0.0,0.0,0.0,0.0,0.0,0.0,0.0,0.0,0.0,0.0,0.0,0.0,0.0,0.0,0.0,0.0,0.0,0.0,0.0,0.0,0.0,0.0,0.0,0.0,0.0,0.0,0.0,0.0,0.0,0.0,0.0,0.0,0.0,0.0,0.0,0.0,0.0,0.0,0.0,0.0,0.0,0.0,0.0,0.0,0.0,0.0,0.0,0.0,0.0,0.0,0.0,0.0,0.0,0.0,0.0,0.0,0.0,0.0,0.0,0.0,0.0,0.0,0.0,0.0,0.0,0.0,0.0,0.0,0.0,0.0,0.0,0.0,0.0,0.0,0.0,0.0,0.0,0.0,0.0,0.0,0.0,0.0,0.0,0.0,0.0,0.0,0.0,0.0,0.0,0.0,0.0,0.0,0.0,0.0,-1.8298,-1.8518,-1.8037,-1.7818,-1.7738,-1.7892,-1.7891,-1.795,-1.809,0.0,0.0,0.0,0.0,0.0,0.0,0.0,0.0,0.0,0.0,0.0,0.0,0.0,0.0,0.0,0.0,0.0,0.0,0.0,0.0,0.0,0.0,0.0,0.0,0.0,0.0,0.0,0.0,0.0,0.0,0.0,0.0,0.0,0.0,0.0,0.0,0.0,0.0,0.0,0.0,0.0,0.0,0.0,0.0,0.0,0.0,0.0,0.0,0.0,0.0,0.0,0.0,0.0,0.0,0.0,0.0,0.0,0.0,0.0,0.0,0.0,0.0,0.0,0.0,0.0,0.0,0.0,0.0,0.0,0.0,0.0,0.0,0.0,0.0,0.0,0.0,0.0,0.0,0.0,0.0,0.0,0.0,0.0,0.0,0.0,0.0,0.0,0.0,0.0,0.0,0.0,0.0,0.0,0.0,0.0,0.0,0.0,0.0,0.0,0.0,0.0,0.0,-1.8095,-1.8426,-1.8597,-1.8445,-1.8071,-1.7877,-1.8025,-1.8114,-1.821,-1.8322,0.0,0.0,0.0,0.0,0.0,0.0,0.0,0.0,0.0,0.0,0.0,0.0,0.0,0.0,0.0,0.0,0.0,0.0,0.0,0.0,0.0,0.0,0.0,0.0,0.0,0.0,0.0,0.0,0.0,0.0,0.0,0.0,0.0,0.0,0.0,0.0,0.0,0.0,0.0,0.0,0.0,0.0,0.0,0.0,0.0,0.0,0.0,0.0,0.0,0.0,0.0,0.0,0.0,0.0,0.0,0.0,0.0,0.0,0.0,0.0,0.0,0.0,0.0,0.0,0.0,0.0,0.0,0.0,0.0,0.0,0.0,0.0,0.0,0.0,0.0,0.0,0.0,0.0,0.0,0.0,0.0,0.0,0.0,0.0,0.0,0.0,0.0,0.0,0.0,0.0,0.0,0.0,0.0,0.0,0.0,0.0,0.0,0.0,0.0,0.0,0.0,0.0,-1.8095,-1.874,-1.9012,-1.8554,-1.8137,-1.801,-1.8271,-1.8427,-1.8591,0.0,0.0,0.0,0.0,0.0,0.0,0.0,0.0,0.0,0.0,0.0,0.0,0.0,0.0,0.0,0.0,0.0,0.0,0.0,0.0,0.0,0.0,0.0,0.0,0.0,0.0,0.0,0.0,0.0,0.0,0.0,0.0,0.0,0.0,0.0,0.0,0.0,0.0,0.0,0.0,0.0,0.0,0.0,0.0,0.0,0.0,0.0,0.0,0.0,0.0,0.0,0.0,0.0,0.0,0.0,0.0,0.0,0.0,0.0,0.0,0.0,0.0,0.0,0.0,0.0,0.0,0.0,0.0,0.0,0.0,0.0,0.0,0.0,0.0,0.0,0.0,0.0,0.0,0.0,0.0,0.0,0.0,0.0,0.0,0.0,0.0,0.0,0.0,0.0,0.0,0.0,0.0,0.0,0.0,0.0,0.0,0.0,0.0,0.0,0.0,0.0,0.0,0.0,-1.8038,-1.8294,-1.8495,-1.8688,-1.822,-1.8062,-1.8479,-1.8631,-1.8742,-1.8806,0.0,0.0,0.0,0.0,0.0,0.0,0.0,0.0,0.0,0.0,0.0,0.0,0.0,0.0,0.0,0.0,0.0,0.0,0.0,0.0,0.0,0.0,0.0,0.0,0.0,0.0,0.0,0.0,0.0,0.0,0.0,0.0,0.0,0.0,0.0,0.0,0.0,0.0,0.0,0.0,0.0,0.0,0.0,0.0,0.0,0.0,0.0,0.0,0.0,0.0,0.0,0.0,0.0,0.0,0.0,0.0,0.0,0.0,0.0,0.0,0.0,0.0,0.0,0.0,0.0,0.0,0.0,0.0,0.0,0.0,0.0,0.0,0.0,0.0,0.0,0.0,0.0,0.0,0.0,0.0,0.0,0.0,0.0,0.0,0.0,0.0,0.0,0.0,0.0,0.0,0.0,0.0,0.0,0.0,0.0,0.0,0.0,0.0,0.0,0.0,0.0,0.0,-1.7973,-1.8116,-1.8305,-1.8716,-1.8271,-1.8111,-1.8517,-1.8714,-1.8806,-1.8806,0.0,0.0,0.0,0.0,0.0,0.0,0.0,0.0,0.0,0.0,0.0,0.0,0.0,0.0,0.0,0.0,0.0,0.0,0.0,0.0,0.0,0.0,0.0,0.0,0.0,0.0,0.0,0.0,0.0,0.0,0.0,0.0,0.0,0.0,0.0,0.0,0.0,0.0,0.0,0.0,0.0,0.0,0.0,0.0,0.0,0.0,0.0,0.0,0.0,0.0,0.0,0.0,0.0,0.0,0.0,0.0,0.0,0.0,0.0,0.0,0.0,0.0,0.0,0.0,0.0,0.0,0.0,0.0,0.0,0.0,0.0,0.0,0.0,0.0,0.0,0.0,0.0,0.0,0.0,0.0,0.0,0.0,0.0,0.0,0.0,0.0,0.0,0.0,0.0,0.0,0.0,0.0,0.0,0.0,0.0,0.0,0.0,0.0,0.0,0.0,0.0,0.0,-1.7836,-1.8102,-1.8297,-1.8588,-1.8246,-1.8139,-1.8495,-1.8633,-1.8717,-1.8797,0.0,0.0,0.0,0.0,0.0,0.0,0.0,0.0,0.0,0.0,0.0,0.0,0.0,0.0,0.0,0.0,0.0,0.0,0.0,0.0,0.0,0.0,0.0,0.0,0.0,0.0,0.0,0.0,0.0,0.0,0.0,0.0,0.0,0.0,0.0,0.0,0.0,0.0,0.0,0.0,0.0,0.0,0.0,0.0,0.0,0.0,0.0,0.0,0.0,0.0,0.0,0.0,0.0,0.0,0.0,0.0,0.0,0.0,0.0,0.0,-1.7717,-1.7925,0.0,0.0,0.0,0.0,0.0,0.0,0.0,0.0,0.0,0.0,0.0,0.0,0.0,0.0,0.0,0.0,0.0,0.0,0.0,0.0,0.0,0.0,0.0,0.0,0.0,0.0,0.0,0.0,0.0,0.0,0.0,0.0,0.0,0.0,0.0,0.0,0.0,0.0,0.0,0.0,-1.7265,-1.7784,-1.8106,-1.8076,-1.7974,-1.8134,-1.8686,-1.82,-1.8128,-1.8761,-1.745,0.0,0.0,0.0,0.0,0.0,0.0,0.0,0.0,0.0,0.0,0.0,0.0,0.0,0.0,0.0,0.0,0.0,0.0,0.0,0.0,0.0,0.0,0.0,0.0,0.0,0.0,0.0,0.0,0.0,0.0,0.0,0.0,0.0,0.0,0.0,0.0,0.0,0.0,0.0,0.0,0.0,0.0,0.0,0.0,0.0,0.0,0.0,0.0,0.0,0.0,0.0,0.0,0.0,0.0,0.0,0.0,0.0,0.0,0.0,-1.8635,-1.9048,0.0,0.0,0.0,0.0,0.0,0.0,0.0,0.0,0.0,0.0,0.0,0.0,0.0,0.0,0.0,0.0,0.0,0.0,0.0,0.0,0.0,0.0,0.0,0.0,0.0,0.0,0.0,0.0,0.0,0.0,0.0,0.0,0.0,0.0,0.0,0.0,0.0,0.0,0.0,0.0,-1.7095,-1.779,-1.8191,-1.7927,-1.8018,-1.8274,-1.876,-1.8057,-1.778,-1.8199,-1.7075,0.0,0.0,0.0,0.0,0.0,0.0,0.0,0.0,0.0,0.0,0.0,0.0,0.0,0.0,0.0,0.0,0.0,0.0,0.0,0.0,0.0,0.0,0.0,0.0,0.0,0.0,0.0,0.0,0.0,0.0,0.0,0.0,0.0,0.0,0.0,0.0,0.0,0.0,0.0,0.0,0.0,0.0,0.0,0.0,0.0,0.0,0.0,0.0,0.0,0.0,0.0,0.0,0.0,-1.9159,-1.9004,-1.8281,-1.8544,-1.8589,-1.8516,-1.925,-1.9858,-2.024,-1.9502,0.0,0.0,0.0,0.0,0.0,0.0,0.0,0.0,0.0,0.0,0.0,0.0,0.0,0.0,0.0,0.0,0.0,0.0,0.0,0.0,0.0,0.0,-1.8451,-1.8327,-1.8589,-1.8936,-1.9143,0.0,0.0,0.0,0.0,0.0,0.0,0.0,0.0,0.0,0.0,0.0,-1.729,-1.8003,-1.8359,-1.7938,-1.8151,-1.8448,-1.8769,-1.7932,-1.745,-1.7592,-1.6727,-1.636,0.0,0.0,0.0,0.0,0.0,0.0,0.0,0.0,0.0,0.0,0.0,0.0,0.0,0.0,0.0,0.0,0.0,0.0,0.0,0.0,0.0,0.0,0.0,0.0,0.0,0.0,0.0,0.0,0.0,0.0,0.0,0.0,-1.1742,-1.2278,0.0,0.0,0.0,0.0,0.0,0.0,0.0,0.0,0.0,0.0,0.0,0.0,0.0,-1.7845,-1.8903,-1.9993,-2.0486,-2.0371,-2.1085,-2.0821,-1.9743,-2.0536,-2.0557,-2.0054,-2.0727,0.0,-2.024,-1.9502,0.0,0.0,0.0,0.0,0.0,0.0,0.0,0.0,0.0,0.0,0.0,0.0,0.0,0.0,0.0,0.0,0.0,0.0,0.0,0.0,0.0,0.0,-1.9843,-1.921,-1.9093,-1.9165,-1.9186,-1.9023,-1.8801,-1.8604,-1.8252,-1.8116,0.0,0.0,0.0,0.0,0.0,0.0,-1.8059,-1.8329,-1.8411,-1.7957,-1.8189,-1.8495,-1.8788,-1.7423,-1.6861,-1.7565,-1.6245,-1.6082,-1.7473,-1.6873,0.0,0.0,0.0,0.0,0.0,0.0,0.0,0.0,0.0,0.0,0.0,0.0,0.0,0.0,0.0,0.0,0.0,0.0,0.0,0.0,0.0,0.0,0.0,0.0,0.0,0.0,0.0,0.0,0.0,-1.1885,-1.2698,-1.2927,-1.3603,-1.3968,0.0,0.0,0.0,0.0,0.0,0.0,0.0,0.0,0.0,-1.8903,-1.9074,-1.9521,-2.0333,-2.0855,-2.0906,-2.0484,-2.1299,-2.1,-1.9752,-2.0743,-2.058,-1.9536,-1.9937,-2.0183,-2.0305,-2.0362,-2.0572,-2.0783,0.0,0.0,0.0,0.0,-2.0637,-2.1,-2.1,-2.1,-2.0814,-1.9698,0.0,0.0,0.0,0.0,0.0,0.0,0.0,-2.0313,-2.037,-2.0337,-2.0111,-1.9372,-1.9208,-1.9094,-1.8667,-1.8826,-1.9015,-1.9015,-1.9189,-1.9323,-1.9268,-1.8962,0.0,0.0,0.0,-1.9509,-1.8509,-1.8977,-1.9078,-1.8277,-1.8379,-1.8593,-1.8779,-1.7736,-1.7218,-1.7583,-1.6539,-1.6227,-1.6948,-1.699,-1.6896,0.0,0.0,0.0,0.0,0.0,0.0,0.0,0.0,0.0,0.0,0.0,0.0,0.0,0.0,0.0,0.0,0.0,0.0,0.0,0.0,0.0,0.0,0.0,0.0,0.0,0.0,0.0,0.0,-1.2649,-1.3442,-1.3297,-1.4315,-1.4938,0.0,0.0,0.0,0.0,0.0,0.0,-1.7548,-1.7452,-1.8218,-2.0092,-2.028,-2.0676,-2.1288,-2.1473,-2.1219,-2.0549,-2.1245,-2.0949,-1.9785,-2.0638,-2.0447,-1.9464,-1.962,-2.0016,-2.0573,-2.0905,-2.1147,-2.1253,-2.0743,-2.0856,-2.1301,-2.1301,-2.1657,-2.2118,-2.2118,-2.2118,-2.1948,-2.0904,-2.0443,-2.0232,-1.9858,0.0,0.0,0.0,0.0,-2.0606,-2.0828,-2.0523,-1.9912,-1.901,-1.8921,-1.8831,-1.8017,-1.8708,-1.9477,-1.9477,-1.9916,-2.0206,-1.9869,-1.9774,0.0,-1.9603,-2.0057,-1.9962,-1.8776,-1.9294,-1.942,-1.8495,-1.8554,-1.8687,-1.8788,-1.8057,-1.7601,-1.7601,-1.6843,-1.6487,-1.67,-1.7144,-1.7124,-1.6621,0.0,0.0,0.0,0.0,0.0,0.0,0.0,0.0,0.0,0.0,0.0,0.0,0.0,0.0,0.0,0.0,0.0,0.0,0.0,0.0,0.0,0.0,0.0,0.0,0.0,0.0,0.0,0.0,0.0,-1.2989,-1.4103,0.0,0.0,0.0,0.0,-1.6227,-1.7046,-1.7552,-1.7604,-1.8064,-1.8674,-1.9424,-2.0,-2.0631,-2.1288,-2.1935,-2.1912,-2.125,-2.1427,-2.1132,-2.0464,-2.0696,-2.0877,-2.0991,-2.0991,-2.1094,-2.1196,-2.0604,-2.0727,-2.1301,-2.1261,-2.1269,-2.1301,-2.1301,-2.1317,-2.1358,-2.1358,-2.1358,-2.1342,-2.1269,-2.0816,-2.0418,-2.101,-2.0758,0.0,0.0,-2.1245,-2.1013,-2.0036,-1.9759,-1.938,-1.8015,-1.8167,-1.8358,-1.7358,-1.8789,-2.024,-2.024,-2.0273,-2.0491,-2.1091,0.0,-2.1,-2.0425,-2.0375,-1.9984,-1.8843,-1.8955,-1.8949,-1.8453,-1.8629,-1.8788,-1.8806,-1.8057,-1.7601,-1.7601,-1.6843,-1.6736,-1.7503,-1.7391,-1.752,-1.799,-1.7156,0.0,0.0,0.0,0.0,0.0,0.0,0.0,0.0,0.0,0.0,0.0,0.0,0.0,0.0,0.0,0.0,0.0,0.0,0.0,0.0,0.0,0.0,0.0,0.0,0.0,0.0,0.0,0.0,-1.3935,-1.4426,0.0,-1.4895,-1.5387,-1.6039,-1.6881,-1.7223,-1.791,-1.9016,-1.8842,-1.9408,-2.0905,-2.1145,-2.1286,-2.1296,-2.1542,-2.1319,-2.0666,-2.0694,-2.0597,-2.039,-2.0527,-2.0645,-2.0728,-2.0998,-2.1127,-2.1159,-2.1011,-2.1358,-2.1965,-2.1487,-2.1584,-2.2013,-2.2013,-2.2013,-2.2013,-2.2013,-2.2013,-2.1932,-2.1447,-2.1139,-2.0986,-2.1228,-2.1123,-2.0986,-2.1228,-2.1301,-2.1205,-2.0822,-2.0576,-2.0162,-1.9176,-1.9137,-1.9073,-1.8257,-1.887,-1.9736,-2.0208,-2.0653,-2.1025,-2.1323,-2.1324,-2.1243,-2.1061,-2.1121,-2.078,-1.9748,-1.9762,-1.956,-1.8743,-1.8742,-1.8806,-1.8806,-1.8538,-1.8369,-1.8369,-1.7619,-1.7298,-1.7592,-1.7281,-1.7174,-1.7318,-1.7254,-1.6823,0.0,0.0,0.0,0.0,0.0,0.0,0.0,0.0,0.0,0.0,0.0,0.0,0.0,0.0,0.0,0.0,0.0,0.0,0.0,0.0,0.0,0.0,0.0,0.0,0.0,-1.3703,-1.4073,-1.4033,-1.4557,-1.4874,-1.4814,-1.5413,-1.6192,-1.7123,-1.7439,-1.8129,-1.9366,-1.9207,-1.9657,-2.095,-2.119,-2.1183,-2.0957,-2.0957,-2.0734,-2.0304,-2.0304,-2.0304,-2.0304,-2.0399,-2.046,-2.0503,-2.0778,-2.0974,-2.1119,-2.1199,-2.1552,-2.1981,-2.1487,-2.1592,-2.2029,-2.2029,-2.2029,-2.2029,-2.2029,-2.2029,-2.1948,-2.1455,-2.1301,-2.1301,-2.1301,-2.1301,-2.1301,-2.1301,-2.1301,-2.127,-2.1159,-2.0868,-2.0457,-1.9838,-1.979,-1.9664,-1.8958,-1.9392,-1.9996,-2.0248,-2.0669,-2.105,-2.1323,-2.1324,-2.1243,-2.1123,-2.1348,-2.1157,-2.0136,-2.0118,-1.9881,-1.9084,-1.8837,-1.8751,-1.8806,-1.8806,-1.8806,-1.8806,-1.8298,-1.8003,-1.8003,-1.76,-1.7346,-1.731,-1.7182,-1.6893,-1.6403,0.0,0.0,0.0,0.0,0.0,0.0,0.0,0.0,0.0,0.0,0.0,0.0,0.0,0.0,0.0,0.0,0.0,0.0,0.0,0.0,0.0,0.0,0.0,-1.216,-1.4535,-1.5474,-1.3222,-1.4435,-1.5238,-1.467,-1.5361,-1.6157,-1.6951,-1.7753,-1.8301,-1.8517,-1.9097,-1.942,-1.9439,-2.0008,-2.0304,-2.0304,-2.0304,-2.0304,-2.0304,-2.0304,-2.0304,-2.0304,-2.0304,-2.0382,-2.0494,-2.051,-2.0712,-2.1079,-2.1095,-2.1183,-2.1301,-2.1301,-2.1301,-2.1301,-2.1301,-2.1301,-2.1301,-2.1301,-2.1301,-2.1301,-2.1301,-2.1301,-2.1301,-2.1301,-2.1301,-2.1301,-2.1301,-2.1301,-2.1238,-2.0893,-2.0521,-2.0139,-1.9814,-1.998,-2.0031,-1.9383,-2.0337,-2.1107,-2.0467,-2.0337,-2.0548,-2.1188,-2.1301,-2.1129,-2.061,-2.1031,0.0,-1.9968,-1.9934,-1.9848,-1.9447,-1.8926,-1.8659,-1.8788,-1.8806,-1.8806,-1.8806,-1.8806,-1.8806,-1.8788,-1.8352,-1.809,-1.808,-1.7005,-1.642,-1.6403,0.0,0.0,0.0,0.0,0.0,0.0,0.0,0.0,0.0,0.0,0.0,0.0,0.0,0.0,0.0,0.0,0.0,0.0,0.0,0.0,0.0,-1.3303,-1.3897,-1.4454,-1.452,-1.4426,-1.4154,-1.457,-1.4944,-1.5225,-1.5845,-1.6547,-1.7317,-1.7926,-1.8463,-1.892,-1.9413,-1.9793,-2.0035,-2.0218,-2.0304,-2.0304,-2.0304,-2.0304,-2.0304,-2.0552,-2.0535,-2.0304,-2.0552,-2.0552,-2.0365,-2.046,-2.0561,-2.0695,-2.0982,-2.1111,-2.1159,-2.1254,-2.1301,-2.1301,-2.1301,-2.1301,-2.1301,-2.1301,-2.1301,-2.1301,-2.1301,-2.1301,-2.1301,-2.1301,-2.1301,-2.1301,-2.1301,-2.1301,-2.1285,-2.1191,-2.0901,-2.0615,-2.0517,-2.0562,-2.0577,-2.0393,-2.087,-2.1245,-2.1059,-2.1026,-2.1083,-2.1269,-2.134,-2.1329,-2.1172,-2.141,-2.1368,-2.0687,-2.0378,-2.0044,-1.9597,-1.9069,-1.8761,-1.8806,-1.8806,-1.8806,-1.8806,-1.8806,-1.8732,-1.8591,-1.8271,-1.7958,-1.7663,-1.7369,-1.6934,0.0,0.0,0.0,0.0,0.0,0.0,0.0,0.0,0.0,0.0,0.0,0.0,0.0,0.0,0.0,0.0,0.0,0.0,0.0,0.0,0.0,0.0,-1.384,-1.4462,-1.4992,-1.475,-1.4459,-1.4289,-1.4694,-1.5028,-1.5101,-1.5892,-1.6612,-1.713,-1.7652,-1.8201,-1.8702,-1.9229,-1.9631,-1.9912,-2.0166,-2.0304,-2.0304,-2.0304,-2.0304,-2.0304,-2.0501,-2.0484,-2.0304,-2.0501,-2.0484,-2.0304,-2.0382,-2.045,-2.0527,-2.0753,-2.0949,-2.1111,0.0,0.0,0.0,0.0,-2.1301,-2.1301,-2.1301,-2.1301,-2.1301,-2.1301,-2.1301,-2.1301,-2.1301,-2.1301,-2.1301,-2.1301,-2.1301,-2.1301,-2.1301,-2.1055,-2.0844,-2.0974,-2.0893,-2.0844,-2.0974,-2.1167,-2.1301,-2.1301,-2.1301,0.0,-2.1301,-2.1324,-2.1387,-2.1464,-2.1541,-2.1498,-2.1256,-2.0535,-2.0001,-1.9874,-1.9095,-1.8649,-1.8788,-1.8806,0.0,0.0,0.0,-1.8658,-1.8349,-1.8182,0.0,0.0,0.0,0.0,0.0,0.0,0.0,0.0,-1.8456,-1.906,0.0,0.0,0.0,0.0,0.0,0.0,0.0,0.0,0.0,0.0,0.0,0.0,0.0,0.0,0.0,0.0,-1.4027,-1.4391,-1.4422,-1.4932,-1.4918,-1.3929,-1.4812,-1.5284,-1.4742,-1.5781,-1.6566,-1.6744,-1.7243,-1.7747,-1.8156,-1.8791,0.0,0.0,0.0,-2.0304,-2.0304,-2.0304,-2.0304,-2.0304,-2.0339,-2.0339,-2.0304,-2.0339,-2.0339,-2.0304,-2.0304,-2.0373,-2.0477,-2.0494,-2.0745,-2.1111,-2.1254,-2.1301,-2.1301,-2.1301,-2.1301,-2.1301,-2.1301,0.0,0.0,-2.1301,-2.1301,-2.1301,-2.1301,-2.1301,-2.1301,-2.1301,-2.1301,-2.1301,-2.1301,-2.1071,-2.0925,-2.1238,-2.1071,-2.0942,-2.1238,-2.1301,-2.1301,-2.1301,-2.1301,-2.1301,-2.1301,-2.1317,-2.1364,-2.155,-2.1488,-2.1487,-2.1679,-2.0602,-1.9944,-2.0279,0.0,0.0,-1.8847,-1.8804,-1.876,-1.8769,-1.8742,-1.8571,-1.824,-1.81,-1.7909,-1.7623,-1.7611,-1.7611,-1.7611,-1.7776,-1.8493,-1.9714,-1.8977,-1.9407,0.0,0.0,0.0,0.0,0.0,0.0,0.0,0.0,0.0,0.0,0.0,0.0,0.0,0.0,0.0,-1.2914,-1.3294,-1.3627,-1.3902,-1.3948,-1.3931,-1.3814,-1.4812,-1.5447,-1.533,-1.6362,-1.7056,-1.7091,-1.7592,-1.7935,-1.8035,-1.8921,-1.9439,-1.9475,-2.001,-2.0304,-2.0304,-2.0304,-2.0304,-2.0304,-2.0561,0.0,-2.0304,-2.0586,-2.0569,-2.0304,-2.0304,-2.0304,-2.0356,-2.0467,-2.0745,-2.1111,-2.1254,-2.1301,-2.1301,-2.1301,-2.1301,-2.1301,-2.1301,-2.1301,-2.1301,-2.1301,-2.1301,-2.1301,-2.1301,-2.1301,0.0,-2.1301,-2.1301,-2.1301,-2.1301,-2.1254,-2.1214,-2.1277,-2.1254,-2.1214,-2.1285,-2.1301,-2.1301,-2.1301,-2.1301,-2.1301,-2.1301,-2.1332,-2.1386,-2.1425,-2.1503,-2.1581,-2.1612,-2.1013,-2.0698,-2.098,-1.9716,-1.8986,-1.9258,-1.8787,-1.8504,-1.8544,-1.8361,-1.8459,-1.8973,-1.8104,-1.7831,-1.829,-1.8307,-1.8307,-1.8307,-1.9508,-2.0221,-2.0478,-1.973,-2.0177,0.0,0.0,0.0,0.0,0.0,0.0,0.0,0.0,0.0,0.0,0.0,-1.0815,-1.1406,0.0,-1.2334,-1.2602,-1.2713,-1.2884,-1.3247,-1.3073,-1.3109,-1.3651,-1.4509,-1.516,-1.5467,-1.6284,-1.6905,-1.7179,-1.7455,-1.7632,-1.7734,-1.8389,-1.8838,-1.9035,-1.9475,-1.9808,-2.0048,-2.0048,-2.0125,-2.0304,-2.0467,-2.0467,-2.0304,-2.0467,-2.045,-2.0304,-2.0304,-2.0304,-2.0304,-2.0443,-2.0628,-2.0811,-2.0982,-2.1151,-2.1301,-2.1301,-2.1301,-2.1301,-2.1301,-2.1301,-2.1301,-2.1301,-2.1301,-2.1301,-2.1301,-2.1301,-2.1301,-2.1301,-2.1301,-2.1301,-2.1301,-2.1301,-2.1301,-2.1301,-2.1301,-2.1301,-2.1301,-2.1301,-2.1301,-2.1301,-2.1301,-2.1301,-2.1301,-2.1324,-2.1363,-2.1386,-2.1464,-2.1519,-2.1581,-2.1044,-2.0603,-2.0463,-1.9487,-1.8803,-1.8655,-1.8426,-1.8368,-1.8544,-1.8322,-1.8343,-1.864,-1.8352,-1.8293,-1.8497,-1.8856,-1.9047,-1.9047,-1.9788,-2.0332,-2.0693,-2.0315,-2.0737,0.0,0.0,0.0,0.0,0.0,0.0,0.0,-1.0146,-1.0232,-1.0566,-1.077,-1.1091,-1.1871,-1.1964,-1.1985,-1.2163,-1.2127,-1.2176,-1.2496,-1.2413,-1.2603,-1.3355,-1.4054,-1.4698,-1.5247,-1.5977,-1.6571,-1.7009,-1.714,-1.7275,-1.7434,-1.7794,-1.8147,-1.8468,-1.8886,-1.931,-1.9742,-1.9778,-1.997,-2.0304,-2.0304,-2.0304,-2.0304,-2.0304,-2.0304,-2.0304,-2.0304,-2.0304,-2.0304,-2.0416,-2.0484,-2.0527,-2.0678,-2.0934,-2.1206,-2.1254,-2.1285,-2.1301,-2.1301,-2.1301,-2.1301,-2.1301,-2.1301,-2.1301,-2.1301,-2.1301,-2.1301,-2.1301,-2.1301,-2.1301,-2.1301,-2.1301,-2.1301,-2.1301,-2.1301,-2.1301,-2.1301,-2.1301,-2.1301,-2.1301,-2.1301,-2.1301,-2.1301,-2.1301,-2.1324,-2.1379,-2.1371,-2.1418,-2.1535,-2.102,-2.0502,-2.0135,-1.9437,-1.8797,-1.8263,-1.8183,-1.8359,-1.886,-1.8574,-1.8459,-1.8638,-1.8877,-1.8993,-1.8927,-1.9507,-1.9813,-1.9813,-1.9962,-2.0326,-2.0909,-2.0909,-2.1232,-1.0356,-0.979,-0.9757,-1.0899,-1.0626,-1.0174,0.0,-1.0618,-1.0599,-1.0455,-1.0958,-1.1348,-1.1105,-1.1564,-1.1801,-1.118,-1.1351,-1.1595,-1.1632,-1.2264,-1.2762,-1.289,-1.3524,-1.4146,-1.4574,-1.571,-1.6415,-1.648,-1.6931,-1.722,-1.724,-1.7713,-1.8008,-1.8068,-1.8745,-1.9236,-1.9541,-1.9706,-1.997,-2.0304,-2.0304,-2.0304,-2.0304,-2.0304,-2.0304,-2.0304,-2.0304,-2.0304,-2.0304,-2.0329,-2.0399,-2.051,-2.052,-2.0662,-2.0876,-2.1063,-2.1206,-2.1301,-2.1301,-2.1301,-2.1301,-2.1301,-2.1301,-2.1301,-2.1301,-2.1301,-2.1301,-2.1301,-2.1301,-2.1301,-2.1301,-2.1301,-2.1301,-2.1301,-2.1301,-2.1301,-2.1301,-2.1301,-2.1301,-2.1301,-2.1301,-2.1301,-2.1301,-2.1301,-2.1293,-2.1309,-2.1309,-2.1317,-2.1333,-2.126,-2.1287,-2.1462,-2.0652,-1.9925,-1.9448,-1.8503,-1.8509,-1.9843,-1.9135,-1.924,-2.053,-1.9839,-1.9756,-2.0445,-2.0536,-2.0577,-2.0577,-2.1226,-2.1605,-2.168,-2.168,-2.1721,-1.1386,-1.0732,-1.0248,-1.1315,-1.1065,-1.0608,-1.078,-1.0822,-1.0785,-1.0717,-1.0938,-1.1093,-1.0938,-1.1152,-1.1258,-1.0955,-1.1042,-1.1234,-1.1466,-1.1619,-1.1864,-1.2347,-1.2481,-1.3077,-1.4373,-1.4774,-1.5344,-1.6323,-1.6604,-1.6865,-1.7179,-1.742,-1.7598,-1.7713,-1.8008,-1.8422,-1.8959,-1.9065,-1.9416,-2.0005,-2.0005,-2.0108,-2.0304,-2.0304,-2.0304,-2.0304,-2.0304,-2.0304,-2.0304,-2.0304,-2.0331,-2.0375,-2.0375,-2.0477,-2.0654,-2.0982,-2.1135,-2.1191,-2.127,-2.1301,-2.1301,-2.1301,-2.1301,-2.1301,-2.1301,-2.1301,-2.1301,-2.1301,-2.1301,-2.1301,-2.1301,-2.1301,-2.1301,-2.1301,-2.1301,-2.1301,-2.1301,-2.1301,-2.1301,-2.1301,-2.1301,-2.1301,-2.1301,-2.1301,-2.1301,-2.1301,-2.1301,-2.1301,-2.1301,-2.1301,-2.1194,-2.0918,-2.0152,-1.9634,-1.955,-1.9116,-1.9161,-1.9934,-1.9503,-1.9513,-2.0167,-2.0119,-2.0266,-2.0631,-2.1052,-2.1305,-2.134,-2.1655,-2.1804,-2.1797,-2.1594,-2.151,-1.1971,-1.1336,-1.0626,-1.1695,-1.141,-1.0903,-1.0992,-1.0957,-1.0905,-1.0905,-1.0905,-1.0905,-1.0905,-1.0905,-1.0905,-1.0905,-1.0905,-1.0995,-1.1284,-1.1188,-1.1276,-1.1871,-1.1713,-1.2237,-1.3895,-1.395,-1.4462,-1.5853,-1.6231,-1.6624,-1.7173,-1.7199,-1.7275,-1.742,-1.7475,-1.7794,-1.8429,-1.8546,-1.8933,-1.9606,-1.9742,-1.9927,-2.0168,-2.0262,-2.0304,-2.0304,-2.0304,-2.0304,-2.0304,-2.0304,-2.0304,-2.0304,-2.0304,-2.0365,-2.0477,-2.0811,-2.0974,-2.1047,-2.1191,-2.123,-2.1254,-2.1285,-2.1301,-2.1301,-2.1301,-2.1301,-2.1301,-2.1301,-2.1301,-2.1301,-2.1301,-2.1301,-2.1301,-2.1301,-2.1301,-2.1301,-2.1301,-2.1301,-2.1301,-2.1301,-2.1301,-2.1301,-2.1301,-2.1301,-2.1301,-2.1301,-2.1301,-2.1301,-2.1301,-2.1139,-2.0905,-2.0605,-1.9796,-1.9477,-1.9956,-1.969,-1.9726,-2.0253,-1.9979,-1.9913,-2.0166,-2.0541,-2.0787,-2.0866,-2.1408,-2.1694,-2.1738,-2.1759,-2.1768,-2.1768,-2.1541,-2.134,-1.141,-1.0898,-1.0404,-1.199,-1.1593,-1.0894,-1.1206,-1.1083,-1.0905,-1.0905,-1.0905,-1.0905,-1.0905,-1.0905,-1.0905,-1.0905,-1.0905,-1.0905,-1.0924,-1.1234,-1.1497,-1.1516,-1.151,-1.1871,-1.2854,-1.3538,-1.4156,-1.4795,-1.5808,-1.6624,-1.7173,-1.7199,-1.7199,-1.722,-1.7399,-1.7673,-1.8008,-1.841,-1.8784,-1.912,-1.958,-1.9806,-1.9831,-2.015,-2.0304,-2.0304,-2.0304,-2.0304,-2.0304,-2.0304,-2.0304,-2.0304,-2.0304,-2.0304,-2.0321,-2.046,-2.0645,-2.0844,-2.1047,-2.1119,-2.1127,-2.1254,-2.1301,-2.1301,-2.1301,-2.1301,-2.1301,-2.1301,-2.1301,-2.1301,-2.1301,-2.1301,-2.1301,-2.1301,-2.1301,-2.1301,-2.1301,-2.1301,-2.1301,-2.1301,-2.1301,-2.1301,-2.1301,-2.1301,-2.1301,-2.1301,-2.1301,-2.1301,-2.1301,-2.0727,-2.058,-2.1196,-2.019,-1.9978,-2.1154,-2.0164,-2.0002,-2.1171,-2.0644,-2.0601,-2.1328,-2.1353,-2.1424,-2.1572,-2.1588,-2.1596,-2.1604,-2.1664,-2.1701,-2.1701,-2.1753,-2.1433,-1.0561,-1.0627,-1.0596,-1.1714,-1.1723,-1.1495,-1.1606,-1.1558,-1.1421,-1.1153,-1.1102,-1.1031,-1.0746,-1.0694,-1.0727,-1.0813,-1.0827,-1.0852,-1.0886,-1.1028,-1.1093,-1.1093,-1.1371,-1.1692,-1.2005,-1.2516,-1.3406,-1.4772,-1.5452,-1.6111,-1.6818,-1.7067,-1.7199,-1.7199,-1.7275,-1.742,-1.7673,-1.7794,-1.8108,-1.8565,-1.8912,-1.9073,-1.9073,-1.9369,-1.961,-1.9764,-1.9726,-1.979,-1.9945,-1.978,-1.9697,-1.9697,-1.9697,-1.9815,-1.9962,-2.0015,-2.0222,-2.0535,-2.0949,-2.1159,-2.1238,-2.1285,-2.1301,-2.1301,-2.1301,-2.1301,-2.1301,-2.1301,-2.1301,-2.1301,-2.1301,-2.1301,-2.1301,-2.1301,-2.1301,-2.1301,-2.1301,-2.1301,-2.1301,-2.1301,-2.1301,-2.1301,-2.1301,-2.1301,-2.1301,-2.1301,-2.1301,-2.1301,-2.1301,-2.1099,-2.1042,-2.1277,-2.0934,-2.086,-2.1276,-2.0926,-2.0868,-2.1269,-2.1083,-2.1074,-2.1308,-2.1332,-2.1371,-2.1464,-2.1464,-2.1503,-2.1604,-2.1627,-2.1619,-2.1627,-2.115,-2.0812,-1.0023,-1.0432,-1.0791,-1.1627,-1.1829,-1.1829,-1.192,-1.1866,-1.1719,-1.1479,-1.1306,-1.1124,-1.0864,-1.0697,-1.0626,-1.0717,-1.0727,-1.0765,-1.0852,-1.0857,-1.0938,-1.1137,-1.1426,-1.1721,-1.2021,-1.234,-1.3058,-1.4414,-1.4926,-1.5588,-1.6508,-1.6752,-1.6976,-1.7199,-1.7199,-1.7261,-1.7399,-1.7455,-1.7774,-1.8305,-1.8459,-1.8607,-1.8715,-1.8876,-1.9098,-1.9339,-1.9306,-1.9435,-1.9649,-1.9479,-1.9402,-1.9402,-1.9402,-1.9508,-1.9667,-1.9667,-1.9907,-2.0296,-2.0728,-2.099,-2.1135,-2.1206,-2.1254,-2.1301,-2.1301,-2.1301,-2.1301,-2.1301,-2.1301,-2.1301,-2.1301,-2.1301,-2.1301,-2.1301,-2.1301,-2.1301,-2.1301,-2.1301,-2.1301,-2.1301,-2.1301,-2.1301,-2.1301,-2.1301,-2.1301,-2.1301,-2.1301,-2.1301,-2.1301,-2.1083,-2.1026,-2.1269,-2.1083,-2.1034,-2.1285,-2.1301,-2.1301,-2.1301,-2.1301,-2.1301,-2.1301,-2.1301,-2.1324,-2.1355,-2.1254,-2.1293,-2.1481,-2.1246,-2.1214,-2.1348,-2.0771,-2.0422,-0.972,-1.0256,-1.0911,-1.1603,-1.1754,-1.1808,-1.208,-1.197,-1.1792,-1.1774,-1.1479,-1.1199,-1.1161,-1.0845,-1.0587,-1.0613,-1.0617,-1.0645,-1.0796,-1.0794,-1.0987,-1.152,-1.1612,-1.1949,-1.2817,-1.292,-1.3168,-1.374,-1.4301,-1.5082,-1.6179,-1.6269,-1.6561,-1.7136,-1.7171,-1.7199,-1.7199,-1.7399,-1.7734,-1.8246,-1.8246,-1.8369,-1.8612,-1.8631,-1.8793,-1.9045,-1.9045,-1.9157,-1.9358,-1.9339,-1.9339,-1.9358,-1.9358,-1.9358,-1.9376,-1.9376,-1.9672,-2.0118,-2.0384,-2.0604,-2.0827,-2.1023,-2.1175,-2.127,-2.127,-2.1285,-2.1285,-2.1285,-2.1301,-2.1301,-2.1301,-2.1301,-2.1301,-2.1301,-2.1301,-2.1301,-2.1301,-2.1301,-2.1301,-2.1301,-2.1301,-2.1301,-2.1301,-2.1301,-2.1301,-2.1301,-2.1301,-2.1301,-2.1301,-2.0735,-2.0581,-2.1228,-2.0727,-2.0605,-2.1245,-2.1301,-2.1301,-2.1301,-2.1301,-2.1301,-2.1301,-2.1301,-2.1301,-2.127,-2.0958,-2.0958,-2.1246,-2.0607,-2.0491,-2.0861,-2.0589,-2.0254,-0.861,-0.9147,-0.9798,-0.9998,-1.0473,-1.1008,-1.1364,-1.1672,-1.1781,-1.1481,-1.1436,-1.1231,-1.0635,-1.0453,-1.0498,-1.09,-1.0676,-1.0591,-1.104,-1.0847,-1.0841,-1.1388,-1.1762,-1.2215,-1.2848,-1.3214,-1.3481,-1.3634,-1.4189,-1.4744,-1.5226,-1.592,-1.6361,-1.6512,-1.6976,-1.7199,-1.7199,-1.7261,-1.7358,-1.7475,-1.7475,-1.7509,-1.7585,-1.7747,-1.7981,-1.8273,-1.8241,-1.8431,-1.8791,-1.8593,-1.8581,-1.8723,-1.8723,-1.8843,-1.9019,-1.9019,-1.9395,-1.9884,-1.9955,-2.0351,-2.0811,-2.086,-2.0893,-2.0925,-2.0925,-2.1023,-2.1159,-2.1159,-2.1222,-2.1301,-2.1301,-2.1301,-2.1301,-2.1301,-2.1301,-2.1301,-2.1301,-2.1301,-2.1301,-2.1301,-2.1301,-2.1301,-2.1301,-2.1301,-2.1301,-2.1301,-2.1301,-2.1301,-2.1301,-2.1147,-2.1107,-2.1285,-2.1147,-2.1107,-2.1285,-2.1301,-2.1301,-2.1301,-2.1301,-2.1301,-2.1301,-2.1301,-2.1183,-2.0934,-2.0844,-2.0696,-2.0481,-2.0311,-2.0277,-2.0362,-2.005,-1.9846,-0.8387,-0.8787,-0.9312,-0.9312,-0.9829,-1.0446,-1.0832,-1.1284,-1.1523,-1.13,-1.1207,-1.1005,-1.0558,-1.0375,-1.04,-1.0701,-1.0528,-1.0538,-1.1069,-1.0632,-1.0587,-1.1515,-1.169,-1.202,-1.27,-1.3224,-1.3515,-1.3515,-1.3878,-1.4288,-1.4703,-1.5214,-1.5682,-1.6073,-1.6404,-1.6631,-1.6763,-1.6757,-1.6835,-1.6983,-1.6983,-1.7067,-1.7199,-1.7317,-1.7516,-1.7774,-1.7733,-1.7935,-1.8274,-1.8129,-1.8123,-1.8262,-1.8341,-1.8464,-1.8606,-1.8683,-1.9004,-1.9416,-1.9416,-1.9749,-2.0247,-2.0553,-2.0728,-2.0794,-2.0794,-2.0876,-2.0966,-2.0966,-2.1023,-2.1103,-2.1191,-2.1159,-2.1103,-2.1191,-2.1135,-2.1103,-2.1191,-2.1206,-2.1222,-2.1285,-2.1301,-2.1301,-2.1301,-2.1301,-2.1301,-2.1301,-2.1301,-2.1301,-2.1301,-2.1301,-2.1301,-2.1301,-2.1301,-2.1301,-2.1301,-2.1301,-2.1301,-2.1301,-2.1301,-2.1301,-2.1301,-2.1159,-2.099,-2.0803,-2.0478,-2.0283,-2.0191,-1.9884,-1.9821,-1.9962,-1.9603,-1.9435,-0.8426,-0.8634,-0.8931,-0.8931,-0.933,-0.9808,-1.0225,-1.0635,-1.0921,-1.0928,-1.0753,-1.0557,-1.0461,-1.0346,-1.0278,-1.0273,-1.0298,-1.0489,-1.0995,-1.0353,-1.0331,-1.161,-1.1442,-1.157,-1.2398,-1.2944,-1.3241,-1.3209,-1.338,-1.375,-1.4342,-1.4457,-1.4858,-1.562,-1.5642,-1.5763,-1.6055,-1.6083,-1.6287,-1.6637,-1.6637,-1.6808,-1.713,-1.713,-1.7255,-1.7455,-1.7455,-1.7618,-1.7855,-1.7855,-1.7875,-1.7922,-1.8083,-1.8183,-1.8222,-1.84,-1.8659,-1.8905,-1.8905,-1.912,-1.9505,-2.015,-2.0503,-2.067,-2.067,-2.0704,-2.0761,-2.0761,-2.0778,-2.0844,-2.1006,-2.0933,-2.0844,-2.1014,-2.0933,-2.0851,-2.1023,-2.1063,-2.1087,-2.1206,-2.123,-2.123,-2.123,-2.123,-2.123,-2.123,-2.123,-2.123,-2.127,-2.1285,-2.1301,-2.1301,-2.1301,-2.1301,-2.1301,-2.1301,-2.1301,-2.1301,-2.1254,-2.123,-2.123,-2.0901,-2.0704,-2.0654,-2.0038,-1.9818,-2.0052,-1.9413,-1.928,-1.961,-1.9262,-1.9101,-0.7533,-0.7482,-0.7553,-0.7553,-0.7859,-0.8288,-0.8682,-0.9176,-0.9535,-0.9468,-0.9777,-0.9845,-0.9171,-0.9637,-1.0134,-1.0134,-1.0219,-1.0427,-1.0806,-1.038,-1.0271,-1.0918,-1.0923,-1.1121,-1.1728,-1.2249,-1.2474,-1.2249,-1.2685,-1.3171,-1.3726,-1.4236,-1.4609,-1.4878,-1.4724,-1.4855,-1.528,-1.5466,-1.579,-1.6297,-1.6297,-1.6457,-1.6786,-1.6786,-1.6955,-1.7261,-1.7261,-1.7379,-1.7564,-1.7564,-1.77,-1.7902,-1.7942,-1.8043,-1.8202,-1.8242,-1.8535,-1.8905,-1.8905,-1.912,-1.9413,-1.956,-1.9764,-1.9965,-1.9965,-2.0241,-2.0553,-2.0553,-2.0678,-2.0811,-2.0844,-2.0835,-2.0811,-2.0844,-2.0835,-2.0811,-2.0844,-2.0844,-2.086,-2.0876,-2.0893,-2.0893,-2.0893,-2.0893,-2.0893,-2.0893,-2.0893,-2.0949,-2.1111,-2.1238,-2.1301,-2.1301,-2.1301,-2.1301,-2.1301,-2.1301,-2.1301,-2.1301,-2.1039,-2.0893,-2.0893,-2.0513,-2.0164,-1.9897,-1.978,-1.9566,-1.9291,-1.915,-1.9139,-1.9206,-1.9139,-1.9101,-0.7243,-0.7145,-0.7145,-0.7145,-0.7376,-0.7639,-0.7841,-0.822,-0.8507,-0.848,-0.8645,-0.8694,-0.8305,-0.8452,-0.8724,-0.8977,-0.91,-0.9436,-1.0277,-0.9834,-0.9745,-1.0602,-1.0513,-1.0557,-1.103,-1.1809,-1.2185,-1.1911,-1.245,-1.2847,-1.2912,-1.3299,-1.3647,-1.3959,-1.4157,-1.4448,-1.4894,-1.5124,-1.5457,-1.5897,-1.5897,-1.6088,-1.6457,-1.6616,-1.6786,-1.6955,-1.713,-1.7261,-1.7337,-1.7337,-1.7427,-1.7543,-1.7659,-1.776,-1.7855,-1.7989,-1.8248,-1.8535,-1.8535,-1.8709,-1.8927,-1.8927,-1.9328,-1.9806,-1.9806,-2.0075,-2.0399,-2.0399,-2.0467,-2.0569,-2.0636,-2.0595,-2.0569,-2.0628,-2.0645,-2.0645,-2.0645,-2.0728,-2.0794,-2.0794,-2.0794,-2.0794,-2.0794,-2.0794,-2.0794,-2.0794,-2.0794,-2.0819,-2.0925,-2.1006,-2.1103,-2.1285,-2.1301,-2.1301,-2.1301,-2.1301,-2.1238,-2.1055,-2.0893,-2.0687,-2.0452,-2.005,-1.9742,-1.9548,-1.9406,-1.9228,-1.9048,-1.909,-1.9101,-1.9101,-1.9101,-1.9101,-0.7152,-0.7095,-0.7117,-0.7213,-0.7246,-0.7302,-0.7442,-0.7476,-0.7509,-0.7555,-0.7522,-0.7446,-0.7363,-0.7307,-0.7342,-0.7629,-0.791,-0.8443,-0.9524,-0.92,-0.9247,-1.0265,-1.0103,-1.0037,-1.0356,-1.1239,-1.1676,-1.1338,-1.1808,-1.2204,-1.2431,-1.2509,-1.2748,-1.3197,-1.357,-1.3972,-1.4404,-1.4722,-1.5038,-1.5412,-1.5463,-1.5691,-1.6078,-1.6337,-1.6539,-1.6716,-1.6983,-1.713,-1.7199,-1.7199,-1.7199,-1.722,-1.7379,-1.7455,-1.7523,-1.7747,-1.7956,-1.8143,-1.8143,-1.8242,-1.838,-1.842,-1.9019,-1.9714,-1.9714,-1.9995,-2.0304,-2.0304,-2.0304,-2.0314,-2.0433,-2.0382,-2.0321,-2.0426,-2.046,-2.046,-2.046,-2.0578,-2.0695,-2.0695,-2.0695,-2.0695,-2.0695,-2.0695,-2.0695,-2.0695,-2.0695,-2.0712,-2.0728,-2.0728,-2.0852,-2.1159,-2.1183,-2.1183,-2.1183,-2.1135,-2.0998,-2.0737,-2.0579,-2.0351,-1.9977,-1.9584,-1.9339,-1.9277,-1.9052,-1.8967,-1.8967,-1.9014,-1.9045,-1.9019,-1.8929,-1.8891,-0.7002,-0.7056,-0.7195,-0.7562,-0.7249,-0.7005,-0.754,-0.6888,-0.6225,-0.64,-0.6446,-0.6328,-0.5966,-0.6561,-0.7016,-0.67,-0.7401,-0.8156,-0.8577,-0.889,-0.9223,-0.9643,-0.9647,-0.9647,-0.9695,-1.0218,-1.0322,-0.9756,-0.9831,-1.0757,-1.2731,-1.2526,-1.251,-1.2912,-1.2817,-1.2957,-1.3411,-1.3873,-1.4322,-1.4794,-1.504,-1.5322,-1.5657,-1.5702,-1.607,-1.6695,-1.6738,-1.692,-1.7199,-1.7199,-1.7199,-1.7199,-1.722,-1.7337,-1.7496,-1.7523,-1.77,-1.7922,-1.7922,-1.7942,-1.7983,-1.8163,-1.8786,-1.945,-1.945,-1.9841,-2.0304,-2.0304,-2.0304,-2.0304,-2.0329,-2.0304,-2.0304,-2.0329,-2.0321,-2.0321,-2.0321,-2.0331,-2.0339,-2.0339,-2.0339,-2.0339,-2.0339,-2.0339,-2.0339,-2.0339,-2.0339,-2.0382,-2.051,-2.0527,-2.0604,-2.0827,-2.0851,-2.0851,-2.0851,-2.0629,-2.0478,-2.0444,-1.9927,-1.957,-1.9479,-1.9183,-1.8991,-1.886,-1.8822,-1.8829,-1.8829,-1.8822,-1.8822,-1.8822,-1.8394,-1.8185,-0.6565,-0.6885,-0.7157,-0.6921,-0.6641,-0.6452,-0.6537,-0.5961,-0.5449,-0.5615,-0.5566,-0.5473,-0.5308,-0.5362,-0.5462,-0.558,-0.596,-0.6474,-0.7084,-0.7776,-0.8256,-0.8428,-0.8842,-0.9145,-0.9234,-0.9721,-1.007,-1.0157,-0.9812,-1.0271,-1.1792,-1.168,-1.1899,-1.2584,-1.2873,-1.326,-1.3733,-1.4072,-1.4393,-1.4702,-1.4817,-1.5017,-1.5311,-1.5501,-1.5762,-1.6042,-1.63,-1.6586,-1.6892,-1.6892,-1.7025,-1.7199,-1.7199,-1.7261,-1.7317,-1.7317,-1.7461,-1.7652,-1.7652,-1.776,-1.7956,-1.8281,-1.8707,-1.9135,-1.9332,-1.9823,-2.0304,-2.0304,-2.0304,-2.0304,-2.0304,-2.0304,-2.0304,-2.0304,-2.0304,-2.0304,-2.0304,-2.0304,-2.0304,-2.0304,-2.0304,-2.0304,-2.0304,-2.0304,-2.0304,-2.0304,-2.0304,-2.0321,-2.0365,-2.0204,-2.012,-2.0181,-2.0562,-2.0737,-2.0562,-2.0461,-2.0231,-1.9813,-1.957,-1.931,-1.8995,-1.8884,-1.875,-1.862,-1.8417,-1.8331,-1.8331,-1.8114,-1.802,-1.8001,-1.7834,-1.7747,-0.5745,-0.6229,-0.6633,-0.6321,-0.5985,-0.5736,-0.5781,-0.5234,-0.4751,-0.4922,-0.4881,-0.4792,-0.4792,-0.4423,-0.4226,0.0,-0.477,-0.5169,-0.5931,-0.6777,-0.7455,-0.7863,-0.8388,-0.8807,-0.8923,-0.922,-0.9557,-0.9927,-0.9615,-0.9785,-1.0628,-1.0901,-1.1472,-1.2396,-1.295,-1.3359,-1.3687,-1.4098,-1.4355,-1.45,-1.4564,-1.4743,-1.4994,-1.5238,-1.5434,-1.5613,-1.5891,-1.6219,-1.6558,-1.6652,-1.685,-1.7067,-1.7157,-1.7199,-1.7199,-1.7199,-1.7296,-1.742,-1.742,-1.7611,-1.7929,-1.8286,-1.8667,-1.905,-1.9336,-1.9815,-2.0245,-2.0287,-2.0304,-2.0304,-2.0304,-2.0304,-2.0304,-2.0304,-2.0304,-2.0304,-2.0304,-2.0304,-2.0304,-2.0304,-2.0304,-2.0304,-2.0304,-2.0304,-2.0304,-2.0304,-2.0304,-2.0304,-2.0304,-2.0005,-1.9806,-1.9806,-2.0154,-2.0315,-2.0118,-2.0005,-1.976,-1.9277,-1.921,-1.9019,-1.8653,-1.8549,-1.8425,-1.8307,-1.7942,-1.7754,-1.7754,-1.7537,-1.7401,-1.7401,-1.7277,-1.7126,-0.4506,-0.4907,-0.5455,-0.5964,-0.5346,-0.4834,-0.5619,-0.4877,-0.4084,-0.4349,-0.4351,-0.4318,-0.4318,-0.3985,-0.3699,-0.3721,-0.4111,-0.4651,-0.5321,-0.6111,-0.7056,-0.8242,-0.8524,-0.8649,-0.8778,-0.8626,-0.8497,-0.8435,-0.8788,-0.9117,-0.9398,-1.0354,-1.1388,-1.2461,-1.2827,-1.3011,-1.3011,-1.3663,-1.3997,-1.4015,-1.4291,-1.4518,-1.4702,-1.4702,-1.504,-1.5591,-1.5591,-1.5818,-1.6237,-1.6558,-1.6695,-1.6738,-1.7067,-1.7199,-1.7199,-1.7199,-1.7199,-1.7199,-1.7199,-1.7475,-1.7841,-1.8109,-1.8642,-1.9225,-1.9442,-1.9775,-2.0125,-2.0262,-2.0304,-2.0304,-2.0304,-2.0304,-2.0304,-2.0304,-2.0304,-2.0304,-2.0304,-2.0304,-2.0304,-2.0304,-2.0304,-2.0304,-2.0304,-2.0304,-2.0304,-2.0304,-2.0304,-2.0304,-2.0304,-2.0005,-1.9806,-1.9806,-1.9574,-1.9413,-1.942,-1.9101,-1.8917,-1.8905,-1.8774,-1.8653,-1.8517,-1.8188,-1.7935,-1.7814,-1.742,-1.722,-1.722,-1.7192,-1.7199,-1.7199,-1.6729,-1.6256,-0.3483,-0.4034,-0.4507,-0.4364,-0.4184,-0.4109,-0.4324,-0.3779,-0.3317,-0.3532,-0.3565,-0.3546,-0.3546,-0.3434,-0.3377,-0.343,-0.3558,0.0,-0.4441,-0.5201,-0.5898,-0.635,-0.7186,-0.7797,-0.8037,-0.8111,-0.8222,-0.8398,-0.8565,-0.8878,-0.9382,-0.9918,-1.0699,-1.1789,-1.2589,-1.2991,-1.2991,-1.3491,-1.3821,-1.3997,-1.4091,-1.4267,-1.4494,-1.4494,-1.4674,-1.4989,-1.4989,-1.5283,-1.5818,-1.6197,-1.65,-1.6738,-1.7067,-1.7199,-1.7199,-1.7199,-1.7199,-1.7199,-1.7199,-1.7275,-1.7455,-1.7808,-1.8068,-1.833,-1.8743,-1.9413,-2.0043,-2.0086,-2.0078,-2.0078,-2.0078,-2.0131,-2.015,-2.0121,-2.02,-2.027,-2.0185,-2.0245,-2.0304,-2.0304,-2.0304,-2.0304,-2.0304,-2.0304,-2.0304,-2.0304,-2.0304,-2.0304,-2.0304,-1.9851,-1.9527,-1.9527,-1.909,-1.887,-1.9045,-1.8962,-1.8688,-1.8187,-1.8101,-1.7949,-1.7632,-1.7502,-1.7434,-1.7399,-1.6941,-1.6729,-1.6729,-1.6392,-1.6241,-1.6241,-1.6088,-1.5941,-0.1961,-0.2553,-0.2956,-0.2699,-0.266,-0.2747,-0.2942,-0.2715,-0.2583,-0.2945,-0.3087,-0.3175,-0.3205,-0.3105,-0.3021,-0.3076,-0.3067,-0.3288,-0.3857,-0.4518,-0.5148,-0.576,-0.6556,-0.7182,-0.7506,-0.757,-0.7661,-0.7814,-0.8277,-0.866,-0.8924,-0.9568,-1.0353,-1.1242,-1.2163,-1.274,-1.2991,-1.3391,-1.3692,-1.3844,-1.3844,-1.3986,-1.4244,-1.4244,-1.4361,-1.4587,-1.4679,-1.5011,0.0,-1.6007,-1.6399,-1.6738,-1.7067,-1.7199,-1.7199,-1.7199,-1.7199,-1.7199,-1.7199,-1.7296,-1.7475,-1.7713,-1.7915,-1.8147,-1.8642,-1.9135,-1.9504,-1.9504,-1.9646,-1.9762,-1.9762,-1.9922,-2.0053,-2.0015,-2.0103,-2.0166,-2.0088,-2.0131,-2.0191,-2.0191,-2.0191,-2.0148,-1.9993,-2.0088,-2.0148,-1.9985,-2.0088,-2.0131,-1.9985,-1.953,-1.9143,-1.9,-1.8555,-1.8347,-1.8509,-1.8495,-1.8285,-1.7834,-1.7652,-1.7455,-1.722,-1.7031,-1.6947,-1.6947,-1.6472,-1.6247,-1.6247,-1.5941,-1.5703,-1.5541,-1.5541,-1.5424,0.0,-0.0642,-0.1038,-0.1131,-0.1001,-0.1025,-0.1584,-0.173,0.0,-0.2441,-0.2748,-0.2956,-0.3058,-0.2818,-0.2621,-0.2674,-0.2675,-0.2909,-0.3553,-0.4021,-0.4768,-0.615,-0.6406,-0.6671,-0.7157,-0.7002,-0.6868,-0.6926,-0.7908,-0.8442,-0.8282,-0.9317,-1.0231,-1.0867,-1.1534,-1.2242,-1.2967,-1.3391,-1.3592,-1.3592,-1.3592,-1.3739,-1.3968,-1.3968,-1.4132,-1.4373,-1.4564,-1.4875,-1.5288,-1.5891,-1.6355,-1.6674,-1.7046,-1.7199,-1.7199,-1.7199,-1.7199,-1.7199,-1.7199,-1.7434,-1.7754,-1.7754,-1.8068,-1.8526,-1.8886,-1.8884,-1.8734,-1.8753,-1.9088,-1.9424,-1.9424,-1.97,-1.998,-1.998,-1.998,-2.0005,-1.998,-1.998,-1.998,-1.9962,-1.9962,-1.9823,-1.9424,-1.9664,-1.978,-1.9406,-1.9664,-1.9762,-1.9406,-1.9069,-1.871,-1.8344,-1.8062,-1.7882,-1.7855,-1.7808,-1.7747,-1.7727,-1.7352,-1.7109,-1.7067,-1.6665,-1.6429,-1.6429,-1.5985,-1.5748,-1.5748,-1.5697,-1.5468,-1.504,-1.504,-1.4777,0.0979,0.0,-0.0368,-0.055,-0.0555,-0.0603,0.0,-0.0954,-0.0994,-0.1138,-0.1219,-0.1369,-0.1764,-0.1768,-0.1855,-0.2308,-0.239,-0.2597,-0.317,-0.3679,-0.4358,-0.5286,-0.5352,-0.5556,-0.6241,-0.633,-0.6583,-0.7095,-0.7514,-0.811,-0.8921,-0.9143,-0.9673,-1.0652,-1.0842,-1.155,-1.2822,-1.3353,-1.3592,-1.3592,-1.3592,-1.3639,-1.3692,-1.3692,-1.3839,-1.4109,-1.4132,-1.4332,-1.4668,-1.544,-1.585,-1.6073,-1.6772,-1.7122,-1.7199,-1.7199,-1.7199,-1.7199,-1.7199,-1.7261,-1.7337,-1.7337,-1.7618,-1.7975,-1.8068,-1.8519,-1.9068,-1.9376,-1.9541,-1.9628,-1.9628,-1.9744,-1.9823,-1.978,-1.9884,-1.9962,-1.9866,-1.9927,-1.9902,-1.9603,-1.9541,-1.9406,-1.8949,-1.8949,-1.8968,-1.8874,-1.8949,-1.8968,-1.8874,-1.8621,-1.8396,-1.8312,-1.8062,-1.7781,-1.7476,-1.7428,-1.7284,-1.6985,-1.6585,-1.6219,-1.5901,-1.5897,-1.5887,-1.5887,-1.5474,-1.5266,-1.5266,-1.484,-1.4605,-1.449,-1.449,-1.4415,0.1655,0.1175,0.0672,0.0397,0.0257,0.0109,-0.0223,-0.0309,-0.0394,-0.0646,-0.0683,-0.0809,-0.1316,-0.1411,-0.1579,-0.2169,-0.2246,-0.2456,-0.3018,-0.3552,-0.4058,-0.4486,-0.4591,-0.4823,-0.5358,-0.5515,-0.5857,-0.6473,-0.6933,-0.7495,-0.8255,-0.8658,-0.9239,-1.0076,-1.0145,-1.0838,-1.2236,-1.2846,-1.3141,-1.3141,-1.3438,-1.3592,-1.3592,-1.3592,-1.3692,-1.3821,-1.3949,-1.4163,-1.449,-1.504,-1.5417,-1.5678,-1.6333,-1.664,-1.6718,-1.7004,-1.7122,-1.7122,-1.7178,-1.7317,-1.7475,-1.7475,-1.7774,-1.8167,-1.8351,-1.8726,-1.9101,-1.9143,-1.9284,-1.9428,-1.9428,-1.9592,-1.9744,-1.9708,-1.978,-1.9841,-1.9762,-1.9679,-1.9527,-1.931,-1.9109,-1.8838,-1.8362,-1.8459,-1.8537,-1.8323,-1.8459,-1.8472,-1.8106,-1.7934,-1.7707,-1.7373,-1.7213,-1.7031,-1.6816,-1.6633,-1.6493,-1.6435,-1.6045,-1.5611,-1.5153,-1.5446,-1.5519,-1.534,-1.4937,-1.4726,-1.4726,-1.4438,-1.4188,-1.3983,-1.3983,-1.3865,0.2068,0.1921,0.1704,0.1416,0.125,0.1024,0.0625,0.0,0.0,0.0,0.0,-0.0557,-0.1089,-0.1253,-0.1501,-0.2109,-0.2133,-0.2284,-0.2911,-0.3315,-0.3609,-0.3758,-0.3996,-0.4273,-0.4566,-0.4747,-0.5112,-0.5744,-0.6319,-0.6828,-0.7302,-0.8039,-0.8692,-0.9206,-0.9394,-0.9994,-1.1077,-1.1938,-1.2396,-1.2454,-1.3135,-1.3467,-1.3515,-1.3563,-1.3592,-1.3615,-1.3844,0.0,-1.4393,-1.4692,-1.4994,-1.5315,-1.5874,-1.6092,-1.6179,-1.6772,-1.6981,-1.7002,-1.7143,-1.742,-1.7713,-1.7774,-1.8108,-1.8584,-1.8981,-1.9139,-1.9113,-1.8777,-1.8936,-1.9187,-1.9187,-1.9446,-1.97,-1.97,-1.97,-1.9682,-1.9628,-1.9336,-1.9064,-1.8924,-1.8623,-1.8246,-1.7794,-1.7988,-1.8081,-1.7686,-1.7928,-1.7894,-1.7215,-1.7132,-1.6894,-1.6281,-1.62,-1.6178,-1.6106,-1.573,-1.5595,-1.583,-1.5528,-1.5091,-1.4589,-1.4994,-1.5091,-1.4766,-1.4369,-1.416,-1.4136,-1.4095,-1.3865,-1.343,-1.3478,-1.3272,0.2355,0.22,0.2033,0.2054,0.215,0.2203,0.2017,0.167,0.0,0.0,0.0,0.0356,-0.0134,-0.0536,-0.1119,-0.2042,-0.1816,-0.1752,-0.2417,-0.2191,-0.2278,-0.3132,-0.3359,-0.3638,-0.4068,-0.4441,-0.5086,-0.6137,-0.6002,-0.6451,-0.7804,-0.7539,-0.7539,-0.7964,-0.8282,-0.8517,-0.8723,-1.0507,-1.1526,-1.1771,-1.2431,-1.2861,-1.3088,-1.3438,-1.3592,-1.3592,0.0,-1.3687,-1.3776,-1.4269,-1.4536,-1.4732,-1.5656,-1.6051,-1.6157,-1.6701,-1.6918,-1.6918,-1.7002,-1.7157,-1.7358,-1.7693,-1.8108,-1.8584,-1.8981,-1.9336,-1.9592,-1.953,-1.9556,-1.9617,-1.9617,-1.9646,-1.97,-1.97,-1.97,-1.9617,-1.9269,-1.9139,-1.8886,-1.8127,-1.7955,-1.7774,-1.7358,-1.7123,-1.6957,-1.6886,-1.6686,-1.65,-1.6377,-1.6377,-1.634,-1.6216,-1.62,-1.6057,-1.573,-1.5271,-1.4909,-1.4686,-1.4599,-1.4385,-1.3962,-1.4032,-1.4079,-1.4136,-1.3737,-1.3481,-1.338,-1.319,-1.2963,-1.2666,-1.2895,-1.29,0.2947,0.3051,0.3252,0.3057,0.2368,0.1854,0.2309,0.1789,0.1346,0.0,0.1233,0.0561,0.0089,-0.0179,-0.0559,-0.1276,-0.1665,-0.1898,-0.197,-0.1973,-0.2154,-0.2604,-0.2852,-0.3128,-0.3537,-0.3897,-0.4475,-0.5324,-0.5474,-0.5931,-0.6824,-0.6847,-0.6928,-0.715,-0.7483,-0.7654,-0.7654,-0.9393,-1.0629,-1.1282,-1.2109,-1.2716,-1.3117,-1.3362,-1.3491,-1.3491,0.0,-1.3592,-1.3615,-1.3876,-1.3983,-1.4107,-1.5108,-1.554,-1.5656,-1.6485,-1.684,-1.6903,-1.6939,-1.7143,-1.7399,-1.7652,-1.7981,-1.8323,-1.8577,-1.8796,-1.8933,-1.8933,-1.9303,-1.97,-1.97,-1.97,-1.97,-1.97,-1.9537,-1.9325,-1.9139,-1.8726,-1.8285,-1.7875,-1.7482,-1.7158,-1.6949,-1.6644,-1.6436,-1.6436,-1.6297,-1.6122,-1.5891,-1.5657,-1.544,-1.5244,-1.4977,-1.472,-1.4536,-1.4328,-1.4019,-1.3569,-1.326,-1.301,-1.2841,-1.2332,-1.2244,-1.2594,-1.2204,-1.1963,-1.1888,-1.1807,-1.1692,-1.1592,-1.1717,-1.1742,0.3623,0.3877,0.4249,0.4097,0.2943,0.2029,0.2717,0.2145,0.159,0.2013,0.1457,0.0785,0.0402,-0.0022,-0.0449,-0.0839,-0.1572,-0.2023,-0.1807,-0.1958,-0.2133,-0.2252,-0.2534,-0.2797,-0.3061,-0.3458,-0.3937,-0.4504,-0.4983,-0.5404,-0.5818,-0.6121,-0.6353,-0.647,-0.6775,-0.6997,-0.7077,-0.8516,-0.9684,-1.0581,-1.1779,-1.2546,-1.2929,-1.322,-1.3338,-1.3367,-1.3467,-1.3515,-1.3539,-1.3539,-1.3563,-1.3687,-1.4599,-1.5079,-1.535,-1.6066,-1.6562,-1.6818,-1.6607,-1.6899,-1.7372,-1.7455,-1.7707,-1.7994,-1.8193,-1.8285,-1.8305,-1.8305,-1.8846,-1.9413,-1.9413,-1.9413,-1.9413,-1.9413,-1.918,-1.8924,-1.8822,-1.8206,-1.7666,-1.7564,-1.7026,-1.6573,-1.6573,-1.6284,-1.6057,-1.6057,-1.5991,-1.5786,-1.5361,-1.5,-1.464,-1.4257,-1.3724,-1.3309,-1.3064,-1.304,-1.2754,-1.2083,-1.1776,-1.1627,-1.1634,-1.0931,-1.0741,-1.1166,-1.0889,-1.0741,-1.0716,-1.0767,-1.0767,-1.0716,-1.0762,-1.0792,0.4365,0.43,0.4339,0.4936,0.4586,0.4052,0.3996,0.3588,0.3273,0.3497,0.2478,0.1478,0.1338,-0.0134,-0.136,-0.1508,-0.1497,-0.1641,-0.2175,-0.1796,-0.1643,-0.2142,-0.2492,-0.2708,-0.273,-0.3325,-0.3893,-0.4367,-0.4626,-0.4998,-0.5582,-0.5472,-0.5517,-0.5764,-0.604,-0.6356,-0.6735,-0.7885,-0.8767,-0.9363,-1.1286,-1.218,-1.2113,-1.2871,-1.3213,-1.3213,-1.3213,-1.329,-1.3415,-1.3415,-1.3491,-1.3663,-1.4233,-1.4977,-1.5706,-1.535,-1.5846,-1.6583,-1.5718,-1.6092,-1.6926,-1.6868,-1.7167,-1.7605,-1.7994,-1.8205,-1.8305,-1.8305,-1.8449,-1.8584,-1.8584,-1.8584,-1.8584,-1.8584,-1.8558,-1.8429,-1.7995,-1.7592,-1.7236,-1.6858,-1.6479,-1.6237,-1.6237,-1.5913,-1.5635,-1.5635,-1.5373,-1.5017,-1.4558,-1.4471,-1.4233,-1.371,-1.3188,-1.2458,-1.1462,-1.1362,-1.0939,-0.9887,-1.0265,-1.0517,-1.0517,-1.0436,-1.044,-1.0462,-1.0568,-1.0538,-1.044,-1.0691,-1.0661,-1.044,-1.0691,-1.0737,0.4422,0.4494,0.476,0.5009,0.484,0.4627,0.4653,0.4017,0.3417,0.3492,0.2721,0.199,0.1852,0.0536,-0.036,0.0183,-0.0429,-0.1035,-0.1279,-0.1356,-0.1591,-0.2133,-0.231,-0.2465,-0.2686,-0.2928,-0.3323,-0.3913,-0.4143,-0.45,-0.5004,-0.5041,-0.5172,-0.5438,-0.5793,-0.6088,-0.6327,-0.7745,-0.844,-0.8411,-1.0388,-1.1476,-1.1749,-1.2153,-1.2463,-1.2717,-1.2787,-1.299,-1.329,-1.3367,-1.342,-1.3539,-1.4163,-1.4806,-1.5339,-1.517,-1.5356,-1.5641,-1.5305,-1.5434,-1.5784,-1.5842,-1.5936,-1.6051,-1.6296,-1.6397,-1.6425,-1.6425,-1.651,-1.6864,-1.8166,-1.8507,-1.8507,-1.8507,-1.8285,-1.7968,-1.7564,-1.7194,-1.6816,-1.6457,-1.6088,-1.5824,-1.5824,-1.553,-1.5193,-1.4897,-1.4743,-1.4483,-1.3975,-1.3322,-1.2827,-1.2638,-1.183,-1.1128,-1.0741,-1.0389,-0.9884,-0.9141,-0.9603,-0.9762,-0.9413,-0.9413,-0.9413,-0.9413,-0.9462,-0.9462,-0.9413,-0.9514,-0.9514,-0.9413,-0.9514,-0.954,0.4817,0.5081,0.5502,0.5504,0.0,0.5471,0.5429,0.4657,0.394,0.3854,0.3164,0.2456,0.2077,0.1071,0.0447,0.094,0.0045,-0.0761,-0.0895,-0.1187,-0.1591,-0.2133,-0.22,-0.2333,-0.2665,-0.2708,-0.2972,-0.3654,-0.3787,-0.4066,-0.46,-0.463,-0.4764,-0.5068,-0.5409,-0.5693,-0.5899,-0.7378,-0.8018,-0.7868,-0.9582,-1.0694,-1.1202,-1.1564,-1.19,-1.216,-1.2372,-1.2647,-1.2974,-1.3202,-1.3329,-1.3438,-1.3941,-1.4414,-1.4806,-1.4663,-1.4705,-1.4772,-1.4496,-1.4513,-1.4648,-1.4587,-1.4614,-1.467,-1.4767,-1.4821,-1.4865,-1.4865,-1.493,-1.5356,-1.6902,-1.7417,-1.7511,-1.7511,-1.7278,-1.6973,-1.6756,-1.6478,-1.6123,-1.569,-1.5355,-1.5085,-1.4886,-1.4646,-1.4322,-1.3839,-1.3774,-1.3503,-1.2798,-1.2076,-1.1478,-1.1162,-1.0466,-0.9965,-0.978,-0.9425,-0.8984,-0.8425,-0.8741,-0.8801,-0.853,-0.8504,-0.8613,-0.8808,-0.8808,-0.8808,-0.8808,-0.8808,-0.8808,-0.8808,-0.8808,-0.8695,0.5691,0.6136,0.6583,0.6583,0.6797,0.6863,0.6413,0.5734,0.5124,0.4866,0.3943,0.2923,0.1986,0.1315,0.0758,0.0291,-0.0291,-0.085,-0.1321,-0.1389,-0.159,-0.2131,-0.22,-0.2333,-0.2665,-0.2707,-0.297,-0.3653,-0.3581,-0.3781,-0.4448,-0.4171,-0.4176,-0.4589,-0.478,-0.5079,-0.5494,-0.6679,-0.742,-0.7698,-0.897,-0.9834,-1.0321,-1.1197,-1.1591,-1.1604,-1.1999,-1.2276,-1.2429,-1.2901,-1.3219,-1.3409,-1.3529,-1.3836,-1.4147,-1.3742,-1.3829,-1.4051,-1.3198,-1.3243,-1.3616,-1.3149,-1.3309,-1.3683,-1.3683,-1.3772,-1.3876,-1.3876,-1.3988,-1.4179,-1.4573,-1.5028,-1.5377,-1.5411,-1.5411,-1.5411,-1.5389,-1.535,-1.5096,-1.4423,-1.4242,-1.3983,-1.3309,-1.3189,-1.3001,-1.2473,-1.2395,-1.1995,-1.0927,-1.0776,-1.0361,-0.9309,-0.9185,-0.8975,-0.8424,-0.8395,-0.8123,-0.7519,-0.7489,-0.7599,-0.7874,-0.7898,-0.8173,-0.8781,-0.8778,-0.8778,-0.8778,-0.8778,-0.8778,-0.8778,-0.8778,-0.8451,0.5754,0.5872,0.5972,0.5972,0.6196,0.6447,0.6507,0.6224,0.5754,0.4959,0.4284,0.3728,0.3342,0.2583,0.1982,0.1831,0.1384,0.0781,-0.0022,-0.038,-0.0806,-0.1479,-0.1771,-0.2128,-0.2642,-0.257,-0.2777,-0.3502,-0.34,-0.3485,-0.3913,-0.3849,-0.3911,-0.4179,-0.4288,-0.4466,-0.4716,-0.5786,-0.6356,-0.6448,-0.815,-0.9115,-0.9424,-1.0294,-1.0693,-1.0719,-1.1113,-1.1491,-1.1869,-1.2079,-1.2448,-1.2799,-1.2563,-1.277,-1.3166,-1.2705,-1.2674,-1.284,-1.2565,-1.2578,-1.2695,-1.2552,-1.2589,-1.2716,-1.2716,-1.2732,-1.2768,-1.2768,-1.2789,-1.2864,-1.2984,-1.333,-1.3942,-1.5116,-1.5411,-1.5265,-1.475,-1.4607,-1.4382,-1.3674,-1.3513,-1.3428,-1.3237,-1.2899,-1.2463,-1.1924,-1.151,-1.0881,-0.9803,-0.9296,-0.8931,-0.8656,-0.7877,-0.7471,-0.7738,-0.7367,-0.691,-0.6337,-0.631,-0.6581,-0.7176,-0.7203,-0.7313,-0.7595,-0.7595,-0.7595,-0.7595,-0.7595,-0.7595,-0.7595,-0.7595,-0.7512,0.6076,0.6174,0.6184,0.6089,0.6214,0.6392,0.6569,0.6438,0.6121,0.5526,0.5038,0.46,0.4134,0.3553,0.3021,0.2632,0.2297,0.1761,0.0804,0.0469,-0.0045,-0.103,-0.1321,-0.1701,-0.2348,-0.2336,-0.2582,-0.3292,-0.3207,-0.3296,-0.368,-0.3569,-0.3585,-0.3799,-0.3888,-0.403,-0.4242,-0.5221,-0.5787,-0.599,-0.7702,-0.8459,-0.8402,-0.9661,-1.0153,-1.0056,-1.0641,-1.1178,-1.1601,-1.1742,-1.1983,-1.226,-1.2064,-1.2174,-1.2371,-1.2141,-1.1954,-1.1833,-1.1917,-1.1846,-1.1701,-1.1732,-1.1732,-1.1732,-1.1732,-1.1732,-1.1732,-1.1732,-1.166,-1.1588,-1.1771,-1.1904,-1.2358,-1.3859,-1.4342,-1.429,-1.3711,-1.3658,-1.3487,-1.2827,-1.2574,-1.2394,-1.2129,-1.1632,-1.1011,-1.0244,-0.9463,-0.8747,-0.8104,-0.7703,-0.7486,-0.7527,-0.6883,-0.6586,-0.6958,-0.6637,-0.6209,-0.5635,-0.5607,-0.5716,-0.6016,-0.6312,-0.6613,-0.6891,-0.6891,-0.6891,-0.6891,-0.6891,-0.6891,-0.6891,-0.6891,-0.6783,0.6539,0.6821,0.6945,0.6646,0.6624,0.6694,0.6718,0.6579,0.6419,0.6331,0.6014,0.5475,0.4581,0.4293,0.3896,0.298,0.2715,0.2271,0.1314,0.1158,0.0668,-0.0626,-0.0828,-0.114,-0.1876,-0.2025,-0.2337,-0.2977,-0.2985,-0.3152,-0.3582,-0.3357,-0.3295,-0.3498,-0.3668,-0.3846,-0.4028,-0.4987,-0.5679,-0.612,-0.7462,-0.7822,-0.737,-0.9255,-0.9932,-0.9701,-1.0492,-1.11,-1.1484,-1.1618,-1.1664,-1.1677,-1.1798,-1.1782,-1.1699,-1.181,-1.1517,-1.1084,-1.1221,-1.1038,-1.0727,-1.078,-1.078,-1.0785,-1.081,-1.081,-1.081,-1.081,-1.0592,-1.0454,-1.0899,-1.0806,-1.0875,-1.1988,-1.2574,-1.2798,-1.2409,-1.2492,-1.2448,-1.181,-1.1438,-1.1019,-1.0362,-0.9792,-0.9049,-0.7924,-0.687,-0.6209,-0.6209,-0.6152,-0.6152,-0.6206,-0.6098,-0.607,-0.6125,-0.607,-0.5798,-0.5252,-0.5224,-0.5064,-0.4688,-0.534,-0.5937,-0.6426,-0.6453,-0.6453,-0.6453,-0.6453,-0.6453,-0.6453,-0.6453,-0.6179,0.667,0.6952,0.7077,0.6439,0.6805,0.7369,0.7647,0.7673,0.7388,0.6477,0.6225,0.6012,0.5497,0.5065,0.4628,0.4057,0.362,0.3028,0.2029,0.165,0.1182,0.0313,-0.0268,-0.0827,-0.1472,-0.1691,-0.1949,-0.2367,-0.2629,-0.2787,-0.2826,-0.312,-0.3353,-0.3502,-0.3882,-0.4162,-0.4311,-0.5406,-0.6002,-0.6103,-0.6882,-0.7065,-0.6774,-0.9057,-1.0123,-1.0162,-1.0356,-1.0493,-1.0577,-1.0621,-1.0625,-1.0629,-1.0643,-1.068,-1.0697,-1.0734,-1.0725,-1.0665,-1.0405,-1.0248,-1.0132,-0.9947,-0.9884,-0.9928,-1.0132,-1.0196,-1.0196,-1.0196,-1.0137,-1.0112,-1.0208,-1.0431,-1.0672,-1.0919,-1.1578,-1.1907,-1.1099,-1.1171,-1.1141,-1.0251,-1.0046,-0.9803,-0.9162,-0.861,-0.7874,-0.6738,-0.6367,-0.6209,-0.6209,-0.5798,-0.5662,-0.6152,-0.5391,-0.5034,-0.5471,-0.5117,-0.4818,-0.4682,-0.468,-0.4627,-0.4546,-0.4796,-0.5042,-0.5254,-0.5279,-0.5279,-0.5279,-0.5279,-0.5279,-0.5279,-0.5279,-0.5199,0.7099,0.7343,0.7368,0.6894,0.7166,0.759,0.776,0.7906,0.7793,0.7037,0.6705,0.6424,0.6058,0.5685,0.5263,0.4721,0.4437,0.3931,0.2963,0.2474,0.1917,0.1116,0.0514,-0.0089,-0.0761,-0.1119,-0.1438,-0.1741,-0.2172,-0.2476,-0.2643,-0.2811,-0.3081,-0.3441,-0.3631,-0.384,-0.4119,-0.5013,-0.5633,-0.5914,-0.675,-0.7134,-0.7154,-0.8252,-0.8924,-0.9233,-0.9711,-0.9922,-0.9942,-1.0201,-1.0292,-1.0275,-1.0057,-0.998,-0.9987,-0.9795,-0.978,-0.9804,-0.9675,-0.962,-0.9596,-0.9494,-0.945,-0.9494,-0.9626,-0.9725,-0.976,-0.9505,-0.9394,-0.9324,-0.9106,-0.9086,-0.914,-0.9196,-1.0251,-1.1091,-1.0553,-1.0379,-1.0192,-0.9688,-0.9157,-0.8695,-0.8367,-0.7386,-0.6458,-0.5848,-0.5553,-0.5391,-0.5391,-0.5117,-0.5036,-0.5363,-0.4846,-0.4486,-0.4481,-0.4236,-0.3959,-0.3653,-0.3627,-0.3627,-0.3627,-0.371,-0.4044,-0.4708,-0.4708,-0.4708,-0.4708,-0.4708,-0.4708,-0.4708,-0.4708,-0.4708,0.7451,0.7682,0.7729,0.7648,0.7727,0.7816,0.7748,0.7957,0.8072,0.7704,0.7195,0.6718,0.6389,0.6061,0.5685,0.5185,0.4987,0.4578,0.3741,0.3203,0.2595,0.1747,0.1246,0.0703,0.0044,-0.0488,-0.0873,-0.1073,-0.1645,-0.2111,-0.2432,-0.252,-0.2788,-0.3298,-0.3362,-0.3569,-0.3945,-0.4578,-0.5147,-0.5672,-0.6517,-0.7047,-0.7301,-0.7033,-0.7255,-0.7917,-0.8763,-0.9117,-0.9157,-0.9643,-0.98,-0.9697,-0.9432,-0.9268,-0.9173,-0.8914,-0.8825,-0.8825,-0.8862,-0.8882,-0.8882,-0.8889,-0.891,-0.891,-0.895,-0.9077,-0.9104,-0.8662,-0.85,-0.8378,-0.7986,-0.7668,-0.7485,-0.7594,-0.8742,-0.9842,-0.9921,-0.9611,-0.9265,-0.9194,-0.8251,-0.7443,-0.7443,-0.619,-0.5115,-0.503,-0.4706,-0.4434,-0.421,-0.4294,-0.4294,-0.421,-0.4182,-0.3989,-0.3486,-0.3432,-0.3236,-0.2736,-0.2708,-0.2708,-0.2708,-0.2708,-0.3181,-0.4184,-0.4182,-0.4182,-0.4182,-0.4182,-0.4182,-0.4182,-0.4182,-0.4182,0.7215,0.7606,0.8048,0.8433,0.8632,0.865,0.8362,0.8592,0.8729,0.8215,0.7448,0.6793,0.6443,0.5973,0.5622,0.5525,0.4879,0.4218,0.3756,0.3291,0.2704,0.1955,0.1496,0.1095,0.0698,0.0021,-0.0339,-0.0274,-0.1022,-0.15,-0.1493,-0.2298,-0.2819,-0.296,-0.3731,-0.4267,-0.4489,-0.4978,-0.5335,-0.5534,-0.5385,-0.5339,-0.5367,-0.5327,-0.6074,-0.74,-0.7524,-0.7586,-0.7611,-0.7857,-0.7762,-0.748,-0.8003,-0.7962,-0.7657,-0.8007,-0.8134,-0.8068,-0.7681,-0.756,-0.7519,-0.7367,-0.7311,-0.7346,-0.7519,-0.7595,-0.7591,-0.7508,-0.7491,-0.7474,-0.7412,-0.737,-0.7311,-0.7269,-0.7185,-0.7303,-0.7993,-0.8141,-0.7983,-0.7527,-0.647,-0.5653,-0.5653,-0.506,-0.4431,-0.3901,-0.421,-0.4127,-0.307,-0.3403,-0.3515,-0.2986,-0.293,-0.2903,-0.282,-0.282,-0.2792,-0.2708,-0.2708,-0.2708,-0.2708,-0.2708,-0.2764,-0.293,-0.293,-0.293,-0.293,-0.293,-0.293,-0.293,-0.293,-0.293,0.7765,0.8128,0.8448,0.8917,0.908,0.9061,0.8786,0.8818,0.873,0.815,0.7364,0.6765,0.6698,0.6371,0.6009,0.5711,0.5341,0.4869,0.4243,0.3747,0.325,0.2754,0.2073,0.1501,0.1171,0.0607,0.0142,-0.0142,-0.0516,-0.0901,-0.1274,-0.1653,-0.204,-0.2432,-0.2739,-0.312,-0.3583,-0.4065,-0.4609,-0.5217,-0.5072,-0.4873,-0.4661,-0.4781,-0.5268,-0.6052,-0.6603,-0.6852,-0.6876,-0.728,-0.7321,-0.7183,-0.738,-0.7321,-0.7137,-0.7228,-0.7276,-0.7231,-0.7028,-0.6965,-0.6948,-0.687,-0.6831,-0.6807,-0.6625,-0.6654,-0.6624,-0.6055,-0.5991,-0.601,-0.5751,-0.5666,-0.5696,-0.5733,-0.5723,-0.5737,-0.5811,-0.6296,-0.6571,-0.6064,-0.5546,-0.5001,-0.4451,-0.4151,-0.3793,-0.3181,-0.332,-0.3292,-0.2764,-0.293,-0.2986,-0.2736,-0.2708,-0.2569,-0.2235,-0.2208,-0.2041,-0.1706,-0.1679,-0.1679,-0.1679,-0.1679,-0.1679,-0.1679,-0.2347,-0.2708,-0.2708,-0.2708,-0.2708,-0.2708,-0.2708,-0.2708,0.8222,0.8644,0.8885,0.9223,0.9412,0.9469,0.921,0.8997,0.8721,0.8274,0.7614,0.7099,0.6993,0.6601,0.6169,0.5762,0.5598,0.5291,0.4624,0.4129,0.3706,0.3289,0.2542,0.1932,0.161,0.1078,0.0578,0.0135,-0.0019,-0.0332,-0.0885,-0.0997,-0.1282,-0.1774,-0.1848,-0.2111,-0.2619,-0.3082,-0.3766,-0.4617,-0.4635,-0.4546,-0.4383,-0.4431,-0.4523,-0.4707,-0.557,-0.5939,-0.5979,-0.6425,-0.6605,-0.6587,-0.6407,-0.6349,-0.631,-0.6112,-0.6033,-0.6033,-0.6079,-0.6081,-0.6081,-0.6081,-0.6081,-0.6017,-0.5672,-0.5682,-0.5628,-0.4887,-0.4781,-0.4824,-0.4456,-0.4282,-0.4188,-0.4152,-0.4234,-0.4294,-0.4198,-0.4673,-0.4964,-0.447,-0.4359,-0.4113,-0.3372,-0.3292,-0.3125,-0.2514,-0.2569,-0.2597,-0.2292,-0.2375,-0.2402,-0.2207,-0.2235,-0.2041,-0.1567,-0.1456,-0.1204,-0.0757,-0.0617,-0.0561,-0.0561,-0.0561,-0.0617,-0.0729,-0.1594,-0.2123,-0.2235,-0.2235,-0.2235,-0.2235,-0.2235,-0.2235,0.8222,0.8926,0.9343,0.9319,0.9736,1.0045,0.9659,0.9266,0.8986,0.8948,0.8601,0.8082,0.7319,0.6389,0.5737,0.5704,0.5327,0.4936,0.464,0.425,0.3778,0.3183,0.2731,0.236,0.2098,0.135,0.0897,0.0934,0.0459,0.0154,0.0128,-0.0533,-0.0936,-0.0957,-0.1693,-0.2102,-0.2127,-0.2599,-0.3085,-0.3577,-0.3636,-0.3904,-0.43,-0.3917,-0.3758,-0.3787,-0.4229,-0.4423,-0.4425,-0.4659,-0.4744,-0.472,-0.4585,-0.4539,-0.4517,-0.4306,-0.424,-0.4264,-0.4379,-0.4425,-0.4425,-0.4425,-0.4425,-0.4423,-0.4403,-0.4403,-0.4403,-0.4338,-0.434,-0.434,-0.4316,-0.3973,-0.3505,-0.3003,-0.2666,-0.2703,-0.3629,-0.3518,-0.3053,-0.2478,-0.2341,-0.2341,-0.2286,-0.2426,-0.2345,-0.1761,-0.2262,-0.2292,-0.1149,-0.1483,-0.1567,-0.0869,-0.0925,-0.0925,-0.0757,-0.0476,-0.028,-0.0252,0.0112,0.0336,0.0336,0.0336,0.014,-0.0224,-0.0308,-0.056,-0.0981,-0.0981,-0.0981,-0.0981,-0.0981,-0.0981,0.7853,0.84,0.8921,0.9588,1.0012,1.0276,1.0344,0.9994,0.9567,0.9314,0.8627,0.7968,0.7592,0.7057,0.6528,0.6145,0.594,0.5651,0.5131,0.4743,0.4336,0.3867,0.3266,0.2846,0.2745,0.2052,0.1539,0.1399,0.1054,0.0705,0.0416,0.0141,-0.0036,-0.0124,-0.0408,-0.0763,-0.1191,-0.1759,-0.2129,-0.2355,-0.2498,-0.269,-0.2895,-0.3006,-0.3055,-0.3067,-0.3308,-0.3604,-0.3929,-0.3989,-0.3977,-0.3893,-0.3973,-0.3952,-0.3891,-0.3955,-0.3975,-0.3997,-0.4134,-0.418,-0.418,-0.4272,-0.4296,-0.4184,-0.3585,-0.3363,-0.3208,-0.2609,-0.2433,-0.2433,-0.2433,-0.2319,-0.2141,-0.1943,-0.1591,-0.1363,-0.1743,-0.2059,-0.2217,-0.209,-0.2076,-0.1973,-0.1675,-0.1679,-0.1537,-0.0924,-0.1064,-0.0952,-0.0168,-0.0252,-0.014,0.0503,0.0531,0.0531,0.0587,0.0699,0.0755,0.0755,0.0895,0.0895,0.0727,0.0895,0.0839,0.0503,0.0503,0.0056,-0.0897,-0.0897,-0.0897,-0.0897,-0.0897,-0.0897,0.7644,0.8128,0.8711,0.9748,1.022,1.0543,1.0936,1.053,0.9986,0.9729,0.8929,0.8192,0.7978,0.7755,0.7345,0.656,0.6353,0.6106,0.555,0.5172,0.4785,0.4256,0.3691,0.3286,0.3175,0.2595,0.2163,0.1977,0.174,0.1456,0.1122,0.0888,0.0621,0.0302,0.0302,0.0084,-0.0353,-0.0889,-0.1189,-0.124,-0.1592,-0.1791,-0.1839,-0.2293,-0.2507,-0.2512,-0.2672,-0.3005,-0.3427,-0.3427,-0.3376,-0.3298,-0.3346,-0.3319,-0.3235,-0.332,-0.3268,-0.3136,-0.3292,-0.3226,-0.3114,-0.3204,-0.3249,-0.3185,-0.2542,-0.2344,-0.221,-0.1566,-0.1411,-0.1411,-0.1411,-0.1276,-0.112,-0.0964,-0.0572,-0.0233,-0.0233,-0.0728,-0.1212,-0.1304,-0.119,-0.0972,-0.0619,-0.0463,-0.0248,0.0196,0.0224,0.0308,0.0644,0.084,0.1119,0.1564,0.1564,0.1564,0.1592,0.1565,0.1538,0.1538,0.1678,0.1678,0.151,0.1678,0.1622,0.1286,0.1258,0.0811,-0.0168,-0.0364,-0.0477,-0.0477,-0.0477,-0.0533,0.0,0.0,0.0,0.973,1.031,1.0816,1.1361,1.0828,1.021,1.0225,0.9584,0.8894,0.8504,0.843,0.8055,0.6946,0.6521,0.6206,0.5859,0.5535,0.5052,0.4323,0.3978,0.3677,0.336,0.2964,0.2714,0.2714,0.2527,0.2391,0.2322,0.1688,0.1021,0.0369,0.0353,0.0336,0.0319,-0.0067,-0.0269,-0.0286,-0.0955,-0.1255,-0.1271,-0.1804,-0.2054,-0.2054,-0.2257,-0.2519,-0.2831,-0.2871,-0.2873,-0.2853,-0.2586,-0.249,-0.2465,-0.2332,-0.1991,-0.1613,-0.1743,-0.1475,-0.1097,-0.1097,-0.1187,-0.1298,-0.1276,-0.1321,-0.1366,-0.1366,-0.1344,-0.1344,-0.1366,-0.103,-0.056,-0.009,0.0359,0.0693,0.0716,0.0357,0.0051,0.0053,0.0412,0.0773,0.0884,0.1196,0.145,0.1613,0.1454,0.1342,0.1369,0.1758,0.2091,0.223,0.2119,0.2091,0.2231,0.2124,0.2043,0.2043,0.2465,0.2719,0.2719,0.2719,0.2521,0.2043,0.2043,0.1818,0.1342,0.0728,0.0421,0.0421,0.0421,0.0224,0.7149,0.0,0.0,0.0,0.0,0.0,1.1132,1.0861,1.0526,1.091,1.0089,0.9253,0.9148,0.8973,0.8734,0.8422,0.7564,0.6766,0.6237,0.587,0.5493,0.5049,0.4452,0.4046,0.3953,0.3452,0.313,0.313,0.2907,0.2706,0.2595,0.2224,0.1889,0.1603,0.1406,0.119,0.0955,0.0652,0.0368,0.0134,-0.0201,-0.0352,-0.0369,-0.067,-0.0804,-0.0804,-0.0905,-0.1006,-0.1174,-0.2133,-0.2453,-0.2331,-0.2348,-0.226,-0.209,-0.1763,-0.1567,-0.1433,-0.123,-0.1073,-0.0962,-0.1074,-0.1119,-0.1097,-0.0761,-0.0671,-0.0627,-0.0314,-0.0247,-0.0269,-0.0359,-0.0292,-0.0067,0.0403,0.0604,0.0783,0.1141,0.1094,0.1023,0.1011,0.1123,0.1253,0.139,0.1471,0.1692,0.2167,0.2206,0.2426,0.3147,0.3064,0.3121,0.3593,0.335,0.3159,0.3216,0.3189,0.3163,0.3163,0.3276,0.3247,0.2993,0.322,0.3163,0.2796,0.2796,0.2739,0.2599,0.1565,0.1063,0.1063,0.1063,0.0979,0.6976,0.7225,0.7693,0.8627,0.0,0.0,1.0738,1.0687,1.0462,1.0746,1.0249,0.9717,0.9527,0.9363,0.9192,0.9033,0.8412,0.7718,0.706,0.6408,0.589,0.5546,0.5009,0.4596,0.4462,0.4127,0.3921,0.3921,0.3781,0.3565,0.3306,0.3108,0.2825,0.241,0.2247,0.1968,0.1587,0.1419,0.1236,0.1054,0.0821,0.0704,0.0704,0.0418,0.0284,0.0267,0.0,-0.0134,-0.0268,-0.1187,-0.152,-0.1451,-0.1582,-0.1547,-0.1397,-0.1223,-0.1014,-0.0783,-0.0582,-0.0403,-0.0246,-0.0314,-0.0381,-0.0381,-0.0112,-0.0045,-0.0022,0.0157,0.0292,0.0426,0.0561,0.0583,0.065,0.0918,0.114,0.1408,0.1854,0.2101,0.2068,0.1512,0.1548,0.1826,0.2208,0.2426,0.2768,0.3402,0.351,0.3705,0.4314,0.4147,0.4093,0.4455,0.4101,0.3856,0.3856,0.3692,0.3612,0.3612,0.3612,0.3499,0.3328,0.3499,0.3499,0.3301,0.3301,0.3301,0.3301,0.2349,0.1875,0.1875,0.1875,0.179,0.7074,0.7085,0.7435,0.8746,0.8932,0.0,1.0197,1.0285,1.0103,1.0044,1.0083,1.0018,0.9669,0.9634,0.9543,0.9153,0.9111,0.8838,0.8013,0.7073,0.6331,0.5961,0.5604,0.5277,0.4956,0.4873,0.4831,0.4801,0.4798,0.4613,0.4181,0.4095,0.3734,0.301,0.2978,0.2754,0.2298,0.2283,0.2268,0.2217,0.1939,0.1809,0.1791,0.1398,0.1213,0.1179,0.07,0.0417,0.0284,-0.0017,-0.0285,-0.0507,-0.0643,-0.0656,-0.0627,-0.068,-0.0408,0.0,0.0067,0.0359,0.0697,0.0697,0.0629,0.0539,0.0584,0.0562,0.0494,0.0427,0.0605,0.0917,0.1343,0.1433,0.1456,0.1544,0.1877,0.2298,0.2741,0.3168,0.3094,0.19,0.2024,0.2538,0.3205,0.3703,0.4213,0.4879,0.4981,0.4983,0.5038,0.5009,0.4981,0.4981,0.4565,0.4288,0.4288,0.3938,0.3749,0.3749,0.3692,0.3666,0.3666,0.361,0.3612,0.3612,0.3612,0.3612,0.3612,0.3054,0.2802,0.2802,0.2802,0.2577,0.7477,0.7684,0.7951,0.824,0.8829,0.0,0.9446,0.9598,0.9695,0.9623,0.934,0.9196,0.9539,0.9854,0.9986,0.9688,0.9831,0.9478,0.8101,0.7713,0.7356,0.6747,0.6288,0.5941,0.5706,0.5338,0.5026,0.4813,0.4798,0.4718,0.4513,0.4497,0.4382,0.418,0.4124,0.3892,0.347,0.3412,0.3249,0.2976,0.2659,0.2499,0.2483,0.2083,0.19,0.19,0.174,0.1659,0.1624,0.1508,0.0687,-0.0507,-0.0643,-0.0697,-0.0636,-0.0286,-0.0085,0.0064,0.0422,0.0629,0.0697,0.0697,0.0675,0.0742,0.1099,0.121,0.1277,0.1564,0.1608,0.1607,0.1697,0.1719,0.1876,0.2476,0.2677,0.2921,0.3522,0.3748,0.3735,0.3471,0.3613,0.3878,0.4118,0.4384,0.4748,0.5364,0.5454,0.5593,0.5898,0.5677,0.5454,0.5454,0.5038,0.4759,0.4759,0.4679,0.4653,0.4653,0.4293,0.407,0.407,0.3774,0.3612,0.3612,0.3612,0.3612,0.3612,0.3471,0.3417,0.3417,0.3417,0.3388,0.7616,0.7726,0.7937,0.8306,0.8627,0.0,0.0,0.9459,0.9487,0.9623,0.9389,0.9229,0.9506,0.9583,0.9627,0.969,0.9813,0.9572,0.8626,0.8155,0.7682,0.7112,0.6689,0.6405,0.6314,0.6081,0.5995,0.6083,0.6104,0.6061,0.6,0.5772,0.5534,0.5312,0.5269,0.4969,0.4407,0.433,0.4124,0.379,0.3565,0.3451,0.3435,0.3237,0.3153,0.3122,0.2766,0.2587,0.252,0.2111,0.1407,0.0588,0.0518,0.0497,0.053,0.077,0.0856,0.0899,0.1197,0.1301,0.1306,0.1379,0.1389,0.1433,0.1678,0.1722,0.1788,0.2235,0.2431,0.2559,0.278,0.3024,0.3267,0.3539,0.3607,0.3697,0.4078,0.4146,0.4212,0.4412,0.4601,0.4738,0.4755,0.4833,0.5137,0.5799,0.5898,0.5943,0.603,0.5781,0.5557,0.5459,0.5122,0.4899,0.4899,0.4899,0.4899,0.4899,0.4677,0.4537,0.4537,0.4349,0.4132,0.391,0.3694,0.3612,0.3612,0.3612,0.3612,0.3612,0.3612,0.3612,0.778,0.7727,0.7869,0.8535,0.8547,0.8626,0.0,0.0,0.0,0.9498,0.9364,0.9239,0.9252,0.9089,0.9052,0.9349,0.9507,0.9453,0.9041,0.8474,0.7952,0.7552,0.7289,0.7141,0.7106,0.7008,0.7101,0.7491,0.7522,0.7489,0.7403,0.7036,0.6646,0.6231,0.6201,0.5914,0.5322,0.5165,0.4988,0.4775,0.4448,0.434,0.4411,0.4272,0.4191,0.4178,0.363,0.3367,0.3267,0.2669,0.2307,0.2106,0.1809,0.1688,0.1684,0.1702,0.1708,0.1755,0.1854,0.1913,0.1961,0.2075,0.2232,0.2387,0.2387,0.2474,0.265,0.3034,0.3341,0.3641,0.4017,0.4393,0.4639,0.4532,0.4489,0.4513,0.4626,0.465,0.4793,0.5233,0.5445,0.5454,0.5174,0.5162,0.5394,0.6007,0.6085,0.6022,0.5873,0.5709,0.5546,0.5423,0.5226,0.5111,0.5146,0.5148,0.5148,0.5148,0.5064,0.5036,0.5036,0.4954,0.4732,0.4345,0.4021,0.3803,0.372,0.372,0.3665,0.3612,0.3612,0.3612,0.8306,0.8228,0.8227,0.8611,0.8945,0.9188,0.9236,0.0,0.9375,0.8706,0.0,0.8282,0.8337,0.0,0.0,0.8651,0.9182,0.9359,0.8664,0.8748,0.8809,0.8636,0.8699,0.8692,0.8568,0.8124,0.7881,0.7934,0.793,0.7779,0.7412,0.7351,0.7109,0.6639,0.6568,0.6496,0.642,0.6,0.5913,0.6164,0.5128,0.4823,0.5153,0.4491,0.4191,0.4191,0.4127,0.4075,0.4075,0.3978,0.3867,0.3611,0.2239,0.1665,0.1616,0.1679,0.1784,0.1874,0.1895,0.1974,0.2086,0.2096,0.2698,0.3429,0.3429,0.3999,0.4676,0.4722,0.4766,0.4807,0.4853,0.492,0.4985,0.5156,0.5176,0.5245,0.5499,0.5547,0.5739,0.6372,0.6427,0.613,0.5409,0.5433,0.5576,0.565,0.5679,0.5672,0.5646,0.5613,0.5661,0.5815,0.58,0.5862,0.605,0.6064,0.6064,0.6064,0.5704,0.551,0.551,0.512,0.4869,0.4814,0.4789,0.4539,0.4124,0.4124,0.3962,0.3612,0.3612,0.3612,0.8398,0.8351,0.8371,0.8642,0.8823,0.8967,0.9065,0.9078,0.8986,0.8641,0.0,0.0,0.0,0.0,0.0,0.0,0.8528,0.8667,0.8464,0.8726,0.903,0.9236,0.9118,0.8987,0.8924,0.913,0.9273,0.9273,0.9275,0.931,0.9367,0.8625,0.8163,0.8036,0.7704,0.7344,0.6953,0.6479,0.6217,0.6151,0.5214,0.4931,0.5224,0.4766,0.4658,0.4826,0.4637,0.4543,0.4524,0.4291,0.4145,0.3997,0.3353,0.2973,0.2818,0.2852,0.2997,0.3194,0.3264,0.3441,0.3634,0.3745,0.4061,0.4417,0.4417,0.4681,0.5007,0.5007,0.52,0.5416,0.5416,0.5618,0.5798,0.5731,0.5854,0.6004,0.5994,0.6302,0.6659,0.6929,0.7046,0.6985,0.6634,0.6685,0.6705,0.6489,0.6365,0.6134,0.565,0.5713,0.5772,0.5739,0.5925,0.6106,0.6196,0.6205,0.6205,0.6205,0.6039,0.5952,0.5952,0.5538,0.5315,0.5315,0.5038,0.4814,0.4593,0.4593,0.4513,0.4353,0.3833,0.3612,0.8398,0.8322,0.8286,0.8557,0.8593,0.8619,0.8837,0.8826,0.8754,0.8609,0.833,0.0,0.0,0.0,0.7628,0.7969,0.0,0.802,0.8275,0.8528,0.889,0.945,0.9544,0.9533,0.9515,1.0055,1.0441,1.0546,1.0441,1.0463,1.0636,0.9707,0.9108,0.8947,0.8504,0.7999,0.7481,0.6808,0.6403,0.6255,0.533,0.5035,0.5296,0.5033,0.5035,0.5253,0.5042,0.4937,0.4918,0.4618,0.4465,0.4395,0.4395,0.4266,0.4032,0.3896,0.397,0.4171,0.4356,0.4567,0.4814,0.4959,0.5094,0.5202,0.5202,0.5289,0.538,0.538,0.5639,0.5897,0.5897,0.6206,0.6496,0.63,0.6508,0.6714,0.6565,0.6978,0.7443,0.7633,0.7746,0.7889,0.8047,0.7699,0.7288,0.7041,0.6806,0.646,0.5873,0.5998,0.6121,0.6027,0.6233,0.6379,0.644,0.6284,0.6205,0.6205,0.6205,0.6205,0.6205,0.5927,0.5759,0.5759,0.5426,0.5203,0.5093,0.5093,0.5036,0.4899,0.4242,0.3968,0.8398,0.8115,0.7913,0.8306,0.8321,0.829,0.8549,0.8811,0.8867,0.8411,0.8355,0.8284,0.7964,0.7741,0.7642,0.0,0.7651,0.0,0.0,0.8121,0.8422,0.9216,1.0262,1.0905,1.084,1.0859,1.1048,1.1436,1.1094,1.0679,1.0233,1.0181,0.9733,0.8834,0.8543,0.8318,0.8178,0.6995,0.6595,0.6958,0.5692,0.5259,0.5575,0.5312,0.52,0.52,0.5258,0.5281,0.5281,0.5265,0.5226,0.5172,0.5172,0.5081,0.4892,0.4373,0.4237,0.434,0.4599,0.4828,0.5,0.5005,0.5308,0.5674,0.5674,0.5989,0.6349,0.6349,0.637,0.637,0.637,0.6623,0.6875,0.6875,0.7125,0.7374,0.7374,0.764,0.8081,0.8714,0.8738,0.8852,0.943,0.8024,0.6831,0.6814,0.652,0.6303,0.6276,0.6572,0.6833,0.702,0.6887,0.685,0.7066,0.6524,0.6205,0.6205,0.6205,0.6205,0.6205,0.6175,0.6175,0.6175,0.6178,0.5955,0.5565,0.5565,0.5344,0.4899,0.4871,0.4871,0.0,0.0,0.7548,0.7924,0.7806,0.7676,0.8001,0.7866,0.7703,0.7811,0.7744,0.7714,0.7816,0.7774,0.768,0.0,0.7486,0.7399,0.0,0.7263,0.7666,0.8294,0.9615,1.0454,1.0441,1.0957,1.1348,1.1497,1.1362,1.1223,1.108,1.0714,1.0242,0.9611,0.9419,0.905,0.8465,0.7358,0.6819,0.6855,0.5529,0.5006,0.521,0.5202,0.532,0.5529,0.5603,0.5624,0.5608,0.5388,0.5293,0.5261,0.5261,0.5211,0.509,0.4774,0.4911,0.5278,0.5683,0.586,0.593,0.593,0.6037,0.6166,0.6166,0.6279,0.6456,0.6663,0.673,0.679,0.6999,0.7143,0.723,0.723,0.7478,0.7729,0.7729,0.834,0.8959,0.9186,0.9515,0.9751,0.9685,0.9108,0.8455,0.7888,0.7578,0.7352,0.7181,0.7264,0.7355,0.7421,0.7484,0.7565,0.7631,0.745,0.7187,0.6817,0.679,0.6603,0.623,0.6205,0.6205,0.6205,0.6205,0.6121,0.6009,0.6009,0.5927,0.5759,0.5759,0.5454,0.7269,0.7217,0.0,0.7536,0.7467,0.7364,0.7572,0.745,0.7321,0.7471,0.7597,0.768,0.7634,0.7777,0.7756,0.0,0.0,0.7204,0.0,0.6814,0.7209,0.7577,0.9026,1.0013,1.0097,1.0903,1.1511,1.1708,1.1719,1.1719,1.1719,1.1388,1.0875,1.0205,0.9977,0.9511,0.8787,0.7645,0.7008,0.6855,0.5631,0.5084,0.5151,0.5329,0.5526,0.575,0.5901,0.5986,0.5955,0.5749,0.5655,0.5655,0.5655,0.562,0.5549,0.5226,0.5424,0.5889,0.6258,0.6392,0.6413,0.6538,0.6581,0.6602,0.6727,0.6748,0.6811,0.702,0.7083,0.7125,0.7353,0.7496,0.7583,0.7583,0.7833,0.8085,0.8085,0.8688,0.9255,0.9374,0.9723,0.993,0.9758,0.9597,0.9267,0.8644,0.8458,0.8337,0.8166,0.8184,0.825,0.8297,0.8268,0.8137,0.7925,0.7898,0.7744,0.7402,0.7372,0.7214,0.6815,0.6815,0.6709,0.6524,0.6524,0.6418,0.6205,0.6205,0.6205,0.6205,0.6205,0.5898]}]]